<?xml version="1.0" encoding="UTF-8" standalone="no" ?>
<gpx xmlns="http://www.topografix.com/GPX/1/1" xmlns:xsi="http://www.w3.org/2001/XMLSchema-instance" xsi:schemaLocation="http://www.topografix.com/GPX/1/1 http://www.topografix.com/GPX/1/1/gpx.xsd" version="1.1" creator="VisuGPX - https://www.visugpx.com">
  <metadata>
    <name>Vertaco Bike 58km L_experte_3n0d69mtig</name>
  </metadata>
  <trk>
    <name><![CDATA[10097075-new 54km vertaco bike]]></name>
    <extensions>
      <line xmlns="http://www.topografix.com/GPX/gpx_style/0/2">
        <color>0000FF</color>
        <width>4</width>
      </line>
    </extensions>
    <trkseg>
      <trkpt lat="45.17494" lon="5.54186">
        <ele>1045</ele>
        <time>2019-06-19T21:28:58Z</time>
        <extensions>
          <visugpx:TrkExtension xmlns:visugpx="https://www.visugpx.com/editgpx/">
            <visugpx:node>1</visugpx:node>
            </visugpx:TrkExtension>
        </extensions>
      </trkpt>
      <trkpt lat="45.17498" lon="5.54184">
        <ele>1045</ele>
        <time>2019-06-19T21:28:59Z</time>
      </trkpt>
      <trkpt lat="45.17486" lon="5.54188">
        <ele>1044</ele>
        <time>2019-06-19T21:29:02Z</time>
      </trkpt>
      <trkpt lat="45.17482" lon="5.54181">
        <ele>1044</ele>
        <time>2019-06-19T21:29:03Z</time>
      </trkpt>
      <trkpt lat="45.17477" lon="5.54159">
        <ele>1044</ele>
        <time>2019-06-19T21:29:07Z</time>
      </trkpt>
      <trkpt lat="45.17471" lon="5.54148">
        <ele>1043</ele>
        <time>2019-06-19T21:29:09Z</time>
      </trkpt>
      <trkpt lat="45.17377" lon="5.54055">
        <ele>1037</ele>
        <time>2019-06-19T21:29:36Z</time>
      </trkpt>
      <trkpt lat="45.17372" lon="5.54037">
        <ele>1036</ele>
        <time>2019-06-19T21:29:39Z</time>
      </trkpt>
      <trkpt lat="45.17374" lon="5.54018">
        <ele>1036</ele>
        <time>2019-06-19T21:29:43Z</time>
      </trkpt>
      <trkpt lat="45.17412" lon="5.53867">
        <ele>1033</ele>
        <time>2019-06-19T21:30:09Z</time>
      </trkpt>
      <trkpt lat="45.17443" lon="5.53689">
        <ele>1037</ele>
        <time>2019-06-19T21:30:39Z</time>
      </trkpt>
      <trkpt lat="45.1747" lon="5.53684">
        <ele>1038</ele>
        <time>2019-06-19T21:30:45Z</time>
      </trkpt>
      <trkpt lat="45.1749" lon="5.53687">
        <ele>1038</ele>
        <time>2019-06-19T21:30:50Z</time>
      </trkpt>
      <trkpt lat="45.17522" lon="5.53686">
        <ele>1040</ele>
        <time>2019-06-19T21:30:58Z</time>
      </trkpt>
      <trkpt lat="45.17588" lon="5.53691">
        <ele>1046</ele>
        <time>2019-06-19T21:31:13Z</time>
      </trkpt>
      <trkpt lat="45.17645" lon="5.53673">
        <ele>1048</ele>
        <time>2019-06-19T21:31:27Z</time>
      </trkpt>
      <trkpt lat="45.17658" lon="5.53662">
        <ele>1048</ele>
        <time>2019-06-19T21:31:30Z</time>
      </trkpt>
      <trkpt lat="45.17669" lon="5.53645">
        <ele>1048</ele>
        <time>2019-06-19T21:31:34Z</time>
      </trkpt>
      <trkpt lat="45.17729" lon="5.53508">
        <ele>1037</ele>
        <time>2019-06-19T21:32:01Z</time>
      </trkpt>
      <trkpt lat="45.17763" lon="5.53425">
        <ele>1037</ele>
        <time>2019-06-19T21:32:16Z</time>
      </trkpt>
      <trkpt lat="45.17815" lon="5.53287">
        <ele>1039</ele>
        <time>2019-06-19T21:32:42Z</time>
      </trkpt>
      <trkpt lat="45.17823" lon="5.53277">
        <ele>1039</ele>
        <time>2019-06-19T21:32:45Z</time>
      </trkpt>
      <trkpt lat="45.17828" lon="5.53275">
        <ele>1040</ele>
        <time>2019-06-19T21:32:46Z</time>
      </trkpt>
      <trkpt lat="45.17839" lon="5.53277">
        <ele>1040</ele>
        <time>2019-06-19T21:32:48Z</time>
      </trkpt>
      <trkpt lat="45.17903" lon="5.53301">
        <ele>1042</ele>
        <time>2019-06-19T21:33:04Z</time>
      </trkpt>
      <trkpt lat="45.17951" lon="5.53339">
        <ele>1042</ele>
        <time>2019-06-19T21:33:17Z</time>
      </trkpt>
      <trkpt lat="45.17961" lon="5.53342">
        <ele>1041</ele>
        <time>2019-06-19T21:33:19Z</time>
      </trkpt>
      <trkpt lat="45.17976" lon="5.53342">
        <ele>1041</ele>
        <time>2019-06-19T21:33:23Z</time>
      </trkpt>
      <trkpt lat="45.17999" lon="5.53336">
        <ele>1040</ele>
        <time>2019-06-19T21:33:28Z</time>
      </trkpt>
      <trkpt lat="45.18034" lon="5.53346">
        <ele>1042</ele>
        <time>2019-06-19T21:33:36Z</time>
      </trkpt>
      <trkpt lat="45.1805" lon="5.53348">
        <ele>1043</ele>
        <time>2019-06-19T21:33:40Z</time>
      </trkpt>
      <trkpt lat="45.18077" lon="5.53344">
        <ele>1045</ele>
        <time>2019-06-19T21:33:47Z</time>
      </trkpt>
      <trkpt lat="45.18095" lon="5.53336">
        <ele>1045</ele>
        <time>2019-06-19T21:33:51Z</time>
      </trkpt>
      <trkpt lat="45.18211" lon="5.53325">
        <ele>1051</ele>
        <time>2019-06-19T21:34:18Z</time>
      </trkpt>
      <trkpt lat="45.18253" lon="5.53342">
        <ele>1054</ele>
        <time>2019-06-19T21:34:28Z</time>
      </trkpt>
      <trkpt lat="45.18271" lon="5.53365">
        <ele>1056</ele>
        <time>2019-06-19T21:34:34Z</time>
      </trkpt>
      <trkpt lat="45.18304" lon="5.53427">
        <ele>1062</ele>
        <time>2019-06-19T21:34:47Z</time>
      </trkpt>
      <trkpt lat="45.18321" lon="5.53522">
        <ele>1065</ele>
        <time>2019-06-19T21:35:03Z</time>
      </trkpt>
      <trkpt lat="45.18305" lon="5.53588">
        <ele>1069</ele>
        <time>2019-06-19T21:35:14Z</time>
      </trkpt>
      <trkpt lat="45.18328" lon="5.53617">
        <ele>1066</ele>
        <time>2019-06-19T21:35:22Z</time>
      </trkpt>
      <trkpt lat="45.18343" lon="5.53631">
        <ele>1066</ele>
        <time>2019-06-19T21:35:26Z</time>
      </trkpt>
      <trkpt lat="45.18375" lon="5.53647">
        <ele>1069</ele>
        <time>2019-06-19T21:35:34Z</time>
      </trkpt>
      <trkpt lat="45.18423" lon="5.53729">
        <ele>1074</ele>
        <time>2019-06-19T21:35:51Z</time>
      </trkpt>
      <trkpt lat="45.1847" lon="5.53773">
        <ele>1078</ele>
        <time>2019-06-19T21:36:04Z</time>
      </trkpt>
      <trkpt lat="45.18532" lon="5.53814">
        <ele>1081</ele>
        <time>2019-06-19T21:36:20Z</time>
      </trkpt>
      <trkpt lat="45.18621" lon="5.53829">
        <ele>1086</ele>
        <time>2019-06-19T21:36:41Z</time>
      </trkpt>
      <trkpt lat="45.18676" lon="5.5382">
        <ele>1089</ele>
        <time>2019-06-19T21:36:54Z</time>
      </trkpt>
      <trkpt lat="45.187" lon="5.53842">
        <ele>1091</ele>
        <time>2019-06-19T21:37:01Z</time>
      </trkpt>
      <trkpt lat="45.18764" lon="5.5387">
        <ele>1098</ele>
        <time>2019-06-19T21:37:17Z</time>
      </trkpt>
      <trkpt lat="45.18789" lon="5.53876">
        <ele>1102</ele>
        <time>2019-06-19T21:37:22Z</time>
      </trkpt>
      <trkpt lat="45.18838" lon="5.53875">
        <ele>1109</ele>
        <time>2019-06-19T21:37:34Z</time>
      </trkpt>
      <trkpt lat="45.18853" lon="5.5387">
        <ele>1112</ele>
        <time>2019-06-19T21:37:37Z</time>
      </trkpt>
      <trkpt lat="45.1892" lon="5.53882">
        <ele>1121</ele>
        <time>2019-06-19T21:37:53Z</time>
      </trkpt>
      <trkpt lat="45.18928" lon="5.53877">
        <ele>1123</ele>
        <time>2019-06-19T21:37:55Z</time>
      </trkpt>
      <trkpt lat="45.18956" lon="5.53838">
        <ele>1130</ele>
        <time>2019-06-19T21:38:04Z</time>
      </trkpt>
      <trkpt lat="45.18949" lon="5.53709">
        <ele>1140</ele>
        <time>2019-06-19T21:38:26Z</time>
      </trkpt>
      <trkpt lat="45.18911" lon="5.53631">
        <ele>1142</ele>
        <time>2019-06-19T21:38:41Z</time>
      </trkpt>
      <trkpt lat="45.18862" lon="5.53621">
        <ele>1133</ele>
        <time>2019-06-19T21:38:53Z</time>
      </trkpt>
      <trkpt lat="45.18831" lon="5.53594">
        <ele>1131</ele>
        <time>2019-06-19T21:39:01Z</time>
      </trkpt>
      <trkpt lat="45.18821" lon="5.53564">
        <ele>1135</ele>
        <time>2019-06-19T21:39:07Z</time>
      </trkpt>
      <trkpt lat="45.18841" lon="5.53502">
        <ele>1150</ele>
        <time>2019-06-19T21:39:18Z</time>
      </trkpt>
      <trkpt lat="45.18856" lon="5.53487">
        <ele>1155</ele>
        <time>2019-06-19T21:39:22Z</time>
      </trkpt>
      <trkpt lat="45.18891" lon="5.5341">
        <ele>1171</ele>
        <time>2019-06-19T21:39:37Z</time>
      </trkpt>
      <trkpt lat="45.18913" lon="5.53382">
        <ele>1178</ele>
        <time>2019-06-19T21:39:44Z</time>
      </trkpt>
      <trkpt lat="45.1896" lon="5.53367">
        <ele>1187</ele>
        <time>2019-06-19T21:39:56Z</time>
      </trkpt>
      <trkpt lat="45.1899" lon="5.53362">
        <ele>1193</ele>
        <time>2019-06-19T21:40:03Z</time>
      </trkpt>
      <trkpt lat="45.19021" lon="5.53376">
        <ele>1196</ele>
        <time>2019-06-19T21:40:10Z</time>
      </trkpt>
      <trkpt lat="45.19042" lon="5.53374">
        <ele>1200</ele>
        <time>2019-06-19T21:40:15Z</time>
      </trkpt>
      <trkpt lat="45.1908" lon="5.53361">
        <ele>1208</ele>
        <time>2019-06-19T21:40:24Z</time>
      </trkpt>
      <trkpt lat="45.19087" lon="5.53356">
        <ele>1211</ele>
        <time>2019-06-19T21:40:26Z</time>
      </trkpt>
      <trkpt lat="45.19096" lon="5.53363">
        <ele>1212</ele>
        <time>2019-06-19T21:40:29Z</time>
      </trkpt>
      <trkpt lat="45.19101" lon="5.53377">
        <ele>1211</ele>
        <time>2019-06-19T21:40:31Z</time>
      </trkpt>
      <trkpt lat="45.19078" lon="5.53431">
        <ele>1199</ele>
        <time>2019-06-19T21:40:42Z</time>
      </trkpt>
      <trkpt lat="45.19079" lon="5.53439">
        <ele>1198</ele>
        <time>2019-06-19T21:40:43Z</time>
      </trkpt>
      <trkpt lat="45.19089" lon="5.53466">
        <ele>1198</ele>
        <time>2019-06-19T21:40:48Z</time>
      </trkpt>
      <trkpt lat="45.19112" lon="5.53504">
        <ele>1199</ele>
        <time>2019-06-19T21:40:56Z</time>
      </trkpt>
      <trkpt lat="45.19109" lon="5.53505">
        <ele>1199</ele>
        <time>2019-06-19T21:40:57Z</time>
      </trkpt>
      <trkpt lat="45.19131" lon="5.53508">
        <ele>1203</ele>
        <time>2019-06-19T21:41:02Z</time>
      </trkpt>
      <trkpt lat="45.1915" lon="5.53502">
        <ele>1209</ele>
        <time>2019-06-19T21:41:07Z</time>
      </trkpt>
      <trkpt lat="45.19152" lon="5.53498">
        <ele>1210</ele>
        <time>2019-06-19T21:41:07Z</time>
      </trkpt>
      <trkpt lat="45.19204" lon="5.53523">
        <ele>1217</ele>
        <time>2019-06-19T21:41:20Z</time>
      </trkpt>
      <trkpt lat="45.19228" lon="5.53519">
        <ele>1222</ele>
        <time>2019-06-19T21:41:26Z</time>
      </trkpt>
      <trkpt lat="45.19245" lon="5.53522">
        <ele>1225</ele>
        <time>2019-06-19T21:41:30Z</time>
      </trkpt>
      <trkpt lat="45.19269" lon="5.53537">
        <ele>1227</ele>
        <time>2019-06-19T21:41:36Z</time>
      </trkpt>
      <trkpt lat="45.19278" lon="5.53535">
        <ele>1229</ele>
        <time>2019-06-19T21:41:38Z</time>
      </trkpt>
      <trkpt lat="45.1932" lon="5.53546">
        <ele>1235</ele>
        <time>2019-06-19T21:41:48Z</time>
      </trkpt>
      <trkpt lat="45.19337" lon="5.53567">
        <ele>1235</ele>
        <time>2019-06-19T21:41:53Z</time>
      </trkpt>
      <trkpt lat="45.19358" lon="5.536">
        <ele>1232</ele>
        <time>2019-06-19T21:42:01Z</time>
      </trkpt>
      <trkpt lat="45.19365" lon="5.53603">
        <ele>1233</ele>
        <time>2019-06-19T21:42:02Z</time>
      </trkpt>
      <trkpt lat="45.19387" lon="5.53583">
        <ele>1241</ele>
        <time>2019-06-19T21:42:08Z</time>
      </trkpt>
      <trkpt lat="45.19408" lon="5.53579">
        <ele>1245</ele>
        <time>2019-06-19T21:42:13Z</time>
      </trkpt>
      <trkpt lat="45.19467" lon="5.53593">
        <ele>1247</ele>
        <time>2019-06-19T21:42:27Z</time>
      </trkpt>
      <trkpt lat="45.19474" lon="5.53598">
        <ele>1247</ele>
        <time>2019-06-19T21:42:29Z</time>
      </trkpt>
      <trkpt lat="45.19484" lon="5.536">
        <ele>1247</ele>
        <time>2019-06-19T21:42:32Z</time>
      </trkpt>
      <trkpt lat="45.19516" lon="5.53615">
        <ele>1246</ele>
        <time>2019-06-19T21:42:39Z</time>
      </trkpt>
      <trkpt lat="45.19531" lon="5.53625">
        <ele>1244</ele>
        <time>2019-06-19T21:42:43Z</time>
      </trkpt>
      <trkpt lat="45.19551" lon="5.53644">
        <ele>1241</ele>
        <time>2019-06-19T21:42:49Z</time>
      </trkpt>
      <trkpt lat="45.19578" lon="5.53665">
        <ele>1238</ele>
        <time>2019-06-19T21:42:56Z</time>
      </trkpt>
      <trkpt lat="45.19587" lon="5.53682">
        <ele>1237</ele>
        <time>2019-06-19T21:43:00Z</time>
      </trkpt>
      <trkpt lat="45.19586" lon="5.53692">
        <ele>1236</ele>
        <time>2019-06-19T21:43:01Z</time>
      </trkpt>
      <trkpt lat="45.19592" lon="5.53695">
        <ele>1237</ele>
        <time>2019-06-19T21:43:03Z</time>
      </trkpt>
      <trkpt lat="45.19606" lon="5.53714">
        <ele>1237</ele>
        <time>2019-06-19T21:43:07Z</time>
      </trkpt>
      <trkpt lat="45.196" lon="5.53731">
        <ele>1235</ele>
        <time>2019-06-19T21:43:10Z</time>
      </trkpt>
      <trkpt lat="45.19602" lon="5.53734">
        <ele>1235</ele>
        <time>2019-06-19T21:43:11Z</time>
      </trkpt>
      <trkpt lat="45.19616" lon="5.53749">
        <ele>1235</ele>
        <time>2019-06-19T21:43:15Z</time>
      </trkpt>
      <trkpt lat="45.19645" lon="5.53767">
        <ele>1240</ele>
        <time>2019-06-19T21:43:23Z</time>
      </trkpt>
      <trkpt lat="45.19657" lon="5.53782">
        <ele>1243</ele>
        <time>2019-06-19T21:43:26Z</time>
      </trkpt>
      <trkpt lat="45.19657" lon="5.53744">
        <ele>1241</ele>
        <time>2019-06-19T21:43:33Z</time>
      </trkpt>
      <trkpt lat="45.19664" lon="5.53737">
        <ele>1243</ele>
        <time>2019-06-19T21:43:35Z</time>
      </trkpt>
      <trkpt lat="45.1967" lon="5.53738">
        <ele>1244</ele>
        <time>2019-06-19T21:43:36Z</time>
      </trkpt>
      <trkpt lat="45.1968" lon="5.53749">
        <ele>1244</ele>
        <time>2019-06-19T21:43:39Z</time>
      </trkpt>
      <trkpt lat="45.19704" lon="5.53759">
        <ele>1248</ele>
        <time>2019-06-19T21:43:45Z</time>
      </trkpt>
      <trkpt lat="45.1971" lon="5.53764">
        <ele>1250</ele>
        <time>2019-06-19T21:43:46Z</time>
      </trkpt>
      <trkpt lat="45.19722" lon="5.53769">
        <ele>1252</ele>
        <time>2019-06-19T21:43:49Z</time>
      </trkpt>
      <trkpt lat="45.19741" lon="5.5377">
        <ele>1255</ele>
        <time>2019-06-19T21:43:54Z</time>
      </trkpt>
      <trkpt lat="45.19762" lon="5.53761">
        <ele>1257</ele>
        <time>2019-06-19T21:43:59Z</time>
      </trkpt>
      <trkpt lat="45.19863" lon="5.53765">
        <ele>1269</ele>
        <time>2019-06-19T21:44:22Z</time>
      </trkpt>
      <trkpt lat="45.19933" lon="5.53744">
        <ele>1277</ele>
        <time>2019-06-19T21:44:39Z</time>
      </trkpt>
      <trkpt lat="45.19997" lon="5.53742">
        <ele>1286</ele>
        <time>2019-06-19T21:44:54Z</time>
      </trkpt>
      <trkpt lat="45.20008" lon="5.53728">
        <ele>1291</ele>
        <time>2019-06-19T21:44:58Z</time>
      </trkpt>
      <trkpt lat="45.20023" lon="5.53733">
        <ele>1293</ele>
        <time>2019-06-19T21:45:01Z</time>
      </trkpt>
      <trkpt lat="45.20032" lon="5.53739">
        <ele>1293</ele>
        <time>2019-06-19T21:45:03Z</time>
      </trkpt>
      <trkpt lat="45.20055" lon="5.53777">
        <ele>1296</ele>
        <time>2019-06-19T21:45:12Z</time>
      </trkpt>
      <trkpt lat="45.20083" lon="5.53812">
        <ele>1299</ele>
        <time>2019-06-19T21:45:20Z</time>
      </trkpt>
      <trkpt lat="45.20117" lon="5.53872">
        <ele>1305</ele>
        <time>2019-06-19T21:45:33Z</time>
      </trkpt>
      <trkpt lat="45.20155" lon="5.53899">
        <ele>1305</ele>
        <time>2019-06-19T21:45:43Z</time>
      </trkpt>
      <trkpt lat="45.20173" lon="5.53907">
        <ele>1305</ele>
        <time>2019-06-19T21:45:47Z</time>
      </trkpt>
      <trkpt lat="45.202" lon="5.53929">
        <ele>1309</ele>
        <time>2019-06-19T21:45:55Z</time>
      </trkpt>
      <trkpt lat="45.20252" lon="5.53924">
        <ele>1313</ele>
        <time>2019-06-19T21:46:07Z</time>
      </trkpt>
      <trkpt lat="45.20268" lon="5.53916">
        <ele>1315</ele>
        <time>2019-06-19T21:46:11Z</time>
      </trkpt>
      <trkpt lat="45.20282" lon="5.53918">
        <ele>1318</ele>
        <time>2019-06-19T21:46:14Z</time>
      </trkpt>
      <trkpt lat="45.203" lon="5.53907">
        <ele>1323</ele>
        <time>2019-06-19T21:46:19Z</time>
      </trkpt>
      <trkpt lat="45.20334" lon="5.53905">
        <ele>1330</ele>
        <time>2019-06-19T21:46:27Z</time>
      </trkpt>
      <trkpt lat="45.20336" lon="5.53911">
        <ele>1330</ele>
        <time>2019-06-19T21:46:28Z</time>
      </trkpt>
      <trkpt lat="45.20334" lon="5.53924">
        <ele>1330</ele>
        <time>2019-06-19T21:46:30Z</time>
      </trkpt>
      <trkpt lat="45.2032" lon="5.5395">
        <ele>1331</ele>
        <time>2019-06-19T21:46:35Z</time>
      </trkpt>
      <trkpt lat="45.20296" lon="5.53981">
        <ele>1331</ele>
        <time>2019-06-19T21:46:43Z</time>
      </trkpt>
      <trkpt lat="45.20281" lon="5.54011">
        <ele>1334</ele>
        <time>2019-06-19T21:46:49Z</time>
      </trkpt>
      <trkpt lat="45.20263" lon="5.54036">
        <ele>1336</ele>
        <time>2019-06-19T21:46:55Z</time>
      </trkpt>
      <trkpt lat="45.2015" lon="5.54077">
        <ele>1341</ele>
        <time>2019-06-19T21:47:22Z</time>
      </trkpt>
      <trkpt lat="45.20134" lon="5.54079">
        <ele>1342</ele>
        <time>2019-06-19T21:47:26Z</time>
      </trkpt>
      <trkpt lat="45.20085" lon="5.5408">
        <ele>1345</ele>
        <time>2019-06-19T21:47:37Z</time>
      </trkpt>
      <trkpt lat="45.20062" lon="5.54073">
        <ele>1343</ele>
        <time>2019-06-19T21:47:43Z</time>
      </trkpt>
      <trkpt lat="45.2003" lon="5.54053">
        <ele>1338</ele>
        <time>2019-06-19T21:47:51Z</time>
      </trkpt>
      <trkpt lat="45.20006" lon="5.5405">
        <ele>1337</ele>
        <time>2019-06-19T21:47:57Z</time>
      </trkpt>
      <trkpt lat="45.19949" lon="5.5409">
        <ele>1342</ele>
        <time>2019-06-19T21:48:11Z</time>
      </trkpt>
      <trkpt lat="45.19886" lon="5.54114">
        <ele>1338</ele>
        <time>2019-06-19T21:48:27Z</time>
      </trkpt>
      <trkpt lat="45.19822" lon="5.54177">
        <ele>1334</ele>
        <time>2019-06-19T21:48:45Z</time>
      </trkpt>
      <trkpt lat="45.19807" lon="5.54206">
        <ele>1333</ele>
        <time>2019-06-19T21:48:51Z</time>
      </trkpt>
      <trkpt lat="45.19785" lon="5.54232">
        <ele>1329</ele>
        <time>2019-06-19T21:48:57Z</time>
      </trkpt>
      <trkpt lat="45.19776" lon="5.54276">
        <ele>1328</ele>
        <time>2019-06-19T21:49:05Z</time>
      </trkpt>
      <trkpt lat="45.19803" lon="5.54377">
        <ele>1340</ele>
        <time>2019-06-19T21:49:23Z</time>
      </trkpt>
      <trkpt lat="45.19788" lon="5.54416">
        <ele>1336</ele>
        <time>2019-06-19T21:49:30Z</time>
      </trkpt>
      <trkpt lat="45.19744" lon="5.54489">
        <ele>1330</ele>
        <time>2019-06-19T21:49:46Z</time>
      </trkpt>
      <trkpt lat="45.19671" lon="5.54567">
        <ele>1327</ele>
        <time>2019-06-19T21:50:07Z</time>
      </trkpt>
      <trkpt lat="45.19664" lon="5.54606">
        <ele>1328</ele>
        <time>2019-06-19T21:50:14Z</time>
      </trkpt>
      <trkpt lat="45.19666" lon="5.54666">
        <ele>1329</ele>
        <time>2019-06-19T21:50:24Z</time>
      </trkpt>
      <trkpt lat="45.19663" lon="5.547">
        <ele>1328</ele>
        <time>2019-06-19T21:50:29Z</time>
      </trkpt>
      <trkpt lat="45.19683" lon="5.54742">
        <ele>1331</ele>
        <time>2019-06-19T21:50:38Z</time>
      </trkpt>
      <trkpt lat="45.19703" lon="5.54763">
        <ele>1333</ele>
        <time>2019-06-19T21:50:44Z</time>
      </trkpt>
      <trkpt lat="45.19709" lon="5.54793">
        <ele>1333</ele>
        <time>2019-06-19T21:50:49Z</time>
      </trkpt>
      <trkpt lat="45.1973" lon="5.54743">
        <ele>1337</ele>
        <time>2019-06-19T21:50:58Z</time>
      </trkpt>
      <trkpt lat="45.19723" lon="5.54719">
        <ele>1337</ele>
        <time>2019-06-19T21:51:02Z</time>
      </trkpt>
      <trkpt lat="45.19705" lon="5.54696">
        <ele>1335</ele>
        <time>2019-06-19T21:51:08Z</time>
      </trkpt>
      <trkpt lat="45.19706" lon="5.54666">
        <ele>1337</ele>
        <time>2019-06-19T21:51:13Z</time>
      </trkpt>
      <trkpt lat="45.1973" lon="5.54597">
        <ele>1340</ele>
        <time>2019-06-19T21:51:26Z</time>
      </trkpt>
      <trkpt lat="45.19794" lon="5.54572">
        <ele>1349</ele>
        <time>2019-06-19T21:51:41Z</time>
      </trkpt>
      <trkpt lat="45.19829" lon="5.54498">
        <ele>1355</ele>
        <time>2019-06-19T21:51:56Z</time>
      </trkpt>
      <trkpt lat="45.19877" lon="5.54414">
        <ele>1361</ele>
        <time>2019-06-19T21:52:14Z</time>
      </trkpt>
      <trkpt lat="45.19887" lon="5.54337">
        <ele>1362</ele>
        <time>2019-06-19T21:52:27Z</time>
      </trkpt>
      <trkpt lat="45.19911" lon="5.54295">
        <ele>1366</ele>
        <time>2019-06-19T21:52:35Z</time>
      </trkpt>
      <trkpt lat="45.19932" lon="5.54294">
        <ele>1370</ele>
        <time>2019-06-19T21:52:40Z</time>
      </trkpt>
      <trkpt lat="45.19936" lon="5.54345">
        <ele>1374</ele>
        <time>2019-06-19T21:52:49Z</time>
      </trkpt>
      <trkpt lat="45.19957" lon="5.54369">
        <ele>1379</ele>
        <time>2019-06-19T21:52:55Z</time>
      </trkpt>
      <trkpt lat="45.19977" lon="5.54356">
        <ele>1382</ele>
        <time>2019-06-19T21:53:00Z</time>
      </trkpt>
      <trkpt lat="45.19977" lon="5.54303">
        <ele>1379</ele>
        <time>2019-06-19T21:53:09Z</time>
      </trkpt>
      <trkpt lat="45.20024" lon="5.54275">
        <ele>1384</ele>
        <time>2019-06-19T21:53:21Z</time>
      </trkpt>
      <trkpt lat="45.20075" lon="5.54281">
        <ele>1392</ele>
        <time>2019-06-19T21:53:33Z</time>
      </trkpt>
      <trkpt lat="45.20125" lon="5.54315">
        <ele>1400</ele>
        <time>2019-06-19T21:53:46Z</time>
      </trkpt>
      <trkpt lat="45.20203" lon="5.54306">
        <ele>1401</ele>
        <time>2019-06-19T21:54:04Z</time>
      </trkpt>
      <trkpt lat="45.2024" lon="5.5433">
        <ele>1408</ele>
        <time>2019-06-19T21:54:14Z</time>
      </trkpt>
      <trkpt lat="45.20264" lon="5.54375">
        <ele>1417</ele>
        <time>2019-06-19T21:54:23Z</time>
      </trkpt>
      <trkpt lat="45.20314" lon="5.54398">
        <ele>1421</ele>
        <time>2019-06-19T21:54:35Z</time>
      </trkpt>
      <trkpt lat="45.20195" lon="5.54482">
        <ele>1426</ele>
        <time>2019-06-19T21:55:06Z</time>
      </trkpt>
      <trkpt lat="45.20244" lon="5.54522">
        <ele>1425</ele>
        <time>2019-06-19T21:55:19Z</time>
      </trkpt>
      <trkpt lat="45.20267" lon="5.54519">
        <ele>1425</ele>
        <time>2019-06-19T21:55:25Z</time>
      </trkpt>
      <trkpt lat="45.20269" lon="5.54527">
        <ele>1424</ele>
        <time>2019-06-19T21:55:26Z</time>
      </trkpt>
      <trkpt lat="45.20256" lon="5.54564">
        <ele>1421</ele>
        <time>2019-06-19T21:55:33Z</time>
      </trkpt>
      <trkpt lat="45.20241" lon="5.54593">
        <ele>1416</ele>
        <time>2019-06-19T21:55:39Z</time>
      </trkpt>
      <trkpt lat="45.20196" lon="5.54611">
        <ele>1408</ele>
        <time>2019-06-19T21:55:50Z</time>
      </trkpt>
      <trkpt lat="45.20218" lon="5.54665">
        <ele>1398</ele>
        <time>2019-06-19T21:56:00Z</time>
      </trkpt>
      <trkpt lat="45.20215" lon="5.54672">
        <ele>1397</ele>
        <time>2019-06-19T21:56:01Z</time>
      </trkpt>
      <trkpt lat="45.20164" lon="5.54664">
        <ele>1390</ele>
        <time>2019-06-19T21:56:13Z</time>
      </trkpt>
      <trkpt lat="45.20148" lon="5.54654">
        <ele>1389</ele>
        <time>2019-06-19T21:56:17Z</time>
      </trkpt>
      <trkpt lat="45.20148" lon="5.54667">
        <ele>1386</ele>
        <time>2019-06-19T21:56:20Z</time>
      </trkpt>
      <trkpt lat="45.20146" lon="5.54669">
        <ele>1385</ele>
        <time>2019-06-19T21:56:20Z</time>
      </trkpt>
      <trkpt lat="45.201" lon="5.5465">
        <ele>1380</ele>
        <time>2019-06-19T21:56:31Z</time>
      </trkpt>
      <trkpt lat="45.201" lon="5.54655">
        <ele>1378</ele>
        <time>2019-06-19T21:56:32Z</time>
      </trkpt>
      <trkpt lat="45.20127" lon="5.54666">
        <ele>1381</ele>
        <time>2019-06-19T21:56:39Z</time>
      </trkpt>
      <trkpt lat="45.20127" lon="5.54701">
        <ele>1374</ele>
        <time>2019-06-19T21:56:45Z</time>
      </trkpt>
      <trkpt lat="45.20119" lon="5.54687">
        <ele>1375</ele>
        <time>2019-06-19T21:56:47Z</time>
      </trkpt>
      <trkpt lat="45.20114" lon="5.54683">
        <ele>1374</ele>
        <time>2019-06-19T21:56:49Z</time>
      </trkpt>
      <trkpt lat="45.20057" lon="5.54652">
        <ele>1370</ele>
        <time>2019-06-19T21:57:03Z</time>
      </trkpt>
      <trkpt lat="45.20058" lon="5.54656">
        <ele>1369</ele>
        <time>2019-06-19T21:57:04Z</time>
      </trkpt>
      <trkpt lat="45.20072" lon="5.54673">
        <ele>1367</ele>
        <time>2019-06-19T21:57:08Z</time>
      </trkpt>
      <trkpt lat="45.20083" lon="5.54697">
        <ele>1364</ele>
        <time>2019-06-19T21:57:13Z</time>
      </trkpt>
      <trkpt lat="45.20081" lon="5.54701">
        <ele>1363</ele>
        <time>2019-06-19T21:57:14Z</time>
      </trkpt>
      <trkpt lat="45.2007" lon="5.54698">
        <ele>1361</ele>
        <time>2019-06-19T21:57:16Z</time>
      </trkpt>
      <trkpt lat="45.20069" lon="5.54703">
        <ele>1359</ele>
        <time>2019-06-19T21:57:17Z</time>
      </trkpt>
      <trkpt lat="45.20108" lon="5.54754">
        <ele>1358</ele>
        <time>2019-06-19T21:57:29Z</time>
      </trkpt>
      <trkpt lat="45.20129" lon="5.5483">
        <ele>1351</ele>
        <time>2019-06-19T21:57:43Z</time>
      </trkpt>
      <trkpt lat="45.20136" lon="5.54896">
        <ele>1347</ele>
        <time>2019-06-19T21:57:54Z</time>
      </trkpt>
      <trkpt lat="45.20129" lon="5.54905">
        <ele>1345</ele>
        <time>2019-06-19T21:57:56Z</time>
      </trkpt>
      <trkpt lat="45.20126" lon="5.54978">
        <ele>1336</ele>
        <time>2019-06-19T21:58:08Z</time>
      </trkpt>
      <trkpt lat="45.20079" lon="5.55018">
        <ele>1324</ele>
        <time>2019-06-19T21:58:21Z</time>
      </trkpt>
      <trkpt lat="45.20052" lon="5.55026">
        <ele>1319</ele>
        <time>2019-06-19T21:58:27Z</time>
      </trkpt>
      <trkpt lat="45.20063" lon="5.55023">
        <ele>1321</ele>
        <time>2019-06-19T21:58:30Z</time>
      </trkpt>
      <trkpt lat="45.20055" lon="5.55026">
        <ele>1319</ele>
        <time>2019-06-19T21:58:32Z</time>
      </trkpt>
      <trkpt lat="45.20052" lon="5.55025">
        <ele>1319</ele>
        <time>2019-06-19T21:58:33Z</time>
      </trkpt>
      <trkpt lat="45.20043" lon="5.55009">
        <ele>1318</ele>
        <time>2019-06-19T21:58:36Z</time>
      </trkpt>
      <trkpt lat="45.2005" lon="5.54995">
        <ele>1321</ele>
        <time>2019-06-19T21:58:39Z</time>
      </trkpt>
      <trkpt lat="45.20031" lon="5.54985">
        <ele>1318</ele>
        <time>2019-06-19T21:58:44Z</time>
      </trkpt>
      <trkpt lat="45.2002" lon="5.54984">
        <ele>1315</ele>
        <time>2019-06-19T21:58:46Z</time>
      </trkpt>
      <trkpt lat="45.20013" lon="5.54994">
        <ele>1313</ele>
        <time>2019-06-19T21:58:48Z</time>
      </trkpt>
      <trkpt lat="45.1999" lon="5.55003">
        <ele>1308</ele>
        <time>2019-06-19T21:58:54Z</time>
      </trkpt>
      <trkpt lat="45.19979" lon="5.55016">
        <ele>1306</ele>
        <time>2019-06-19T21:58:57Z</time>
      </trkpt>
      <trkpt lat="45.19968" lon="5.55063">
        <ele>1303</ele>
        <time>2019-06-19T21:59:06Z</time>
      </trkpt>
      <trkpt lat="45.19967" lon="5.55079">
        <ele>1302</ele>
        <time>2019-06-19T21:59:08Z</time>
      </trkpt>
      <trkpt lat="45.19953" lon="5.55074">
        <ele>1300</ele>
        <time>2019-06-19T21:59:12Z</time>
      </trkpt>
      <trkpt lat="45.19949" lon="5.55068">
        <ele>1299</ele>
        <time>2019-06-19T21:59:13Z</time>
      </trkpt>
      <trkpt lat="45.19942" lon="5.5507">
        <ele>1298</ele>
        <time>2019-06-19T21:59:15Z</time>
      </trkpt>
      <trkpt lat="45.1993" lon="5.55064">
        <ele>1296</ele>
        <time>2019-06-19T21:59:18Z</time>
      </trkpt>
      <trkpt lat="45.19924" lon="5.55041">
        <ele>1297</ele>
        <time>2019-06-19T21:59:22Z</time>
      </trkpt>
      <trkpt lat="45.19931" lon="5.55006">
        <ele>1300</ele>
        <time>2019-06-19T21:59:28Z</time>
      </trkpt>
      <trkpt lat="45.19948" lon="5.54982">
        <ele>1304</ele>
        <time>2019-06-19T21:59:33Z</time>
      </trkpt>
      <trkpt lat="45.19963" lon="5.54966">
        <ele>1307</ele>
        <time>2019-06-19T21:59:38Z</time>
      </trkpt>
      <trkpt lat="45.19993" lon="5.54918">
        <ele>1315</ele>
        <time>2019-06-19T21:59:48Z</time>
      </trkpt>
      <trkpt lat="45.19975" lon="5.54883">
        <ele>1315</ele>
        <time>2019-06-19T21:59:55Z</time>
      </trkpt>
      <trkpt lat="45.19965" lon="5.54857">
        <ele>1316</ele>
        <time>2019-06-19T22:00:00Z</time>
      </trkpt>
      <trkpt lat="45.19958" lon="5.54795">
        <ele>1322</ele>
        <time>2019-06-19T22:00:10Z</time>
      </trkpt>
      <trkpt lat="45.19953" lon="5.54782">
        <ele>1324</ele>
        <time>2019-06-19T22:00:13Z</time>
      </trkpt>
      <trkpt lat="45.19946" lon="5.54775">
        <ele>1324</ele>
        <time>2019-06-19T22:00:15Z</time>
      </trkpt>
      <trkpt lat="45.19933" lon="5.54773">
        <ele>1323</ele>
        <time>2019-06-19T22:00:18Z</time>
      </trkpt>
      <trkpt lat="45.19929" lon="5.54775">
        <ele>1322</ele>
        <time>2019-06-19T22:00:19Z</time>
      </trkpt>
      <trkpt lat="45.19875" lon="5.54814">
        <ele>1322</ele>
        <time>2019-06-19T22:00:33Z</time>
      </trkpt>
      <trkpt lat="45.19836" lon="5.54855">
        <ele>1321</ele>
        <time>2019-06-19T22:00:44Z</time>
      </trkpt>
      <trkpt lat="45.19796" lon="5.54877">
        <ele>1322</ele>
        <time>2019-06-19T22:00:54Z</time>
      </trkpt>
      <trkpt lat="45.19753" lon="5.54912">
        <ele>1322</ele>
        <time>2019-06-19T22:01:06Z</time>
      </trkpt>
      <trkpt lat="45.19735" lon="5.54919">
        <ele>1322</ele>
        <time>2019-06-19T22:01:10Z</time>
      </trkpt>
      <trkpt lat="45.19681" lon="5.54906">
        <ele>1324</ele>
        <time>2019-06-19T22:01:23Z</time>
      </trkpt>
      <trkpt lat="45.19678" lon="5.54877">
        <ele>1327</ele>
        <time>2019-06-19T22:01:28Z</time>
      </trkpt>
      <trkpt lat="45.1968" lon="5.54875">
        <ele>1327</ele>
        <time>2019-06-19T22:01:29Z</time>
      </trkpt>
      <trkpt lat="45.19671" lon="5.54865">
        <ele>1327</ele>
        <time>2019-06-19T22:01:31Z</time>
      </trkpt>
      <trkpt lat="45.1965" lon="5.54861">
        <ele>1325</ele>
        <time>2019-06-19T22:01:36Z</time>
      </trkpt>
      <trkpt lat="45.19617" lon="5.54861">
        <ele>1320</ele>
        <time>2019-06-19T22:01:44Z</time>
      </trkpt>
      <trkpt lat="45.19591" lon="5.54875">
        <ele>1315</ele>
        <time>2019-06-19T22:01:50Z</time>
      </trkpt>
      <trkpt lat="45.19584" lon="5.54871">
        <ele>1314</ele>
        <time>2019-06-19T22:01:52Z</time>
      </trkpt>
      <trkpt lat="45.19573" lon="5.5487">
        <ele>1312</ele>
        <time>2019-06-19T22:01:55Z</time>
      </trkpt>
      <trkpt lat="45.19571" lon="5.54882">
        <ele>1311</ele>
        <time>2019-06-19T22:01:57Z</time>
      </trkpt>
      <trkpt lat="45.19555" lon="5.54882">
        <ele>1308</ele>
        <time>2019-06-19T22:02:00Z</time>
      </trkpt>
      <trkpt lat="45.19539" lon="5.5487">
        <ele>1306</ele>
        <time>2019-06-19T22:02:05Z</time>
      </trkpt>
      <trkpt lat="45.19495" lon="5.54846">
        <ele>1303</ele>
        <time>2019-06-19T22:02:16Z</time>
      </trkpt>
      <trkpt lat="45.19484" lon="5.54836">
        <ele>1303</ele>
        <time>2019-06-19T22:02:19Z</time>
      </trkpt>
      <trkpt lat="45.19475" lon="5.54833">
        <ele>1303</ele>
        <time>2019-06-19T22:02:21Z</time>
      </trkpt>
      <trkpt lat="45.19465" lon="5.54835">
        <ele>1302</ele>
        <time>2019-06-19T22:02:23Z</time>
      </trkpt>
      <trkpt lat="45.19465" lon="5.54845">
        <ele>1301</ele>
        <time>2019-06-19T22:02:25Z</time>
      </trkpt>
      <trkpt lat="45.19468" lon="5.54848">
        <ele>1300</ele>
        <time>2019-06-19T22:02:26Z</time>
      </trkpt>
      <trkpt lat="45.19467" lon="5.54854">
        <ele>1299</ele>
        <time>2019-06-19T22:02:27Z</time>
      </trkpt>
      <trkpt lat="45.19463" lon="5.54858">
        <ele>1298</ele>
        <time>2019-06-19T22:02:28Z</time>
      </trkpt>
      <trkpt lat="45.19458" lon="5.54859">
        <ele>1298</ele>
        <time>2019-06-19T22:02:29Z</time>
      </trkpt>
      <trkpt lat="45.1945" lon="5.54856">
        <ele>1298</ele>
        <time>2019-06-19T22:02:31Z</time>
      </trkpt>
      <trkpt lat="45.19445" lon="5.54845">
        <ele>1299</ele>
        <time>2019-06-19T22:02:33Z</time>
      </trkpt>
      <trkpt lat="45.19413" lon="5.54827">
        <ele>1299</ele>
        <time>2019-06-19T22:02:41Z</time>
      </trkpt>
      <trkpt lat="45.19412" lon="5.5481">
        <ele>1299</ele>
        <time>2019-06-19T22:02:44Z</time>
      </trkpt>
      <trkpt lat="45.1941" lon="5.54807">
        <ele>1299</ele>
        <time>2019-06-19T22:02:45Z</time>
      </trkpt>
      <trkpt lat="45.19392" lon="5.54808">
        <ele>1299</ele>
        <time>2019-06-19T22:02:49Z</time>
      </trkpt>
      <trkpt lat="45.19392" lon="5.5481">
        <ele>1299</ele>
        <time>2019-06-19T22:02:49Z</time>
      </trkpt>
      <trkpt lat="45.19388" lon="5.54806">
        <ele>1299</ele>
        <time>2019-06-19T22:02:50Z</time>
      </trkpt>
      <trkpt lat="45.19404" lon="5.54802">
        <ele>1299</ele>
        <time>2019-06-19T22:02:54Z</time>
      </trkpt>
      <trkpt lat="45.1941" lon="5.54804">
        <ele>1299</ele>
        <time>2019-06-19T22:02:56Z</time>
      </trkpt>
      <trkpt lat="45.19429" lon="5.54802">
        <ele>1300</ele>
        <time>2019-06-19T22:03:00Z</time>
      </trkpt>
      <trkpt lat="45.19428" lon="5.54798">
        <ele>1300</ele>
        <time>2019-06-19T22:03:01Z</time>
      </trkpt>
      <trkpt lat="45.19381" lon="5.54779">
        <ele>1299</ele>
        <time>2019-06-19T22:03:12Z</time>
      </trkpt>
      <trkpt lat="45.19358" lon="5.54766">
        <ele>1298</ele>
        <time>2019-06-19T22:03:18Z</time>
      </trkpt>
      <trkpt lat="45.19357" lon="5.54738">
        <ele>1295</ele>
        <time>2019-06-19T22:03:23Z</time>
      </trkpt>
      <trkpt lat="45.19368" lon="5.54703">
        <ele>1291</ele>
        <time>2019-06-19T22:03:29Z</time>
      </trkpt>
      <trkpt lat="45.19368" lon="5.54696">
        <ele>1290</ele>
        <time>2019-06-19T22:03:30Z</time>
      </trkpt>
      <trkpt lat="45.19386" lon="5.54683">
        <ele>1290</ele>
        <time>2019-06-19T22:03:35Z</time>
      </trkpt>
      <trkpt lat="45.19415" lon="5.54646">
        <ele>1287</ele>
        <time>2019-06-19T22:03:44Z</time>
      </trkpt>
      <trkpt lat="45.19432" lon="5.54617">
        <ele>1284</ele>
        <time>2019-06-19T22:03:50Z</time>
      </trkpt>
      <trkpt lat="45.19451" lon="5.546">
        <ele>1285</ele>
        <time>2019-06-19T22:03:55Z</time>
      </trkpt>
      <trkpt lat="45.19456" lon="5.54587">
        <ele>1283</ele>
        <time>2019-06-19T22:03:58Z</time>
      </trkpt>
      <trkpt lat="45.19472" lon="5.5456">
        <ele>1282</ele>
        <time>2019-06-19T22:04:04Z</time>
      </trkpt>
      <trkpt lat="45.1949" lon="5.54505">
        <ele>1276</ele>
        <time>2019-06-19T22:04:14Z</time>
      </trkpt>
      <trkpt lat="45.19506" lon="5.54477">
        <ele>1276</ele>
        <time>2019-06-19T22:04:19Z</time>
      </trkpt>
      <trkpt lat="45.19508" lon="5.54441">
        <ele>1271</ele>
        <time>2019-06-19T22:04:25Z</time>
      </trkpt>
      <trkpt lat="45.1953" lon="5.54375">
        <ele>1267</ele>
        <time>2019-06-19T22:04:37Z</time>
      </trkpt>
      <trkpt lat="45.19561" lon="5.54314">
        <ele>1268</ele>
        <time>2019-06-19T22:04:50Z</time>
      </trkpt>
      <trkpt lat="45.19558" lon="5.54308">
        <ele>1267</ele>
        <time>2019-06-19T22:04:51Z</time>
      </trkpt>
      <trkpt lat="45.19551" lon="5.54307">
        <ele>1265</ele>
        <time>2019-06-19T22:04:53Z</time>
      </trkpt>
      <trkpt lat="45.19536" lon="5.54288">
        <ele>1260</ele>
        <time>2019-06-19T22:04:57Z</time>
      </trkpt>
      <trkpt lat="45.19513" lon="5.54212">
        <ele>1249</ele>
        <time>2019-06-19T22:05:11Z</time>
      </trkpt>
      <trkpt lat="45.19514" lon="5.5418">
        <ele>1248</ele>
        <time>2019-06-19T22:05:16Z</time>
      </trkpt>
      <trkpt lat="45.19528" lon="5.54151">
        <ele>1251</ele>
        <time>2019-06-19T22:05:22Z</time>
      </trkpt>
      <trkpt lat="45.19525" lon="5.54113">
        <ele>1251</ele>
        <time>2019-06-19T22:05:28Z</time>
      </trkpt>
      <trkpt lat="45.19512" lon="5.54086">
        <ele>1249</ele>
        <time>2019-06-19T22:05:34Z</time>
      </trkpt>
      <trkpt lat="45.1951" lon="5.54065">
        <ele>1248</ele>
        <time>2019-06-19T22:05:37Z</time>
      </trkpt>
      <trkpt lat="45.19518" lon="5.54033">
        <ele>1250</ele>
        <time>2019-06-19T22:05:43Z</time>
      </trkpt>
      <trkpt lat="45.19523" lon="5.53963">
        <ele>1247</ele>
        <time>2019-06-19T22:05:54Z</time>
      </trkpt>
      <trkpt lat="45.19522" lon="5.53944">
        <ele>1245</ele>
        <time>2019-06-19T22:05:57Z</time>
      </trkpt>
      <trkpt lat="45.19525" lon="5.53933">
        <ele>1244</ele>
        <time>2019-06-19T22:05:59Z</time>
      </trkpt>
      <trkpt lat="45.19527" lon="5.53928">
        <ele>1244</ele>
        <time>2019-06-19T22:06:00Z</time>
      </trkpt>
      <trkpt lat="45.19544" lon="5.5391">
        <ele>1244</ele>
        <time>2019-06-19T22:06:05Z</time>
      </trkpt>
      <trkpt lat="45.19553" lon="5.53905">
        <ele>1244</ele>
        <time>2019-06-19T22:06:08Z</time>
      </trkpt>
      <trkpt lat="45.19575" lon="5.53902">
        <ele>1247</ele>
        <time>2019-06-19T22:06:13Z</time>
      </trkpt>
      <trkpt lat="45.196" lon="5.53895">
        <ele>1249</ele>
        <time>2019-06-19T22:06:19Z</time>
      </trkpt>
      <trkpt lat="45.19642" lon="5.53876">
        <ele>1252</ele>
        <time>2019-06-19T22:06:29Z</time>
      </trkpt>
      <trkpt lat="45.19653" lon="5.53853">
        <ele>1249</ele>
        <time>2019-06-19T22:06:34Z</time>
      </trkpt>
      <trkpt lat="45.1965" lon="5.53839">
        <ele>1246</ele>
        <time>2019-06-19T22:06:36Z</time>
      </trkpt>
      <trkpt lat="45.19632" lon="5.53836">
        <ele>1243</ele>
        <time>2019-06-19T22:06:40Z</time>
      </trkpt>
      <trkpt lat="45.19563" lon="5.53861">
        <ele>1238</ele>
        <time>2019-06-19T22:06:57Z</time>
      </trkpt>
      <trkpt lat="45.19548" lon="5.53863">
        <ele>1237</ele>
        <time>2019-06-19T22:07:00Z</time>
      </trkpt>
      <trkpt lat="45.19531" lon="5.53872">
        <ele>1236</ele>
        <time>2019-06-19T22:07:05Z</time>
      </trkpt>
      <trkpt lat="45.19506" lon="5.53871">
        <ele>1233</ele>
        <time>2019-06-19T22:07:10Z</time>
      </trkpt>
      <trkpt lat="45.19477" lon="5.53878">
        <ele>1231</ele>
        <time>2019-06-19T22:07:17Z</time>
      </trkpt>
      <trkpt lat="45.19461" lon="5.53894">
        <ele>1232</ele>
        <time>2019-06-19T22:07:22Z</time>
      </trkpt>
      <trkpt lat="45.19443" lon="5.53903">
        <ele>1233</ele>
        <time>2019-06-19T22:07:26Z</time>
      </trkpt>
      <trkpt lat="45.19374" lon="5.53911">
        <ele>1227</ele>
        <time>2019-06-19T22:07:42Z</time>
      </trkpt>
      <trkpt lat="45.19338" lon="5.53897">
        <ele>1219</ele>
        <time>2019-06-19T22:07:51Z</time>
      </trkpt>
      <trkpt lat="45.19312" lon="5.53905">
        <ele>1216</ele>
        <time>2019-06-19T22:07:57Z</time>
      </trkpt>
      <trkpt lat="45.19264" lon="5.53876">
        <ele>1201</ele>
        <time>2019-06-19T22:08:10Z</time>
      </trkpt>
      <trkpt lat="45.19239" lon="5.53872">
        <ele>1195</ele>
        <time>2019-06-19T22:08:15Z</time>
      </trkpt>
      <trkpt lat="45.19232" lon="5.53866">
        <ele>1192</ele>
        <time>2019-06-19T22:08:17Z</time>
      </trkpt>
      <trkpt lat="45.1921" lon="5.53864">
        <ele>1187</ele>
        <time>2019-06-19T22:08:23Z</time>
      </trkpt>
      <trkpt lat="45.1917" lon="5.53915">
        <ele>1182</ele>
        <time>2019-06-19T22:08:35Z</time>
      </trkpt>
      <trkpt lat="45.19172" lon="5.53983">
        <ele>1177</ele>
        <time>2019-06-19T22:08:46Z</time>
      </trkpt>
      <trkpt lat="45.19191" lon="5.54048">
        <ele>1180</ele>
        <time>2019-06-19T22:08:58Z</time>
      </trkpt>
      <trkpt lat="45.19187" lon="5.54062">
        <ele>1178</ele>
        <time>2019-06-19T22:09:00Z</time>
      </trkpt>
      <trkpt lat="45.19189" lon="5.54065">
        <ele>1179</ele>
        <time>2019-06-19T22:09:01Z</time>
      </trkpt>
      <trkpt lat="45.19164" lon="5.54119">
        <ele>1168</ele>
        <time>2019-06-19T22:09:12Z</time>
      </trkpt>
      <trkpt lat="45.1916" lon="5.54116">
        <ele>1168</ele>
        <time>2019-06-19T22:09:13Z</time>
      </trkpt>
      <trkpt lat="45.19154" lon="5.54097">
        <ele>1167</ele>
        <time>2019-06-19T22:09:16Z</time>
      </trkpt>
      <trkpt lat="45.19151" lon="5.54094">
        <ele>1166</ele>
        <time>2019-06-19T22:09:17Z</time>
      </trkpt>
      <trkpt lat="45.19135" lon="5.541">
        <ele>1163</ele>
        <time>2019-06-19T22:09:21Z</time>
      </trkpt>
      <trkpt lat="45.19131" lon="5.54106">
        <ele>1162</ele>
        <time>2019-06-19T22:09:22Z</time>
      </trkpt>
      <trkpt lat="45.19129" lon="5.54117">
        <ele>1161</ele>
        <time>2019-06-19T22:09:24Z</time>
      </trkpt>
      <trkpt lat="45.19124" lon="5.54127">
        <ele>1160</ele>
        <time>2019-06-19T22:09:26Z</time>
      </trkpt>
      <trkpt lat="45.19122" lon="5.54127">
        <ele>1160</ele>
        <time>2019-06-19T22:09:27Z</time>
      </trkpt>
      <trkpt lat="45.19109" lon="5.54102">
        <ele>1158</ele>
        <time>2019-06-19T22:09:32Z</time>
      </trkpt>
      <trkpt lat="45.19111" lon="5.54082">
        <ele>1159</ele>
        <time>2019-06-19T22:09:35Z</time>
      </trkpt>
      <trkpt lat="45.1911" lon="5.54024">
        <ele>1159</ele>
        <time>2019-06-19T22:09:45Z</time>
      </trkpt>
      <trkpt lat="45.19099" lon="5.54008">
        <ele>1157</ele>
        <time>2019-06-19T22:09:48Z</time>
      </trkpt>
      <trkpt lat="45.19083" lon="5.5397">
        <ele>1154</ele>
        <time>2019-06-19T22:09:56Z</time>
      </trkpt>
      <trkpt lat="45.1907" lon="5.53909">
        <ele>1152</ele>
        <time>2019-06-19T22:10:06Z</time>
      </trkpt>
      <trkpt lat="45.19066" lon="5.53902">
        <ele>1151</ele>
        <time>2019-06-19T22:10:08Z</time>
      </trkpt>
      <trkpt lat="45.19065" lon="5.5389">
        <ele>1150</ele>
        <time>2019-06-19T22:10:10Z</time>
      </trkpt>
      <trkpt lat="45.19052" lon="5.53878">
        <ele>1147</ele>
        <time>2019-06-19T22:10:13Z</time>
      </trkpt>
      <trkpt lat="45.19051" lon="5.53871">
        <ele>1147</ele>
        <time>2019-06-19T22:10:14Z</time>
      </trkpt>
      <trkpt lat="45.1909" lon="5.5382">
        <ele>1154</ele>
        <time>2019-06-19T22:10:27Z</time>
      </trkpt>
      <trkpt lat="45.19092" lon="5.53809">
        <ele>1154</ele>
        <time>2019-06-19T22:10:29Z</time>
      </trkpt>
      <trkpt lat="45.19089" lon="5.53802">
        <ele>1154</ele>
        <time>2019-06-19T22:10:30Z</time>
      </trkpt>
      <trkpt lat="45.19077" lon="5.53803">
        <ele>1152</ele>
        <time>2019-06-19T22:10:33Z</time>
      </trkpt>
      <trkpt lat="45.1908" lon="5.53806">
        <ele>1152</ele>
        <time>2019-06-19T22:10:34Z</time>
      </trkpt>
      <trkpt lat="45.19073" lon="5.53816">
        <ele>1151</ele>
        <time>2019-06-19T22:10:36Z</time>
      </trkpt>
      <trkpt lat="45.19034" lon="5.53842">
        <ele>1143</ele>
        <time>2019-06-19T22:10:46Z</time>
      </trkpt>
      <trkpt lat="45.19012" lon="5.53843">
        <ele>1138</ele>
        <time>2019-06-19T22:10:51Z</time>
      </trkpt>
      <trkpt lat="45.1899" lon="5.5385">
        <ele>1134</ele>
        <time>2019-06-19T22:10:56Z</time>
      </trkpt>
      <trkpt lat="45.18934" lon="5.53874">
        <ele>1124</ele>
        <time>2019-06-19T22:11:10Z</time>
      </trkpt>
      <trkpt lat="45.18923" lon="5.53883">
        <ele>1121</ele>
        <time>2019-06-19T22:11:13Z</time>
      </trkpt>
      <trkpt lat="45.18913" lon="5.53931">
        <ele>1117</ele>
        <time>2019-06-19T22:11:21Z</time>
      </trkpt>
      <trkpt lat="45.18909" lon="5.53938">
        <ele>1117</ele>
        <time>2019-06-19T22:11:23Z</time>
      </trkpt>
      <trkpt lat="45.18875" lon="5.53988">
        <ele>1117</ele>
        <time>2019-06-19T22:11:34Z</time>
      </trkpt>
      <trkpt lat="45.18868" lon="5.53996">
        <ele>1117</ele>
        <time>2019-06-19T22:11:36Z</time>
      </trkpt>
      <trkpt lat="45.18851" lon="5.54008">
        <ele>1119</ele>
        <time>2019-06-19T22:11:41Z</time>
      </trkpt>
      <trkpt lat="45.18836" lon="5.54012">
        <ele>1119</ele>
        <time>2019-06-19T22:11:44Z</time>
      </trkpt>
      <trkpt lat="45.18793" lon="5.54017">
        <ele>1122</ele>
        <time>2019-06-19T22:11:54Z</time>
      </trkpt>
      <trkpt lat="45.18737" lon="5.54029">
        <ele>1127</ele>
        <time>2019-06-19T22:12:08Z</time>
      </trkpt>
      <trkpt lat="45.18698" lon="5.54024">
        <ele>1126</ele>
        <time>2019-06-19T22:12:17Z</time>
      </trkpt>
      <trkpt lat="45.18703" lon="5.54028">
        <ele>1127</ele>
        <time>2019-06-19T22:12:18Z</time>
      </trkpt>
      <trkpt lat="45.18702" lon="5.54031">
        <ele>1128</ele>
        <time>2019-06-19T22:12:19Z</time>
      </trkpt>
      <trkpt lat="45.18701" lon="5.54028">
        <ele>1127</ele>
        <time>2019-06-19T22:12:19Z</time>
      </trkpt>
      <trkpt lat="45.18704" lon="5.5403">
        <ele>1127</ele>
        <time>2019-06-19T22:12:20Z</time>
      </trkpt>
      <trkpt lat="45.18672" lon="5.54027">
        <ele>1127</ele>
        <time>2019-06-19T22:12:27Z</time>
      </trkpt>
      <trkpt lat="45.1866" lon="5.54023">
        <ele>1125</ele>
        <time>2019-06-19T22:12:30Z</time>
      </trkpt>
      <trkpt lat="45.18658" lon="5.5403">
        <ele>1127</ele>
        <time>2019-06-19T22:12:32Z</time>
      </trkpt>
      <trkpt lat="45.18631" lon="5.5402">
        <ele>1121</ele>
        <time>2019-06-19T22:12:38Z</time>
      </trkpt>
      <trkpt lat="45.18576" lon="5.54016">
        <ele>1115</ele>
        <time>2019-06-19T22:12:51Z</time>
      </trkpt>
      <trkpt lat="45.18536" lon="5.54031">
        <ele>1114</ele>
        <time>2019-06-19T22:13:01Z</time>
      </trkpt>
      <trkpt lat="45.18528" lon="5.54037">
        <ele>1113</ele>
        <time>2019-06-19T22:13:03Z</time>
      </trkpt>
      <trkpt lat="45.18515" lon="5.54058">
        <ele>1113</ele>
        <time>2019-06-19T22:13:07Z</time>
      </trkpt>
      <trkpt lat="45.18511" lon="5.54074">
        <ele>1113</ele>
        <time>2019-06-19T22:13:10Z</time>
      </trkpt>
      <trkpt lat="45.1851" lon="5.54171">
        <ele>1108</ele>
        <time>2019-06-19T22:13:26Z</time>
      </trkpt>
      <trkpt lat="45.18504" lon="5.54255">
        <ele>1103</ele>
        <time>2019-06-19T22:13:40Z</time>
      </trkpt>
      <trkpt lat="45.18519" lon="5.54344">
        <ele>1104</ele>
        <time>2019-06-19T22:13:55Z</time>
      </trkpt>
      <trkpt lat="45.18527" lon="5.54424">
        <ele>1100</ele>
        <time>2019-06-19T22:14:08Z</time>
      </trkpt>
      <trkpt lat="45.1853" lon="5.545">
        <ele>1095</ele>
        <time>2019-06-19T22:14:21Z</time>
      </trkpt>
      <trkpt lat="45.18514" lon="5.54589">
        <ele>1093</ele>
        <time>2019-06-19T22:14:36Z</time>
      </trkpt>
      <trkpt lat="45.18514" lon="5.54605">
        <ele>1094</ele>
        <time>2019-06-19T22:14:39Z</time>
      </trkpt>
      <trkpt lat="45.18537" lon="5.54645">
        <ele>1097</ele>
        <time>2019-06-19T22:14:47Z</time>
      </trkpt>
      <trkpt lat="45.18532" lon="5.54674">
        <ele>1097</ele>
        <time>2019-06-19T22:14:52Z</time>
      </trkpt>
      <trkpt lat="45.18538" lon="5.54708">
        <ele>1096</ele>
        <time>2019-06-19T22:14:58Z</time>
      </trkpt>
      <trkpt lat="45.18535" lon="5.54723">
        <ele>1095</ele>
        <time>2019-06-19T22:15:00Z</time>
      </trkpt>
      <trkpt lat="45.18494" lon="5.54786">
        <ele>1086</ele>
        <time>2019-06-19T22:15:14Z</time>
      </trkpt>
      <trkpt lat="45.18463" lon="5.54855">
        <ele>1084</ele>
        <time>2019-06-19T22:15:28Z</time>
      </trkpt>
      <trkpt lat="45.18465" lon="5.54867">
        <ele>1086</ele>
        <time>2019-06-19T22:15:30Z</time>
      </trkpt>
      <trkpt lat="45.18476" lon="5.54878">
        <ele>1088</ele>
        <time>2019-06-19T22:15:33Z</time>
      </trkpt>
      <trkpt lat="45.18495" lon="5.54907">
        <ele>1093</ele>
        <time>2019-06-19T22:15:40Z</time>
      </trkpt>
      <trkpt lat="45.18518" lon="5.54976">
        <ele>1106</ele>
        <time>2019-06-19T22:15:52Z</time>
      </trkpt>
      <trkpt lat="45.18534" lon="5.54998">
        <ele>1109</ele>
        <time>2019-06-19T22:15:57Z</time>
      </trkpt>
      <trkpt lat="45.1858" lon="5.55039">
        <ele>1110</ele>
        <time>2019-06-19T22:16:10Z</time>
      </trkpt>
      <trkpt lat="45.18599" lon="5.55051">
        <ele>1111</ele>
        <time>2019-06-19T22:16:15Z</time>
      </trkpt>
      <trkpt lat="45.18624" lon="5.55063">
        <ele>1110</ele>
        <time>2019-06-19T22:16:21Z</time>
      </trkpt>
      <trkpt lat="45.1867" lon="5.5508">
        <ele>1108</ele>
        <time>2019-06-19T22:16:32Z</time>
      </trkpt>
      <trkpt lat="45.18744" lon="5.55103">
        <ele>1117</ele>
        <time>2019-06-19T22:16:50Z</time>
      </trkpt>
      <trkpt lat="45.18779" lon="5.55121">
        <ele>1121</ele>
        <time>2019-06-19T22:16:59Z</time>
      </trkpt>
      <trkpt lat="45.18791" lon="5.55124">
        <ele>1122</ele>
        <time>2019-06-19T22:17:01Z</time>
      </trkpt>
      <trkpt lat="45.18815" lon="5.55153">
        <ele>1125</ele>
        <time>2019-06-19T22:17:09Z</time>
      </trkpt>
      <trkpt lat="45.1884" lon="5.55167">
        <ele>1127</ele>
        <time>2019-06-19T22:17:15Z</time>
      </trkpt>
      <trkpt lat="45.18871" lon="5.55196">
        <ele>1135</ele>
        <time>2019-06-19T22:17:24Z</time>
      </trkpt>
      <trkpt lat="45.18898" lon="5.55202">
        <ele>1137</ele>
        <time>2019-06-19T22:17:30Z</time>
      </trkpt>
      <trkpt lat="45.18938" lon="5.55242">
        <ele>1139</ele>
        <time>2019-06-19T22:17:42Z</time>
      </trkpt>
      <trkpt lat="45.19" lon="5.55311">
        <ele>1144</ele>
        <time>2019-06-19T22:18:00Z</time>
      </trkpt>
      <trkpt lat="45.19021" lon="5.5536">
        <ele>1150</ele>
        <time>2019-06-19T22:18:09Z</time>
      </trkpt>
      <trkpt lat="45.19023" lon="5.55424">
        <ele>1157</ele>
        <time>2019-06-19T22:18:20Z</time>
      </trkpt>
      <trkpt lat="45.19041" lon="5.5538">
        <ele>1155</ele>
        <time>2019-06-19T22:18:28Z</time>
      </trkpt>
      <trkpt lat="45.19043" lon="5.55352">
        <ele>1152</ele>
        <time>2019-06-19T22:18:33Z</time>
      </trkpt>
      <trkpt lat="45.19066" lon="5.5532">
        <ele>1153</ele>
        <time>2019-06-19T22:18:40Z</time>
      </trkpt>
      <trkpt lat="45.19044" lon="5.55271">
        <ele>1149</ele>
        <time>2019-06-19T22:18:50Z</time>
      </trkpt>
      <trkpt lat="45.19066" lon="5.55287">
        <ele>1153</ele>
        <time>2019-06-19T22:18:56Z</time>
      </trkpt>
      <trkpt lat="45.19102" lon="5.55298">
        <ele>1158</ele>
        <time>2019-06-19T22:19:04Z</time>
      </trkpt>
      <trkpt lat="45.19141" lon="5.55324">
        <ele>1164</ele>
        <time>2019-06-19T22:19:14Z</time>
      </trkpt>
      <trkpt lat="45.19146" lon="5.55335">
        <ele>1164</ele>
        <time>2019-06-19T22:19:17Z</time>
      </trkpt>
      <trkpt lat="45.19142" lon="5.55347">
        <ele>1165</ele>
        <time>2019-06-19T22:19:19Z</time>
      </trkpt>
      <trkpt lat="45.19122" lon="5.55354">
        <ele>1162</ele>
        <time>2019-06-19T22:19:24Z</time>
      </trkpt>
      <trkpt lat="45.19114" lon="5.55361">
        <ele>1162</ele>
        <time>2019-06-19T22:19:26Z</time>
      </trkpt>
      <trkpt lat="45.19108" lon="5.55373">
        <ele>1162</ele>
        <time>2019-06-19T22:19:28Z</time>
      </trkpt>
      <trkpt lat="45.19103" lon="5.554">
        <ele>1163</ele>
        <time>2019-06-19T22:19:33Z</time>
      </trkpt>
      <trkpt lat="45.19106" lon="5.55419">
        <ele>1165</ele>
        <time>2019-06-19T22:19:36Z</time>
      </trkpt>
      <trkpt lat="45.19104" lon="5.55425">
        <ele>1165</ele>
        <time>2019-06-19T22:19:37Z</time>
      </trkpt>
      <trkpt lat="45.19112" lon="5.55454">
        <ele>1167</ele>
        <time>2019-06-19T22:19:42Z</time>
      </trkpt>
      <trkpt lat="45.19113" lon="5.55518">
        <ele>1168</ele>
        <time>2019-06-19T22:19:53Z</time>
      </trkpt>
      <trkpt lat="45.19128" lon="5.55585">
        <ele>1171</ele>
        <time>2019-06-19T22:20:04Z</time>
      </trkpt>
      <trkpt lat="45.1915" lon="5.55602">
        <ele>1175</ele>
        <time>2019-06-19T22:20:10Z</time>
      </trkpt>
      <trkpt lat="45.19152" lon="5.55609">
        <ele>1175</ele>
        <time>2019-06-19T22:20:11Z</time>
      </trkpt>
      <trkpt lat="45.19165" lon="5.55619">
        <ele>1176</ele>
        <time>2019-06-19T22:20:15Z</time>
      </trkpt>
      <trkpt lat="45.19175" lon="5.5562">
        <ele>1177</ele>
        <time>2019-06-19T22:20:17Z</time>
      </trkpt>
      <trkpt lat="45.19191" lon="5.55614">
        <ele>1179</ele>
        <time>2019-06-19T22:20:21Z</time>
      </trkpt>
      <trkpt lat="45.19211" lon="5.55613">
        <ele>1181</ele>
        <time>2019-06-19T22:20:26Z</time>
      </trkpt>
      <trkpt lat="45.19219" lon="5.5561">
        <ele>1182</ele>
        <time>2019-06-19T22:20:28Z</time>
      </trkpt>
      <trkpt lat="45.19252" lon="5.55578">
        <ele>1186</ele>
        <time>2019-06-19T22:20:37Z</time>
      </trkpt>
      <trkpt lat="45.19263" lon="5.55578">
        <ele>1187</ele>
        <time>2019-06-19T22:20:40Z</time>
      </trkpt>
      <trkpt lat="45.19262" lon="5.55575">
        <ele>1187</ele>
        <time>2019-06-19T22:20:40Z</time>
      </trkpt>
      <trkpt lat="45.19287" lon="5.55547">
        <ele>1189</ele>
        <time>2019-06-19T22:20:48Z</time>
      </trkpt>
      <trkpt lat="45.19286" lon="5.55603">
        <ele>1188</ele>
        <time>2019-06-19T22:20:57Z</time>
      </trkpt>
      <trkpt lat="45.19312" lon="5.55626">
        <ele>1188</ele>
        <time>2019-06-19T22:21:04Z</time>
      </trkpt>
      <trkpt lat="45.19333" lon="5.55617">
        <ele>1190</ele>
        <time>2019-06-19T22:21:09Z</time>
      </trkpt>
      <trkpt lat="45.19365" lon="5.55612">
        <ele>1192</ele>
        <time>2019-06-19T22:21:17Z</time>
      </trkpt>
      <trkpt lat="45.19395" lon="5.55637">
        <ele>1192</ele>
        <time>2019-06-19T22:21:25Z</time>
      </trkpt>
      <trkpt lat="45.1942" lon="5.55631">
        <ele>1194</ele>
        <time>2019-06-19T22:21:31Z</time>
      </trkpt>
      <trkpt lat="45.1943" lon="5.5562">
        <ele>1196</ele>
        <time>2019-06-19T22:21:34Z</time>
      </trkpt>
      <trkpt lat="45.19436" lon="5.55623">
        <ele>1197</ele>
        <time>2019-06-19T22:21:35Z</time>
      </trkpt>
      <trkpt lat="45.19449" lon="5.5564">
        <ele>1198</ele>
        <time>2019-06-19T22:21:39Z</time>
      </trkpt>
      <trkpt lat="45.19459" lon="5.55644">
        <ele>1199</ele>
        <time>2019-06-19T22:21:42Z</time>
      </trkpt>
      <trkpt lat="45.1947" lon="5.55678">
        <ele>1200</ele>
        <time>2019-06-19T22:21:48Z</time>
      </trkpt>
      <trkpt lat="45.19539" lon="5.55722">
        <ele>1206</ele>
        <time>2019-06-19T22:22:05Z</time>
      </trkpt>
      <trkpt lat="45.19561" lon="5.55741">
        <ele>1206</ele>
        <time>2019-06-19T22:22:11Z</time>
      </trkpt>
      <trkpt lat="45.19583" lon="5.55765">
        <ele>1207</ele>
        <time>2019-06-19T22:22:18Z</time>
      </trkpt>
      <trkpt lat="45.19749" lon="5.55772">
        <ele>1224</ele>
        <time>2019-06-19T22:22:57Z</time>
      </trkpt>
      <trkpt lat="45.19792" lon="5.55807">
        <ele>1227</ele>
        <time>2019-06-19T22:23:08Z</time>
      </trkpt>
      <trkpt lat="45.19849" lon="5.55822">
        <ele>1230</ele>
        <time>2019-06-19T22:23:22Z</time>
      </trkpt>
      <trkpt lat="45.19904" lon="5.55786">
        <ele>1235</ele>
        <time>2019-06-19T22:23:36Z</time>
      </trkpt>
      <trkpt lat="45.19938" lon="5.55784">
        <ele>1238</ele>
        <time>2019-06-19T22:23:44Z</time>
      </trkpt>
      <trkpt lat="45.1995" lon="5.55789">
        <ele>1239</ele>
        <time>2019-06-19T22:23:47Z</time>
      </trkpt>
      <trkpt lat="45.20011" lon="5.55743">
        <ele>1245</ele>
        <time>2019-06-19T22:24:03Z</time>
      </trkpt>
      <trkpt lat="45.20033" lon="5.5574">
        <ele>1248</ele>
        <time>2019-06-19T22:24:08Z</time>
      </trkpt>
      <trkpt lat="45.20049" lon="5.55743">
        <ele>1250</ele>
        <time>2019-06-19T22:24:12Z</time>
      </trkpt>
      <trkpt lat="45.20067" lon="5.55747">
        <ele>1251</ele>
        <time>2019-06-19T22:24:16Z</time>
      </trkpt>
      <trkpt lat="45.20079" lon="5.55754">
        <ele>1253</ele>
        <time>2019-06-19T22:24:19Z</time>
      </trkpt>
      <trkpt lat="45.20084" lon="5.5576">
        <ele>1253</ele>
        <time>2019-06-19T22:24:21Z</time>
      </trkpt>
      <trkpt lat="45.20087" lon="5.5577">
        <ele>1254</ele>
        <time>2019-06-19T22:24:22Z</time>
      </trkpt>
      <trkpt lat="45.20085" lon="5.55777">
        <ele>1254</ele>
        <time>2019-06-19T22:24:24Z</time>
      </trkpt>
      <trkpt lat="45.20068" lon="5.55797">
        <ele>1252</ele>
        <time>2019-06-19T22:24:29Z</time>
      </trkpt>
      <trkpt lat="45.20061" lon="5.55811">
        <ele>1251</ele>
        <time>2019-06-19T22:24:32Z</time>
      </trkpt>
      <trkpt lat="45.20061" lon="5.55816">
        <ele>1251</ele>
        <time>2019-06-19T22:24:33Z</time>
      </trkpt>
      <trkpt lat="45.20064" lon="5.5582">
        <ele>1252</ele>
        <time>2019-06-19T22:24:34Z</time>
      </trkpt>
      <trkpt lat="45.20094" lon="5.55838">
        <ele>1256</ele>
        <time>2019-06-19T22:24:41Z</time>
      </trkpt>
      <trkpt lat="45.20174" lon="5.55836">
        <ele>1262</ele>
        <time>2019-06-19T22:25:00Z</time>
      </trkpt>
      <trkpt lat="45.2018" lon="5.55843">
        <ele>1262</ele>
        <time>2019-06-19T22:25:02Z</time>
      </trkpt>
      <trkpt lat="45.20185" lon="5.55855">
        <ele>1263</ele>
        <time>2019-06-19T22:25:04Z</time>
      </trkpt>
      <trkpt lat="45.20194" lon="5.55896">
        <ele>1263</ele>
        <time>2019-06-19T22:25:11Z</time>
      </trkpt>
      <trkpt lat="45.20187" lon="5.55932">
        <ele>1263</ele>
        <time>2019-06-19T22:25:17Z</time>
      </trkpt>
      <trkpt lat="45.20222" lon="5.55937">
        <ele>1264</ele>
        <time>2019-06-19T22:25:25Z</time>
      </trkpt>
      <trkpt lat="45.20261" lon="5.55957">
        <ele>1266</ele>
        <time>2019-06-19T22:25:35Z</time>
      </trkpt>
      <trkpt lat="45.20316" lon="5.55965">
        <ele>1270</ele>
        <time>2019-06-19T22:25:48Z</time>
      </trkpt>
      <trkpt lat="45.20355" lon="5.55946">
        <ele>1272</ele>
        <time>2019-06-19T22:25:58Z</time>
      </trkpt>
      <trkpt lat="45.20411" lon="5.55927">
        <ele>1276</ele>
        <time>2019-06-19T22:26:11Z</time>
      </trkpt>
      <trkpt lat="45.20455" lon="5.5593">
        <ele>1279</ele>
        <time>2019-06-19T22:26:21Z</time>
      </trkpt>
      <trkpt lat="45.20494" lon="5.55938">
        <ele>1281</ele>
        <time>2019-06-19T22:26:30Z</time>
      </trkpt>
      <trkpt lat="45.20546" lon="5.55961">
        <ele>1283</ele>
        <time>2019-06-19T22:26:43Z</time>
      </trkpt>
      <trkpt lat="45.20565" lon="5.55965">
        <ele>1284</ele>
        <time>2019-06-19T22:26:48Z</time>
      </trkpt>
      <trkpt lat="45.20596" lon="5.55962">
        <ele>1285</ele>
        <time>2019-06-19T22:26:55Z</time>
      </trkpt>
      <trkpt lat="45.20621" lon="5.55953">
        <ele>1287</ele>
        <time>2019-06-19T22:27:01Z</time>
      </trkpt>
      <trkpt lat="45.20637" lon="5.55944">
        <ele>1287</ele>
        <time>2019-06-19T22:27:05Z</time>
      </trkpt>
      <trkpt lat="45.20679" lon="5.55874">
        <ele>1285</ele>
        <time>2019-06-19T22:27:20Z</time>
      </trkpt>
      <trkpt lat="45.20674" lon="5.55873">
        <ele>1285</ele>
        <time>2019-06-19T22:27:21Z</time>
      </trkpt>
      <trkpt lat="45.20673" lon="5.55865">
        <ele>1285</ele>
        <time>2019-06-19T22:27:23Z</time>
      </trkpt>
      <trkpt lat="45.20683" lon="5.55831">
        <ele>1284</ele>
        <time>2019-06-19T22:27:29Z</time>
      </trkpt>
      <trkpt lat="45.20718" lon="5.55778">
        <ele>1286</ele>
        <time>2019-06-19T22:27:41Z</time>
      </trkpt>
      <trkpt lat="45.20757" lon="5.55806">
        <ele>1284</ele>
        <time>2019-06-19T22:27:51Z</time>
      </trkpt>
      <trkpt lat="45.20813" lon="5.55804">
        <ele>1286</ele>
        <time>2019-06-19T22:28:04Z</time>
      </trkpt>
      <trkpt lat="45.20864" lon="5.55832">
        <ele>1288</ele>
        <time>2019-06-19T22:28:17Z</time>
      </trkpt>
      <trkpt lat="45.20879" lon="5.55832">
        <ele>1289</ele>
        <time>2019-06-19T22:28:20Z</time>
      </trkpt>
      <trkpt lat="45.20892" lon="5.55826">
        <ele>1291</ele>
        <time>2019-06-19T22:28:23Z</time>
      </trkpt>
      <trkpt lat="45.20906" lon="5.55825">
        <ele>1292</ele>
        <time>2019-06-19T22:28:27Z</time>
      </trkpt>
      <trkpt lat="45.20924" lon="5.5582">
        <ele>1294</ele>
        <time>2019-06-19T22:28:31Z</time>
      </trkpt>
      <trkpt lat="45.20934" lon="5.55812">
        <ele>1295</ele>
        <time>2019-06-19T22:28:34Z</time>
      </trkpt>
      <trkpt lat="45.20955" lon="5.55779">
        <ele>1297</ele>
        <time>2019-06-19T22:28:41Z</time>
      </trkpt>
      <trkpt lat="45.20965" lon="5.55769">
        <ele>1299</ele>
        <time>2019-06-19T22:28:44Z</time>
      </trkpt>
      <trkpt lat="45.20991" lon="5.55763">
        <ele>1301</ele>
        <time>2019-06-19T22:28:50Z</time>
      </trkpt>
      <trkpt lat="45.21004" lon="5.55763">
        <ele>1302</ele>
        <time>2019-06-19T22:28:53Z</time>
      </trkpt>
      <trkpt lat="45.21017" lon="5.55778">
        <ele>1301</ele>
        <time>2019-06-19T22:28:57Z</time>
      </trkpt>
      <trkpt lat="45.21054" lon="5.55788">
        <ele>1303</ele>
        <time>2019-06-19T22:29:06Z</time>
      </trkpt>
      <trkpt lat="45.21072" lon="5.55819">
        <ele>1302</ele>
        <time>2019-06-19T22:29:12Z</time>
      </trkpt>
      <trkpt lat="45.21099" lon="5.55842">
        <ele>1301</ele>
        <time>2019-06-19T22:29:20Z</time>
      </trkpt>
      <trkpt lat="45.21125" lon="5.55855">
        <ele>1301</ele>
        <time>2019-06-19T22:29:26Z</time>
      </trkpt>
      <trkpt lat="45.21169" lon="5.5586">
        <ele>1300</ele>
        <time>2019-06-19T22:29:36Z</time>
      </trkpt>
      <trkpt lat="45.21177" lon="5.55863">
        <ele>1301</ele>
        <time>2019-06-19T22:29:38Z</time>
      </trkpt>
      <trkpt lat="45.21182" lon="5.5587">
        <ele>1301</ele>
        <time>2019-06-19T22:29:40Z</time>
      </trkpt>
      <trkpt lat="45.21187" lon="5.55884">
        <ele>1300</ele>
        <time>2019-06-19T22:29:43Z</time>
      </trkpt>
      <trkpt lat="45.21193" lon="5.55889">
        <ele>1300</ele>
        <time>2019-06-19T22:29:44Z</time>
      </trkpt>
      <trkpt lat="45.21199" lon="5.55888">
        <ele>1300</ele>
        <time>2019-06-19T22:29:46Z</time>
      </trkpt>
      <trkpt lat="45.2124" lon="5.55857">
        <ele>1305</ele>
        <time>2019-06-19T22:29:56Z</time>
      </trkpt>
      <trkpt lat="45.21246" lon="5.55855">
        <ele>1306</ele>
        <time>2019-06-19T22:29:58Z</time>
      </trkpt>
      <trkpt lat="45.21268" lon="5.55858">
        <ele>1307</ele>
        <time>2019-06-19T22:30:03Z</time>
      </trkpt>
      <trkpt lat="45.21276" lon="5.55864">
        <ele>1308</ele>
        <time>2019-06-19T22:30:05Z</time>
      </trkpt>
      <trkpt lat="45.21287" lon="5.55884">
        <ele>1307</ele>
        <time>2019-06-19T22:30:09Z</time>
      </trkpt>
      <trkpt lat="45.21291" lon="5.55911">
        <ele>1304</ele>
        <time>2019-06-19T22:30:14Z</time>
      </trkpt>
      <trkpt lat="45.2129" lon="5.55933">
        <ele>1303</ele>
        <time>2019-06-19T22:30:18Z</time>
      </trkpt>
      <trkpt lat="45.21294" lon="5.55959">
        <ele>1302</ele>
        <time>2019-06-19T22:30:22Z</time>
      </trkpt>
      <trkpt lat="45.21303" lon="5.55986">
        <ele>1302</ele>
        <time>2019-06-19T22:30:27Z</time>
      </trkpt>
      <trkpt lat="45.21356" lon="5.56001">
        <ele>1300</ele>
        <time>2019-06-19T22:30:39Z</time>
      </trkpt>
      <trkpt lat="45.21368" lon="5.56011">
        <ele>1300</ele>
        <time>2019-06-19T22:30:43Z</time>
      </trkpt>
      <trkpt lat="45.21398" lon="5.56012">
        <ele>1298</ele>
        <time>2019-06-19T22:30:50Z</time>
      </trkpt>
      <trkpt lat="45.21478" lon="5.56004">
        <ele>1298</ele>
        <time>2019-06-19T22:31:08Z</time>
      </trkpt>
      <trkpt lat="45.21634" lon="5.55994">
        <ele>1302</ele>
        <time>2019-06-19T22:31:45Z</time>
      </trkpt>
      <trkpt lat="45.21666" lon="5.55996">
        <ele>1304</ele>
        <time>2019-06-19T22:31:52Z</time>
      </trkpt>
      <trkpt lat="45.21808" lon="5.56025">
        <ele>1299</ele>
        <time>2019-06-19T22:32:26Z</time>
      </trkpt>
      <trkpt lat="45.21827" lon="5.56043">
        <ele>1298</ele>
        <time>2019-06-19T22:32:31Z</time>
      </trkpt>
      <trkpt lat="45.21847" lon="5.56101">
        <ele>1300</ele>
        <time>2019-06-19T22:32:42Z</time>
      </trkpt>
      <trkpt lat="45.21887" lon="5.56174">
        <ele>1305</ele>
        <time>2019-06-19T22:32:57Z</time>
      </trkpt>
      <trkpt lat="45.21945" lon="5.56269">
        <ele>1310</ele>
        <time>2019-06-19T22:33:18Z</time>
      </trkpt>
      <trkpt lat="45.21968" lon="5.56313">
        <ele>1314</ele>
        <time>2019-06-19T22:33:27Z</time>
      </trkpt>
      <trkpt lat="45.21981" lon="5.56339">
        <ele>1315</ele>
        <time>2019-06-19T22:33:32Z</time>
      </trkpt>
      <trkpt lat="45.22002" lon="5.56396">
        <ele>1319</ele>
        <time>2019-06-19T22:33:43Z</time>
      </trkpt>
      <trkpt lat="45.22041" lon="5.56461">
        <ele>1322</ele>
        <time>2019-06-19T22:33:57Z</time>
      </trkpt>
      <trkpt lat="45.22065" lon="5.56511">
        <ele>1323</ele>
        <time>2019-06-19T22:34:07Z</time>
      </trkpt>
      <trkpt lat="45.2208" lon="5.5656">
        <ele>1324</ele>
        <time>2019-06-19T22:34:15Z</time>
      </trkpt>
      <trkpt lat="45.22086" lon="5.56608">
        <ele>1326</ele>
        <time>2019-06-19T22:34:23Z</time>
      </trkpt>
      <trkpt lat="45.22086" lon="5.56634">
        <ele>1326</ele>
        <time>2019-06-19T22:34:28Z</time>
      </trkpt>
      <trkpt lat="45.22083" lon="5.56647">
        <ele>1327</ele>
        <time>2019-06-19T22:34:30Z</time>
      </trkpt>
      <trkpt lat="45.22065" lon="5.56685">
        <ele>1331</ele>
        <time>2019-06-19T22:34:37Z</time>
      </trkpt>
      <trkpt lat="45.22042" lon="5.5672">
        <ele>1337</ele>
        <time>2019-06-19T22:34:45Z</time>
      </trkpt>
      <trkpt lat="45.22011" lon="5.56821">
        <ele>1344</ele>
        <time>2019-06-19T22:35:03Z</time>
      </trkpt>
      <trkpt lat="45.21996" lon="5.56856">
        <ele>1348</ele>
        <time>2019-06-19T22:35:10Z</time>
      </trkpt>
      <trkpt lat="45.2196" lon="5.5689">
        <ele>1351</ele>
        <time>2019-06-19T22:35:20Z</time>
      </trkpt>
      <trkpt lat="45.21916" lon="5.56917">
        <ele>1351</ele>
        <time>2019-06-19T22:35:31Z</time>
      </trkpt>
      <trkpt lat="45.21917" lon="5.56935">
        <ele>1352</ele>
        <time>2019-06-19T22:35:34Z</time>
      </trkpt>
      <trkpt lat="45.21923" lon="5.56943">
        <ele>1353</ele>
        <time>2019-06-19T22:35:36Z</time>
      </trkpt>
      <trkpt lat="45.21943" lon="5.56947">
        <ele>1355</ele>
        <time>2019-06-19T22:35:41Z</time>
      </trkpt>
      <trkpt lat="45.21965" lon="5.56945">
        <ele>1356</ele>
        <time>2019-06-19T22:35:46Z</time>
      </trkpt>
      <trkpt lat="45.21992" lon="5.56948">
        <ele>1357</ele>
        <time>2019-06-19T22:35:53Z</time>
      </trkpt>
      <trkpt lat="45.22007" lon="5.56972">
        <ele>1361</ele>
        <time>2019-06-19T22:35:58Z</time>
      </trkpt>
      <trkpt lat="45.22009" lon="5.56978">
        <ele>1362</ele>
        <time>2019-06-19T22:35:59Z</time>
      </trkpt>
      <trkpt lat="45.22007" lon="5.56995">
        <ele>1364</ele>
        <time>2019-06-19T22:36:02Z</time>
      </trkpt>
      <trkpt lat="45.22012" lon="5.57071">
        <ele>1368</ele>
        <time>2019-06-19T22:36:14Z</time>
      </trkpt>
      <trkpt lat="45.2202" lon="5.57099">
        <ele>1369</ele>
        <time>2019-06-19T22:36:19Z</time>
      </trkpt>
      <trkpt lat="45.22007" lon="5.57132">
        <ele>1365</ele>
        <time>2019-06-19T22:36:25Z</time>
      </trkpt>
      <trkpt lat="45.22008" lon="5.57165">
        <ele>1364</ele>
        <time>2019-06-19T22:36:31Z</time>
      </trkpt>
      <trkpt lat="45.22029" lon="5.5722">
        <ele>1362</ele>
        <time>2019-06-19T22:36:41Z</time>
      </trkpt>
      <trkpt lat="45.22043" lon="5.5724">
        <ele>1364</ele>
        <time>2019-06-19T22:36:46Z</time>
      </trkpt>
      <trkpt lat="45.22053" lon="5.57244">
        <ele>1366</ele>
        <time>2019-06-19T22:36:48Z</time>
      </trkpt>
      <trkpt lat="45.2206" lon="5.57243">
        <ele>1368</ele>
        <time>2019-06-19T22:36:50Z</time>
      </trkpt>
      <trkpt lat="45.22094" lon="5.57195">
        <ele>1377</ele>
        <time>2019-06-19T22:37:01Z</time>
      </trkpt>
      <trkpt lat="45.221" lon="5.57193">
        <ele>1378</ele>
        <time>2019-06-19T22:37:03Z</time>
      </trkpt>
      <trkpt lat="45.22115" lon="5.57207">
        <ele>1379</ele>
        <time>2019-06-19T22:37:07Z</time>
      </trkpt>
      <trkpt lat="45.22149" lon="5.5727">
        <ele>1383</ele>
        <time>2019-06-19T22:37:20Z</time>
      </trkpt>
      <trkpt lat="45.22161" lon="5.57283">
        <ele>1385</ele>
        <time>2019-06-19T22:37:23Z</time>
      </trkpt>
      <trkpt lat="45.22215" lon="5.57293">
        <ele>1389</ele>
        <time>2019-06-19T22:37:36Z</time>
      </trkpt>
      <trkpt lat="45.22245" lon="5.57293">
        <ele>1391</ele>
        <time>2019-06-19T22:37:43Z</time>
      </trkpt>
      <trkpt lat="45.22311" lon="5.57277">
        <ele>1392</ele>
        <time>2019-06-19T22:37:59Z</time>
      </trkpt>
      <trkpt lat="45.22359" lon="5.57222">
        <ele>1392</ele>
        <time>2019-06-19T22:38:13Z</time>
      </trkpt>
      <trkpt lat="45.22399" lon="5.57233">
        <ele>1399</ele>
        <time>2019-06-19T22:38:23Z</time>
      </trkpt>
      <trkpt lat="45.2244" lon="5.57197">
        <ele>1402</ele>
        <time>2019-06-19T22:38:34Z</time>
      </trkpt>
      <trkpt lat="45.22464" lon="5.57158">
        <ele>1400</ele>
        <time>2019-06-19T22:38:42Z</time>
      </trkpt>
      <trkpt lat="45.22542" lon="5.57165">
        <ele>1408</ele>
        <time>2019-06-19T22:39:01Z</time>
      </trkpt>
      <trkpt lat="45.22581" lon="5.57191">
        <ele>1414</ele>
        <time>2019-06-19T22:39:11Z</time>
      </trkpt>
      <trkpt lat="45.22592" lon="5.57271">
        <ele>1425</ele>
        <time>2019-06-19T22:39:24Z</time>
      </trkpt>
      <trkpt lat="45.22663" lon="5.57335">
        <ele>1430</ele>
        <time>2019-06-19T22:39:44Z</time>
      </trkpt>
      <trkpt lat="45.22747" lon="5.57382">
        <ele>1424</ele>
        <time>2019-06-19T22:40:05Z</time>
      </trkpt>
      <trkpt lat="45.22812" lon="5.57413">
        <ele>1421</ele>
        <time>2019-06-19T22:40:21Z</time>
      </trkpt>
      <trkpt lat="45.22852" lon="5.57427">
        <ele>1422</ele>
        <time>2019-06-19T22:40:30Z</time>
      </trkpt>
      <trkpt lat="45.22917" lon="5.57426">
        <ele>1429</ele>
        <time>2019-06-19T22:40:46Z</time>
      </trkpt>
      <trkpt lat="45.22961" lon="5.57415">
        <ele>1433</ele>
        <time>2019-06-19T22:40:56Z</time>
      </trkpt>
      <trkpt lat="45.22993" lon="5.57427">
        <ele>1435</ele>
        <time>2019-06-19T22:41:04Z</time>
      </trkpt>
      <trkpt lat="45.23036" lon="5.57415">
        <ele>1443</ele>
        <time>2019-06-19T22:41:14Z</time>
      </trkpt>
      <trkpt lat="45.2307" lon="5.57432">
        <ele>1448</ele>
        <time>2019-06-19T22:41:22Z</time>
      </trkpt>
      <trkpt lat="45.23095" lon="5.5749">
        <ele>1449</ele>
        <time>2019-06-19T22:41:34Z</time>
      </trkpt>
      <trkpt lat="45.23092" lon="5.57605">
        <ele>1456</ele>
        <time>2019-06-19T22:41:53Z</time>
      </trkpt>
      <trkpt lat="45.2311" lon="5.57636">
        <ele>1462</ele>
        <time>2019-06-19T22:41:59Z</time>
      </trkpt>
      <trkpt lat="45.23134" lon="5.57595">
        <ele>1463</ele>
        <time>2019-06-19T22:42:08Z</time>
      </trkpt>
      <trkpt lat="45.23154" lon="5.57541">
        <ele>1463</ele>
        <time>2019-06-19T22:42:18Z</time>
      </trkpt>
      <trkpt lat="45.23231" lon="5.57477">
        <ele>1473</ele>
        <time>2019-06-19T22:42:39Z</time>
      </trkpt>
      <trkpt lat="45.23265" lon="5.57477">
        <ele>1477</ele>
        <time>2019-06-19T22:42:47Z</time>
      </trkpt>
      <trkpt lat="45.23364" lon="5.57537">
        <ele>1483</ele>
        <time>2019-06-19T22:43:12Z</time>
      </trkpt>
      <trkpt lat="45.23402" lon="5.57544">
        <ele>1486</ele>
        <time>2019-06-19T22:43:21Z</time>
      </trkpt>
      <trkpt lat="45.23438" lon="5.57565">
        <ele>1490</ele>
        <time>2019-06-19T22:43:30Z</time>
      </trkpt>
      <trkpt lat="45.23492" lon="5.57582">
        <ele>1498</ele>
        <time>2019-06-19T22:43:43Z</time>
      </trkpt>
      <trkpt lat="45.23522" lon="5.5761">
        <ele>1501</ele>
        <time>2019-06-19T22:43:51Z</time>
      </trkpt>
      <trkpt lat="45.23534" lon="5.57638">
        <ele>1500</ele>
        <time>2019-06-19T22:43:57Z</time>
      </trkpt>
      <trkpt lat="45.23569" lon="5.57657">
        <ele>1503</ele>
        <time>2019-06-19T22:44:05Z</time>
      </trkpt>
      <trkpt lat="45.23623" lon="5.57706">
        <ele>1505</ele>
        <time>2019-06-19T22:44:20Z</time>
      </trkpt>
      <trkpt lat="45.23677" lon="5.57687">
        <ele>1516</ele>
        <time>2019-06-19T22:44:33Z</time>
      </trkpt>
      <trkpt lat="45.23724" lon="5.57702">
        <ele>1521</ele>
        <time>2019-06-19T22:44:45Z</time>
      </trkpt>
      <trkpt lat="45.23765" lon="5.57732">
        <ele>1523</ele>
        <time>2019-06-19T22:44:55Z</time>
      </trkpt>
      <trkpt lat="45.23809" lon="5.57741">
        <ele>1524</ele>
        <time>2019-06-19T22:45:06Z</time>
      </trkpt>
      <trkpt lat="45.23888" lon="5.57763">
        <ele>1523</ele>
        <time>2019-06-19T22:45:25Z</time>
      </trkpt>
      <trkpt lat="45.23897" lon="5.57809">
        <ele>1511</ele>
        <time>2019-06-19T22:45:32Z</time>
      </trkpt>
      <trkpt lat="45.2393" lon="5.5781">
        <ele>1511</ele>
        <time>2019-06-19T22:45:40Z</time>
      </trkpt>
      <trkpt lat="45.24007" lon="5.57747">
        <ele>1522</ele>
        <time>2019-06-19T22:46:01Z</time>
      </trkpt>
      <trkpt lat="45.24046" lon="5.57778">
        <ele>1516</ele>
        <time>2019-06-19T22:46:11Z</time>
      </trkpt>
      <trkpt lat="45.2419" lon="5.57914">
        <ele>1516</ele>
        <time>2019-06-19T22:46:52Z</time>
      </trkpt>
      <trkpt lat="45.24171" lon="5.58042">
        <ele>1516</ele>
        <time>2019-06-19T22:47:13Z</time>
      </trkpt>
      <trkpt lat="45.24125" lon="5.5817">
        <ele>1512</ele>
        <time>2019-06-19T22:47:37Z</time>
      </trkpt>
      <trkpt lat="45.2413" lon="5.58237">
        <ele>1516</ele>
        <time>2019-06-19T22:47:48Z</time>
      </trkpt>
      <trkpt lat="45.24128" lon="5.58312">
        <ele>1514</ele>
        <time>2019-06-19T22:48:00Z</time>
      </trkpt>
      <trkpt lat="45.24142" lon="5.5837">
        <ele>1518</ele>
        <time>2019-06-19T22:48:10Z</time>
      </trkpt>
      <trkpt lat="45.24142" lon="5.58429">
        <ele>1517</ele>
        <time>2019-06-19T22:48:20Z</time>
      </trkpt>
      <trkpt lat="45.2412" lon="5.58479">
        <ele>1515</ele>
        <time>2019-06-19T22:48:30Z</time>
      </trkpt>
      <trkpt lat="45.24104" lon="5.58503">
        <ele>1513</ele>
        <time>2019-06-19T22:48:35Z</time>
      </trkpt>
      <trkpt lat="45.24024" lon="5.5851">
        <ele>1505</ele>
        <time>2019-06-19T22:48:54Z</time>
      </trkpt>
      <trkpt lat="45.23985" lon="5.58517">
        <ele>1501</ele>
        <time>2019-06-19T22:49:03Z</time>
      </trkpt>
      <trkpt lat="45.23968" lon="5.58539">
        <ele>1504</ele>
        <time>2019-06-19T22:49:08Z</time>
      </trkpt>
      <trkpt lat="45.2393" lon="5.58574">
        <ele>1508</ele>
        <time>2019-06-19T22:49:19Z</time>
      </trkpt>
      <trkpt lat="45.23886" lon="5.58607">
        <ele>1512</ele>
        <time>2019-06-19T22:49:31Z</time>
      </trkpt>
      <trkpt lat="45.2383" lon="5.58621">
        <ele>1509</ele>
        <time>2019-06-19T22:49:44Z</time>
      </trkpt>
      <trkpt lat="45.23799" lon="5.58654">
        <ele>1513</ele>
        <time>2019-06-19T22:49:53Z</time>
      </trkpt>
      <trkpt lat="45.23778" lon="5.58688">
        <ele>1517</ele>
        <time>2019-06-19T22:50:00Z</time>
      </trkpt>
      <trkpt lat="45.23765" lon="5.58726">
        <ele>1521</ele>
        <time>2019-06-19T22:50:07Z</time>
      </trkpt>
      <trkpt lat="45.23757" lon="5.58799">
        <ele>1527</ele>
        <time>2019-06-19T22:50:19Z</time>
      </trkpt>
      <trkpt lat="45.23768" lon="5.58874">
        <ele>1531</ele>
        <time>2019-06-19T22:50:32Z</time>
      </trkpt>
      <trkpt lat="45.23756" lon="5.58906">
        <ele>1535</ele>
        <time>2019-06-19T22:50:38Z</time>
      </trkpt>
      <trkpt lat="45.23618" lon="5.59041">
        <ele>1538</ele>
        <time>2019-06-19T22:51:17Z</time>
      </trkpt>
      <trkpt lat="45.23604" lon="5.59047">
        <ele>1538</ele>
        <time>2019-06-19T22:51:21Z</time>
      </trkpt>
      <trkpt lat="45.23596" lon="5.59056">
        <ele>1539</ele>
        <time>2019-06-19T22:51:23Z</time>
      </trkpt>
      <trkpt lat="45.23579" lon="5.59092">
        <ele>1547</ele>
        <time>2019-06-19T22:51:30Z</time>
      </trkpt>
      <trkpt lat="45.23585" lon="5.59095">
        <ele>1548</ele>
        <time>2019-06-19T22:51:32Z</time>
      </trkpt>
      <trkpt lat="45.23596" lon="5.59092">
        <ele>1548</ele>
        <time>2019-06-19T22:51:34Z</time>
      </trkpt>
      <trkpt lat="45.23635" lon="5.5909">
        <ele>1549</ele>
        <time>2019-06-19T22:51:43Z</time>
      </trkpt>
      <trkpt lat="45.23641" lon="5.59111">
        <ele>1549</ele>
        <time>2019-06-19T22:51:47Z</time>
      </trkpt>
      <trkpt lat="45.23636" lon="5.59117">
        <ele>1549</ele>
        <time>2019-06-19T22:51:49Z</time>
      </trkpt>
      <trkpt lat="45.23616" lon="5.59131">
        <ele>1551</ele>
        <time>2019-06-19T22:51:54Z</time>
      </trkpt>
      <trkpt lat="45.23583" lon="5.59168">
        <ele>1561</ele>
        <time>2019-06-19T22:52:04Z</time>
      </trkpt>
      <trkpt lat="45.23572" lon="5.59177">
        <ele>1562</ele>
        <time>2019-06-19T22:52:07Z</time>
      </trkpt>
      <trkpt lat="45.2357" lon="5.59181">
        <ele>1563</ele>
        <time>2019-06-19T22:52:07Z</time>
      </trkpt>
      <trkpt lat="45.23573" lon="5.59193">
        <ele>1564</ele>
        <time>2019-06-19T22:52:09Z</time>
      </trkpt>
      <trkpt lat="45.23586" lon="5.59206">
        <ele>1564</ele>
        <time>2019-06-19T22:52:13Z</time>
      </trkpt>
      <trkpt lat="45.23586" lon="5.59213">
        <ele>1565</ele>
        <time>2019-06-19T22:52:14Z</time>
      </trkpt>
      <trkpt lat="45.23581" lon="5.59226">
        <ele>1569</ele>
        <time>2019-06-19T22:52:17Z</time>
      </trkpt>
      <trkpt lat="45.23579" lon="5.59229">
        <ele>1569</ele>
        <time>2019-06-19T22:52:17Z</time>
      </trkpt>
      <trkpt lat="45.23522" lon="5.59247">
        <ele>1573</ele>
        <time>2019-06-19T22:52:31Z</time>
      </trkpt>
      <trkpt lat="45.23517" lon="5.59252">
        <ele>1574</ele>
        <time>2019-06-19T22:52:32Z</time>
      </trkpt>
      <trkpt lat="45.23474" lon="5.59263">
        <ele>1576</ele>
        <time>2019-06-19T22:52:43Z</time>
      </trkpt>
      <trkpt lat="45.23458" lon="5.59264">
        <ele>1576</ele>
        <time>2019-06-19T22:52:46Z</time>
      </trkpt>
      <trkpt lat="45.23436" lon="5.59285">
        <ele>1579</ele>
        <time>2019-06-19T22:52:53Z</time>
      </trkpt>
      <trkpt lat="45.23449" lon="5.59326">
        <ele>1581</ele>
        <time>2019-06-19T22:53:00Z</time>
      </trkpt>
      <trkpt lat="45.23469" lon="5.59352">
        <ele>1583</ele>
        <time>2019-06-19T22:53:06Z</time>
      </trkpt>
      <trkpt lat="45.2349" lon="5.59372">
        <ele>1584</ele>
        <time>2019-06-19T22:53:12Z</time>
      </trkpt>
      <trkpt lat="45.2353" lon="5.59417">
        <ele>1582</ele>
        <time>2019-06-19T22:53:24Z</time>
      </trkpt>
      <trkpt lat="45.23546" lon="5.59448">
        <ele>1584</ele>
        <time>2019-06-19T22:53:30Z</time>
      </trkpt>
      <trkpt lat="45.23558" lon="5.59488">
        <ele>1588</ele>
        <time>2019-06-19T22:53:38Z</time>
      </trkpt>
      <trkpt lat="45.23525" lon="5.59493">
        <ele>1598</ele>
        <time>2019-06-19T22:53:45Z</time>
      </trkpt>
      <trkpt lat="45.23502" lon="5.595">
        <ele>1605</ele>
        <time>2019-06-19T22:53:51Z</time>
      </trkpt>
      <trkpt lat="45.23477" lon="5.59484">
        <ele>1604</ele>
        <time>2019-06-19T22:53:57Z</time>
      </trkpt>
      <trkpt lat="45.23465" lon="5.59479">
        <ele>1603</ele>
        <time>2019-06-19T22:54:00Z</time>
      </trkpt>
      <trkpt lat="45.23455" lon="5.59479">
        <ele>1604</ele>
        <time>2019-06-19T22:54:03Z</time>
      </trkpt>
      <trkpt lat="45.23448" lon="5.59481">
        <ele>1605</ele>
        <time>2019-06-19T22:54:04Z</time>
      </trkpt>
      <trkpt lat="45.23426" lon="5.59506">
        <ele>1610</ele>
        <time>2019-06-19T22:54:11Z</time>
      </trkpt>
      <trkpt lat="45.23399" lon="5.59544">
        <ele>1617</ele>
        <time>2019-06-19T22:54:20Z</time>
      </trkpt>
      <trkpt lat="45.23357" lon="5.5954">
        <ele>1618</ele>
        <time>2019-06-19T22:54:29Z</time>
      </trkpt>
      <trkpt lat="45.23344" lon="5.59549">
        <ele>1619</ele>
        <time>2019-06-19T22:54:33Z</time>
      </trkpt>
      <trkpt lat="45.23335" lon="5.59546">
        <ele>1619</ele>
        <time>2019-06-19T22:54:35Z</time>
      </trkpt>
      <trkpt lat="45.23286" lon="5.59507">
        <ele>1616</ele>
        <time>2019-06-19T22:54:48Z</time>
      </trkpt>
      <trkpt lat="45.2327" lon="5.59504">
        <ele>1616</ele>
        <time>2019-06-19T22:54:52Z</time>
      </trkpt>
      <trkpt lat="45.23264" lon="5.59505">
        <ele>1617</ele>
        <time>2019-06-19T22:54:53Z</time>
      </trkpt>
      <trkpt lat="45.23261" lon="5.59511">
        <ele>1617</ele>
        <time>2019-06-19T22:54:55Z</time>
      </trkpt>
      <trkpt lat="45.23233" lon="5.59524">
        <ele>1618</ele>
        <time>2019-06-19T22:55:01Z</time>
      </trkpt>
      <trkpt lat="45.23211" lon="5.59546">
        <ele>1618</ele>
        <time>2019-06-19T22:55:08Z</time>
      </trkpt>
      <trkpt lat="45.23201" lon="5.59546">
        <ele>1617</ele>
        <time>2019-06-19T22:55:10Z</time>
      </trkpt>
      <trkpt lat="45.2317" lon="5.59533">
        <ele>1617</ele>
        <time>2019-06-19T22:55:18Z</time>
      </trkpt>
      <trkpt lat="45.23159" lon="5.59526">
        <ele>1616</ele>
        <time>2019-06-19T22:55:20Z</time>
      </trkpt>
      <trkpt lat="45.23151" lon="5.59515">
        <ele>1615</ele>
        <time>2019-06-19T22:55:23Z</time>
      </trkpt>
      <trkpt lat="45.23119" lon="5.59444">
        <ele>1610</ele>
        <time>2019-06-19T22:55:37Z</time>
      </trkpt>
      <trkpt lat="45.2311" lon="5.5943">
        <ele>1609</ele>
        <time>2019-06-19T22:55:40Z</time>
      </trkpt>
      <trkpt lat="45.23099" lon="5.5942">
        <ele>1609</ele>
        <time>2019-06-19T22:55:43Z</time>
      </trkpt>
      <trkpt lat="45.23087" lon="5.59414">
        <ele>1609</ele>
        <time>2019-06-19T22:55:46Z</time>
      </trkpt>
      <trkpt lat="45.23051" lon="5.59404">
        <ele>1609</ele>
        <time>2019-06-19T22:55:55Z</time>
      </trkpt>
      <trkpt lat="45.23033" lon="5.59388">
        <ele>1609</ele>
        <time>2019-06-19T22:56:00Z</time>
      </trkpt>
      <trkpt lat="45.23013" lon="5.5938">
        <ele>1610</ele>
        <time>2019-06-19T22:56:04Z</time>
      </trkpt>
      <trkpt lat="45.22992" lon="5.59359">
        <ele>1611</ele>
        <time>2019-06-19T22:56:10Z</time>
      </trkpt>
      <trkpt lat="45.2297" lon="5.59361">
        <ele>1611</ele>
        <time>2019-06-19T22:56:16Z</time>
      </trkpt>
      <trkpt lat="45.22952" lon="5.59351">
        <ele>1611</ele>
        <time>2019-06-19T22:56:20Z</time>
      </trkpt>
      <trkpt lat="45.22932" lon="5.5936">
        <ele>1611</ele>
        <time>2019-06-19T22:56:25Z</time>
      </trkpt>
      <trkpt lat="45.22896" lon="5.59383">
        <ele>1612</ele>
        <time>2019-06-19T22:56:34Z</time>
      </trkpt>
      <trkpt lat="45.2286" lon="5.59384">
        <ele>1613</ele>
        <time>2019-06-19T22:56:43Z</time>
      </trkpt>
      <trkpt lat="45.22834" lon="5.59372">
        <ele>1614</ele>
        <time>2019-06-19T22:56:49Z</time>
      </trkpt>
      <trkpt lat="45.22822" lon="5.59369">
        <ele>1613</ele>
        <time>2019-06-19T22:56:52Z</time>
      </trkpt>
      <trkpt lat="45.22772" lon="5.59378">
        <ele>1611</ele>
        <time>2019-06-19T22:57:04Z</time>
      </trkpt>
      <trkpt lat="45.22747" lon="5.59389">
        <ele>1610</ele>
        <time>2019-06-19T22:57:10Z</time>
      </trkpt>
      <trkpt lat="45.22731" lon="5.59401">
        <ele>1610</ele>
        <time>2019-06-19T22:57:14Z</time>
      </trkpt>
      <trkpt lat="45.22722" lon="5.59402">
        <ele>1610</ele>
        <time>2019-06-19T22:57:16Z</time>
      </trkpt>
      <trkpt lat="45.22714" lon="5.594">
        <ele>1610</ele>
        <time>2019-06-19T22:57:18Z</time>
      </trkpt>
      <trkpt lat="45.22699" lon="5.59389">
        <ele>1610</ele>
        <time>2019-06-19T22:57:22Z</time>
      </trkpt>
      <trkpt lat="45.2268" lon="5.59381">
        <ele>1610</ele>
        <time>2019-06-19T22:57:26Z</time>
      </trkpt>
      <trkpt lat="45.2266" lon="5.59392">
        <ele>1610</ele>
        <time>2019-06-19T22:57:31Z</time>
      </trkpt>
      <trkpt lat="45.2265" lon="5.59394">
        <ele>1610</ele>
        <time>2019-06-19T22:57:34Z</time>
      </trkpt>
      <trkpt lat="45.22627" lon="5.59395">
        <ele>1611</ele>
        <time>2019-06-19T22:57:39Z</time>
      </trkpt>
      <trkpt lat="45.22583" lon="5.59389">
        <ele>1612</ele>
        <time>2019-06-19T22:57:50Z</time>
      </trkpt>
      <trkpt lat="45.22549" lon="5.59395">
        <ele>1613</ele>
        <time>2019-06-19T22:57:58Z</time>
      </trkpt>
      <trkpt lat="45.22498" lon="5.59383">
        <ele>1614</ele>
        <time>2019-06-19T22:58:10Z</time>
      </trkpt>
      <trkpt lat="45.22446" lon="5.59382">
        <ele>1616</ele>
        <time>2019-06-19T22:58:22Z</time>
      </trkpt>
      <trkpt lat="45.22405" lon="5.5937">
        <ele>1618</ele>
        <time>2019-06-19T22:58:32Z</time>
      </trkpt>
      <trkpt lat="45.2235" lon="5.59378">
        <ele>1619</ele>
        <time>2019-06-19T22:58:44Z</time>
      </trkpt>
      <trkpt lat="45.22307" lon="5.59362">
        <ele>1621</ele>
        <time>2019-06-19T22:58:55Z</time>
      </trkpt>
      <trkpt lat="45.22266" lon="5.59331">
        <ele>1621</ele>
        <time>2019-06-19T22:59:06Z</time>
      </trkpt>
      <trkpt lat="45.22188" lon="5.5923">
        <ele>1608</ele>
        <time>2019-06-19T22:59:30Z</time>
      </trkpt>
      <trkpt lat="45.22175" lon="5.59223">
        <ele>1607</ele>
        <time>2019-06-19T22:59:34Z</time>
      </trkpt>
      <trkpt lat="45.22099" lon="5.59237">
        <ele>1608</ele>
        <time>2019-06-19T22:59:51Z</time>
      </trkpt>
      <trkpt lat="45.22065" lon="5.59231">
        <ele>1606</ele>
        <time>2019-06-19T22:59:59Z</time>
      </trkpt>
      <trkpt lat="45.21969" lon="5.59256">
        <ele>1603</ele>
        <time>2019-06-19T23:00:22Z</time>
      </trkpt>
      <trkpt lat="45.21944" lon="5.59253">
        <ele>1601</ele>
        <time>2019-06-19T23:00:28Z</time>
      </trkpt>
      <trkpt lat="45.21914" lon="5.59262">
        <ele>1599</ele>
        <time>2019-06-19T23:00:35Z</time>
      </trkpt>
      <trkpt lat="45.21877" lon="5.59267">
        <ele>1599</ele>
        <time>2019-06-19T23:00:44Z</time>
      </trkpt>
      <trkpt lat="45.21827" lon="5.59268">
        <ele>1598</ele>
        <time>2019-06-19T23:00:56Z</time>
      </trkpt>
      <trkpt lat="45.21809" lon="5.59286">
        <ele>1598</ele>
        <time>2019-06-19T23:01:01Z</time>
      </trkpt>
      <trkpt lat="45.21745" lon="5.59401">
        <ele>1589</ele>
        <time>2019-06-19T23:01:25Z</time>
      </trkpt>
      <trkpt lat="45.21733" lon="5.59417">
        <ele>1590</ele>
        <time>2019-06-19T23:01:29Z</time>
      </trkpt>
      <trkpt lat="45.21719" lon="5.59421">
        <ele>1591</ele>
        <time>2019-06-19T23:01:32Z</time>
      </trkpt>
      <trkpt lat="45.21671" lon="5.59401">
        <ele>1597</ele>
        <time>2019-06-19T23:01:44Z</time>
      </trkpt>
      <trkpt lat="45.21659" lon="5.59336">
        <ele>1603</ele>
        <time>2019-06-19T23:01:55Z</time>
      </trkpt>
      <trkpt lat="45.21656" lon="5.59306">
        <ele>1603</ele>
        <time>2019-06-19T23:02:00Z</time>
      </trkpt>
      <trkpt lat="45.21642" lon="5.59264">
        <ele>1606</ele>
        <time>2019-06-19T23:02:07Z</time>
      </trkpt>
      <trkpt lat="45.21619" lon="5.59222">
        <ele>1611</ele>
        <time>2019-06-19T23:02:16Z</time>
      </trkpt>
      <trkpt lat="45.21598" lon="5.59199">
        <ele>1613</ele>
        <time>2019-06-19T23:02:22Z</time>
      </trkpt>
      <trkpt lat="45.2159" lon="5.59194">
        <ele>1614</ele>
        <time>2019-06-19T23:02:24Z</time>
      </trkpt>
      <trkpt lat="45.21585" lon="5.59182">
        <ele>1614</ele>
        <time>2019-06-19T23:02:27Z</time>
      </trkpt>
      <trkpt lat="45.21577" lon="5.59171">
        <ele>1614</ele>
        <time>2019-06-19T23:02:29Z</time>
      </trkpt>
      <trkpt lat="45.21564" lon="5.59161">
        <ele>1615</ele>
        <time>2019-06-19T23:02:33Z</time>
      </trkpt>
      <trkpt lat="45.21539" lon="5.59163">
        <ele>1618</ele>
        <time>2019-06-19T23:02:39Z</time>
      </trkpt>
      <trkpt lat="45.21534" lon="5.59161">
        <ele>1619</ele>
        <time>2019-06-19T23:02:40Z</time>
      </trkpt>
      <trkpt lat="45.2148" lon="5.59166">
        <ele>1624</ele>
        <time>2019-06-19T23:02:52Z</time>
      </trkpt>
      <trkpt lat="45.2147" lon="5.59158">
        <ele>1625</ele>
        <time>2019-06-19T23:02:55Z</time>
      </trkpt>
      <trkpt lat="45.21448" lon="5.59127">
        <ele>1627</ele>
        <time>2019-06-19T23:03:02Z</time>
      </trkpt>
      <trkpt lat="45.21426" lon="5.59086">
        <ele>1627</ele>
        <time>2019-06-19T23:03:11Z</time>
      </trkpt>
      <trkpt lat="45.21378" lon="5.59051">
        <ele>1629</ele>
        <time>2019-06-19T23:03:23Z</time>
      </trkpt>
      <trkpt lat="45.21347" lon="5.59019">
        <ele>1631</ele>
        <time>2019-06-19T23:03:32Z</time>
      </trkpt>
      <trkpt lat="45.21314" lon="5.58997">
        <ele>1633</ele>
        <time>2019-06-19T23:03:41Z</time>
      </trkpt>
      <trkpt lat="45.21278" lon="5.59014">
        <ele>1635</ele>
        <time>2019-06-19T23:03:50Z</time>
      </trkpt>
      <trkpt lat="45.21241" lon="5.59025">
        <ele>1636</ele>
        <time>2019-06-19T23:03:59Z</time>
      </trkpt>
      <trkpt lat="45.21211" lon="5.59029">
        <ele>1637</ele>
        <time>2019-06-19T23:04:06Z</time>
      </trkpt>
      <trkpt lat="45.21188" lon="5.59027">
        <ele>1637</ele>
        <time>2019-06-19T23:04:11Z</time>
      </trkpt>
      <trkpt lat="45.2116" lon="5.59019">
        <ele>1637</ele>
        <time>2019-06-19T23:04:18Z</time>
      </trkpt>
      <trkpt lat="45.2113" lon="5.58999">
        <ele>1635</ele>
        <time>2019-06-19T23:04:25Z</time>
      </trkpt>
      <trkpt lat="45.21113" lon="5.58981">
        <ele>1633</ele>
        <time>2019-06-19T23:04:30Z</time>
      </trkpt>
      <trkpt lat="45.2109" lon="5.58951">
        <ele>1630</ele>
        <time>2019-06-19T23:04:38Z</time>
      </trkpt>
      <trkpt lat="45.21084" lon="5.58971">
        <ele>1629</ele>
        <time>2019-06-19T23:04:41Z</time>
      </trkpt>
      <trkpt lat="45.21058" lon="5.59031">
        <ele>1626</ele>
        <time>2019-06-19T23:04:53Z</time>
      </trkpt>
      <trkpt lat="45.21046" lon="5.59045">
        <ele>1626</ele>
        <time>2019-06-19T23:04:57Z</time>
      </trkpt>
      <trkpt lat="45.21024" lon="5.59054">
        <ele>1625</ele>
        <time>2019-06-19T23:05:02Z</time>
      </trkpt>
      <trkpt lat="45.21016" lon="5.59062">
        <ele>1625</ele>
        <time>2019-06-19T23:05:04Z</time>
      </trkpt>
      <trkpt lat="45.20995" lon="5.59125">
        <ele>1625</ele>
        <time>2019-06-19T23:05:16Z</time>
      </trkpt>
      <trkpt lat="45.20998" lon="5.59159">
        <ele>1624</ele>
        <time>2019-06-19T23:05:21Z</time>
      </trkpt>
      <trkpt lat="45.20993" lon="5.59172">
        <ele>1624</ele>
        <time>2019-06-19T23:05:24Z</time>
      </trkpt>
      <trkpt lat="45.2099" lon="5.59174">
        <ele>1623</ele>
        <time>2019-06-19T23:05:24Z</time>
      </trkpt>
      <trkpt lat="45.20947" lon="5.59177">
        <ele>1622</ele>
        <time>2019-06-19T23:05:35Z</time>
      </trkpt>
      <trkpt lat="45.20924" lon="5.5916">
        <ele>1622</ele>
        <time>2019-06-19T23:05:41Z</time>
      </trkpt>
      <trkpt lat="45.20895" lon="5.59129">
        <ele>1623</ele>
        <time>2019-06-19T23:05:49Z</time>
      </trkpt>
      <trkpt lat="45.20883" lon="5.59121">
        <ele>1623</ele>
        <time>2019-06-19T23:05:52Z</time>
      </trkpt>
      <trkpt lat="45.20852" lon="5.59107">
        <ele>1623</ele>
        <time>2019-06-19T23:06:00Z</time>
      </trkpt>
      <trkpt lat="45.2084" lon="5.59106">
        <ele>1623</ele>
        <time>2019-06-19T23:06:03Z</time>
      </trkpt>
      <trkpt lat="45.20801" lon="5.59123">
        <ele>1623</ele>
        <time>2019-06-19T23:06:12Z</time>
      </trkpt>
      <trkpt lat="45.20733" lon="5.5916">
        <ele>1623</ele>
        <time>2019-06-19T23:06:29Z</time>
      </trkpt>
      <trkpt lat="45.20725" lon="5.59173">
        <ele>1623</ele>
        <time>2019-06-19T23:06:32Z</time>
      </trkpt>
      <trkpt lat="45.20687" lon="5.59218">
        <ele>1621</ele>
        <time>2019-06-19T23:06:43Z</time>
      </trkpt>
      <trkpt lat="45.2065" lon="5.59216">
        <ele>1623</ele>
        <time>2019-06-19T23:06:52Z</time>
      </trkpt>
      <trkpt lat="45.20622" lon="5.59218">
        <ele>1624</ele>
        <time>2019-06-19T23:06:59Z</time>
      </trkpt>
      <trkpt lat="45.20592" lon="5.59233">
        <ele>1626</ele>
        <time>2019-06-19T23:07:06Z</time>
      </trkpt>
      <trkpt lat="45.20555" lon="5.59256">
        <ele>1627</ele>
        <time>2019-06-19T23:07:16Z</time>
      </trkpt>
      <trkpt lat="45.20523" lon="5.59282">
        <ele>1626</ele>
        <time>2019-06-19T23:07:24Z</time>
      </trkpt>
      <trkpt lat="45.20491" lon="5.59301">
        <ele>1627</ele>
        <time>2019-06-19T23:07:32Z</time>
      </trkpt>
      <trkpt lat="45.2046" lon="5.59311">
        <ele>1626</ele>
        <time>2019-06-19T23:07:40Z</time>
      </trkpt>
      <trkpt lat="45.20447" lon="5.59305">
        <ele>1626</ele>
        <time>2019-06-19T23:07:43Z</time>
      </trkpt>
      <trkpt lat="45.20414" lon="5.59307">
        <ele>1626</ele>
        <time>2019-06-19T23:07:51Z</time>
      </trkpt>
      <trkpt lat="45.20372" lon="5.59297">
        <ele>1627</ele>
        <time>2019-06-19T23:08:01Z</time>
      </trkpt>
      <trkpt lat="45.20297" lon="5.59273">
        <ele>1630</ele>
        <time>2019-06-19T23:08:18Z</time>
      </trkpt>
      <trkpt lat="45.20266" lon="5.59268">
        <ele>1632</ele>
        <time>2019-06-19T23:08:26Z</time>
      </trkpt>
      <trkpt lat="45.20245" lon="5.59259">
        <ele>1633</ele>
        <time>2019-06-19T23:08:31Z</time>
      </trkpt>
      <trkpt lat="45.20215" lon="5.59252">
        <ele>1634</ele>
        <time>2019-06-19T23:08:38Z</time>
      </trkpt>
      <trkpt lat="45.20163" lon="5.59232">
        <ele>1634</ele>
        <time>2019-06-19T23:08:51Z</time>
      </trkpt>
      <trkpt lat="45.20113" lon="5.59222">
        <ele>1632</ele>
        <time>2019-06-19T23:09:02Z</time>
      </trkpt>
      <trkpt lat="45.20069" lon="5.59219">
        <ele>1631</ele>
        <time>2019-06-19T23:09:13Z</time>
      </trkpt>
      <trkpt lat="45.20039" lon="5.59206">
        <ele>1630</ele>
        <time>2019-06-19T23:09:20Z</time>
      </trkpt>
      <trkpt lat="45.19968" lon="5.59187">
        <ele>1631</ele>
        <time>2019-06-19T23:09:37Z</time>
      </trkpt>
      <trkpt lat="45.19943" lon="5.59188">
        <ele>1630</ele>
        <time>2019-06-19T23:09:43Z</time>
      </trkpt>
      <trkpt lat="45.19925" lon="5.59184">
        <ele>1630</ele>
        <time>2019-06-19T23:09:47Z</time>
      </trkpt>
      <trkpt lat="45.19876" lon="5.59179">
        <ele>1631</ele>
        <time>2019-06-19T23:09:58Z</time>
      </trkpt>
      <trkpt lat="45.19857" lon="5.59187">
        <ele>1631</ele>
        <time>2019-06-19T23:10:03Z</time>
      </trkpt>
      <trkpt lat="45.19807" lon="5.59185">
        <ele>1633</ele>
        <time>2019-06-19T23:10:15Z</time>
      </trkpt>
      <trkpt lat="45.19779" lon="5.59202">
        <ele>1634</ele>
        <time>2019-06-19T23:10:22Z</time>
      </trkpt>
      <trkpt lat="45.19768" lon="5.59196">
        <ele>1635</ele>
        <time>2019-06-19T23:10:25Z</time>
      </trkpt>
      <trkpt lat="45.19729" lon="5.59187">
        <ele>1639</ele>
        <time>2019-06-19T23:10:34Z</time>
      </trkpt>
      <trkpt lat="45.19699" lon="5.5917">
        <ele>1646</ele>
        <time>2019-06-19T23:10:41Z</time>
      </trkpt>
      <trkpt lat="45.19658" lon="5.59156">
        <ele>1652</ele>
        <time>2019-06-19T23:10:51Z</time>
      </trkpt>
      <trkpt lat="45.19603" lon="5.59168">
        <ele>1656</ele>
        <time>2019-06-19T23:11:04Z</time>
      </trkpt>
      <trkpt lat="45.19454" lon="5.59218">
        <ele>1655</ele>
        <time>2019-06-19T23:11:40Z</time>
      </trkpt>
      <trkpt lat="45.19432" lon="5.59237">
        <ele>1654</ele>
        <time>2019-06-19T23:11:46Z</time>
      </trkpt>
      <trkpt lat="45.19419" lon="5.59241">
        <ele>1654</ele>
        <time>2019-06-19T23:11:49Z</time>
      </trkpt>
      <trkpt lat="45.19373" lon="5.59244">
        <ele>1649</ele>
        <time>2019-06-19T23:12:00Z</time>
      </trkpt>
      <trkpt lat="45.19318" lon="5.59233">
        <ele>1643</ele>
        <time>2019-06-19T23:12:13Z</time>
      </trkpt>
      <trkpt lat="45.193" lon="5.59226">
        <ele>1642</ele>
        <time>2019-06-19T23:12:17Z</time>
      </trkpt>
      <trkpt lat="45.19274" lon="5.59221">
        <ele>1641</ele>
        <time>2019-06-19T23:12:23Z</time>
      </trkpt>
      <trkpt lat="45.19215" lon="5.59201">
        <ele>1643</ele>
        <time>2019-06-19T23:12:37Z</time>
      </trkpt>
      <trkpt lat="45.19168" lon="5.59191">
        <ele>1650</ele>
        <time>2019-06-19T23:12:49Z</time>
      </trkpt>
      <trkpt lat="45.19102" lon="5.59164">
        <ele>1666</ele>
        <time>2019-06-19T23:13:05Z</time>
      </trkpt>
      <trkpt lat="45.19091" lon="5.59163">
        <ele>1668</ele>
        <time>2019-06-19T23:13:07Z</time>
      </trkpt>
      <trkpt lat="45.19063" lon="5.59151">
        <ele>1671</ele>
        <time>2019-06-19T23:13:14Z</time>
      </trkpt>
      <trkpt lat="45.18999" lon="5.59137">
        <ele>1679</ele>
        <time>2019-06-19T23:13:29Z</time>
      </trkpt>
      <trkpt lat="45.18986" lon="5.59139">
        <ele>1680</ele>
        <time>2019-06-19T23:13:32Z</time>
      </trkpt>
      <trkpt lat="45.18962" lon="5.59135">
        <ele>1682</ele>
        <time>2019-06-19T23:13:38Z</time>
      </trkpt>
      <trkpt lat="45.18936" lon="5.59134">
        <ele>1684</ele>
        <time>2019-06-19T23:13:44Z</time>
      </trkpt>
      <trkpt lat="45.18886" lon="5.59139">
        <ele>1687</ele>
        <time>2019-06-19T23:13:56Z</time>
      </trkpt>
      <trkpt lat="45.18873" lon="5.59136">
        <ele>1689</ele>
        <time>2019-06-19T23:13:59Z</time>
      </trkpt>
      <trkpt lat="45.18851" lon="5.59138">
        <ele>1690</ele>
        <time>2019-06-19T23:14:04Z</time>
      </trkpt>
      <trkpt lat="45.18817" lon="5.5915">
        <ele>1692</ele>
        <time>2019-06-19T23:14:12Z</time>
      </trkpt>
      <trkpt lat="45.18808" lon="5.59156">
        <ele>1692</ele>
        <time>2019-06-19T23:14:14Z</time>
      </trkpt>
      <trkpt lat="45.18797" lon="5.59169">
        <ele>1692</ele>
        <time>2019-06-19T23:14:18Z</time>
      </trkpt>
      <trkpt lat="45.18791" lon="5.59183">
        <ele>1689</ele>
        <time>2019-06-19T23:14:20Z</time>
      </trkpt>
      <trkpt lat="45.18769" lon="5.59193">
        <ele>1692</ele>
        <time>2019-06-19T23:14:26Z</time>
      </trkpt>
      <trkpt lat="45.18755" lon="5.59194">
        <ele>1696</ele>
        <time>2019-06-19T23:14:29Z</time>
      </trkpt>
      <trkpt lat="45.18725" lon="5.59221">
        <ele>1694</ele>
        <time>2019-06-19T23:14:37Z</time>
      </trkpt>
      <trkpt lat="45.18706" lon="5.59243">
        <ele>1692</ele>
        <time>2019-06-19T23:14:43Z</time>
      </trkpt>
      <trkpt lat="45.18675" lon="5.5926">
        <ele>1690</ele>
        <time>2019-06-19T23:14:51Z</time>
      </trkpt>
      <trkpt lat="45.18655" lon="5.59249">
        <ele>1692</ele>
        <time>2019-06-19T23:14:56Z</time>
      </trkpt>
      <trkpt lat="45.18636" lon="5.59232">
        <ele>1691</ele>
        <time>2019-06-19T23:15:01Z</time>
      </trkpt>
      <trkpt lat="45.18638" lon="5.59228">
        <ele>1693</ele>
        <time>2019-06-19T23:15:02Z</time>
      </trkpt>
      <trkpt lat="45.18608" lon="5.59182">
        <ele>1702</ele>
        <time>2019-06-19T23:15:12Z</time>
      </trkpt>
      <trkpt lat="45.18595" lon="5.59167">
        <ele>1705</ele>
        <time>2019-06-19T23:15:16Z</time>
      </trkpt>
      <trkpt lat="45.18582" lon="5.5916">
        <ele>1704</ele>
        <time>2019-06-19T23:15:19Z</time>
      </trkpt>
      <trkpt lat="45.18573" lon="5.5915">
        <ele>1701</ele>
        <time>2019-06-19T23:15:22Z</time>
      </trkpt>
      <trkpt lat="45.18565" lon="5.59113">
        <ele>1704</ele>
        <time>2019-06-19T23:15:28Z</time>
      </trkpt>
      <trkpt lat="45.18556" lon="5.5911">
        <ele>1701</ele>
        <time>2019-06-19T23:15:31Z</time>
      </trkpt>
      <trkpt lat="45.18545" lon="5.59102">
        <ele>1699</ele>
        <time>2019-06-19T23:15:33Z</time>
      </trkpt>
      <trkpt lat="45.18501" lon="5.59045">
        <ele>1695</ele>
        <time>2019-06-19T23:15:47Z</time>
      </trkpt>
      <trkpt lat="45.18481" lon="5.59025">
        <ele>1689</ele>
        <time>2019-06-19T23:15:53Z</time>
      </trkpt>
      <trkpt lat="45.18468" lon="5.58983">
        <ele>1690</ele>
        <time>2019-06-19T23:16:01Z</time>
      </trkpt>
      <trkpt lat="45.18429" lon="5.58937">
        <ele>1685</ele>
        <time>2019-06-19T23:16:12Z</time>
      </trkpt>
      <trkpt lat="45.18422" lon="5.5893">
        <ele>1684</ele>
        <time>2019-06-19T23:16:14Z</time>
      </trkpt>
      <trkpt lat="45.18411" lon="5.58924">
        <ele>1682</ele>
        <time>2019-06-19T23:16:17Z</time>
      </trkpt>
      <trkpt lat="45.18384" lon="5.58897">
        <ele>1676</ele>
        <time>2019-06-19T23:16:25Z</time>
      </trkpt>
      <trkpt lat="45.18361" lon="5.58854">
        <ele>1676</ele>
        <time>2019-06-19T23:16:34Z</time>
      </trkpt>
      <trkpt lat="45.18342" lon="5.58835">
        <ele>1677</ele>
        <time>2019-06-19T23:16:39Z</time>
      </trkpt>
      <trkpt lat="45.18324" lon="5.58812">
        <ele>1674</ele>
        <time>2019-06-19T23:16:45Z</time>
      </trkpt>
      <trkpt lat="45.18269" lon="5.58792">
        <ele>1662</ele>
        <time>2019-06-19T23:16:58Z</time>
      </trkpt>
      <trkpt lat="45.18253" lon="5.5878">
        <ele>1661</ele>
        <time>2019-06-19T23:17:02Z</time>
      </trkpt>
      <trkpt lat="45.1824" lon="5.58757">
        <ele>1664</ele>
        <time>2019-06-19T23:17:07Z</time>
      </trkpt>
      <trkpt lat="45.182" lon="5.58737">
        <ele>1659</ele>
        <time>2019-06-19T23:17:17Z</time>
      </trkpt>
      <trkpt lat="45.18129" lon="5.58686">
        <ele>1659</ele>
        <time>2019-06-19T23:17:36Z</time>
      </trkpt>
      <trkpt lat="45.18107" lon="5.58674">
        <ele>1663</ele>
        <time>2019-06-19T23:17:41Z</time>
      </trkpt>
      <trkpt lat="45.18078" lon="5.58651">
        <ele>1665</ele>
        <time>2019-06-19T23:17:49Z</time>
      </trkpt>
      <trkpt lat="45.1803" lon="5.58622">
        <ele>1657</ele>
        <time>2019-06-19T23:18:01Z</time>
      </trkpt>
      <trkpt lat="45.17982" lon="5.58588">
        <ele>1657</ele>
        <time>2019-06-19T23:18:14Z</time>
      </trkpt>
      <trkpt lat="45.17967" lon="5.58584">
        <ele>1658</ele>
        <time>2019-06-19T23:18:17Z</time>
      </trkpt>
      <trkpt lat="45.17939" lon="5.58582">
        <ele>1658</ele>
        <time>2019-06-19T23:18:24Z</time>
      </trkpt>
      <trkpt lat="45.17908" lon="5.58574">
        <ele>1660</ele>
        <time>2019-06-19T23:18:31Z</time>
      </trkpt>
      <trkpt lat="45.17898" lon="5.58574">
        <ele>1661</ele>
        <time>2019-06-19T23:18:34Z</time>
      </trkpt>
      <trkpt lat="45.17879" lon="5.58578">
        <ele>1664</ele>
        <time>2019-06-19T23:18:38Z</time>
      </trkpt>
      <trkpt lat="45.17862" lon="5.58592">
        <ele>1663</ele>
        <time>2019-06-19T23:18:43Z</time>
      </trkpt>
      <trkpt lat="45.17829" lon="5.58611">
        <ele>1661</ele>
        <time>2019-06-19T23:18:51Z</time>
      </trkpt>
      <trkpt lat="45.1781" lon="5.58614">
        <ele>1662</ele>
        <time>2019-06-19T23:18:55Z</time>
      </trkpt>
      <trkpt lat="45.17788" lon="5.58632">
        <ele>1660</ele>
        <time>2019-06-19T23:19:01Z</time>
      </trkpt>
      <trkpt lat="45.17766" lon="5.58638">
        <ele>1661</ele>
        <time>2019-06-19T23:19:07Z</time>
      </trkpt>
      <trkpt lat="45.17739" lon="5.58638">
        <ele>1665</ele>
        <time>2019-06-19T23:19:13Z</time>
      </trkpt>
      <trkpt lat="45.17712" lon="5.58647">
        <ele>1666</ele>
        <time>2019-06-19T23:19:19Z</time>
      </trkpt>
      <trkpt lat="45.1769" lon="5.58647">
        <ele>1669</ele>
        <time>2019-06-19T23:19:24Z</time>
      </trkpt>
      <trkpt lat="45.17684" lon="5.58651">
        <ele>1669</ele>
        <time>2019-06-19T23:19:26Z</time>
      </trkpt>
      <trkpt lat="45.17675" lon="5.58649">
        <ele>1670</ele>
        <time>2019-06-19T23:19:28Z</time>
      </trkpt>
      <trkpt lat="45.17672" lon="5.58645">
        <ele>1671</ele>
        <time>2019-06-19T23:19:29Z</time>
      </trkpt>
      <trkpt lat="45.17617" lon="5.58618">
        <ele>1676</ele>
        <time>2019-06-19T23:19:43Z</time>
      </trkpt>
      <trkpt lat="45.17603" lon="5.58607">
        <ele>1678</ele>
        <time>2019-06-19T23:19:46Z</time>
      </trkpt>
      <trkpt lat="45.17599" lon="5.58601">
        <ele>1680</ele>
        <time>2019-06-19T23:19:48Z</time>
      </trkpt>
      <trkpt lat="45.17527" lon="5.58564">
        <ele>1678</ele>
        <time>2019-06-19T23:20:06Z</time>
      </trkpt>
      <trkpt lat="45.1751" lon="5.58549">
        <ele>1678</ele>
        <time>2019-06-19T23:20:10Z</time>
      </trkpt>
      <trkpt lat="45.175" lon="5.58545">
        <ele>1677</ele>
        <time>2019-06-19T23:20:13Z</time>
      </trkpt>
      <trkpt lat="45.17463" lon="5.58545">
        <ele>1671</ele>
        <time>2019-06-19T23:20:21Z</time>
      </trkpt>
      <trkpt lat="45.17417" lon="5.58516">
        <ele>1671</ele>
        <time>2019-06-19T23:20:33Z</time>
      </trkpt>
      <trkpt lat="45.1741" lon="5.58508">
        <ele>1670</ele>
        <time>2019-06-19T23:20:35Z</time>
      </trkpt>
      <trkpt lat="45.17395" lon="5.585">
        <ele>1667</ele>
        <time>2019-06-19T23:20:39Z</time>
      </trkpt>
      <trkpt lat="45.17371" lon="5.58479">
        <ele>1661</ele>
        <time>2019-06-19T23:20:46Z</time>
      </trkpt>
      <trkpt lat="45.17341" lon="5.58465">
        <ele>1654</ele>
        <time>2019-06-19T23:20:53Z</time>
      </trkpt>
      <trkpt lat="45.17319" lon="5.58449">
        <ele>1651</ele>
        <time>2019-06-19T23:20:59Z</time>
      </trkpt>
      <trkpt lat="45.17307" lon="5.58432">
        <ele>1652</ele>
        <time>2019-06-19T23:21:03Z</time>
      </trkpt>
      <trkpt lat="45.17294" lon="5.58406">
        <ele>1653</ele>
        <time>2019-06-19T23:21:08Z</time>
      </trkpt>
      <trkpt lat="45.17283" lon="5.58397">
        <ele>1650</ele>
        <time>2019-06-19T23:21:11Z</time>
      </trkpt>
      <trkpt lat="45.17259" lon="5.58395">
        <ele>1645</ele>
        <time>2019-06-19T23:21:17Z</time>
      </trkpt>
      <trkpt lat="45.17247" lon="5.58389">
        <ele>1642</ele>
        <time>2019-06-19T23:21:19Z</time>
      </trkpt>
      <trkpt lat="45.17223" lon="5.58385">
        <ele>1637</ele>
        <time>2019-06-19T23:21:25Z</time>
      </trkpt>
      <trkpt lat="45.1721" lon="5.58386">
        <ele>1634</ele>
        <time>2019-06-19T23:21:28Z</time>
      </trkpt>
      <trkpt lat="45.1719" lon="5.58394">
        <ele>1630</ele>
        <time>2019-06-19T23:21:33Z</time>
      </trkpt>
      <trkpt lat="45.17163" lon="5.58394">
        <ele>1625</ele>
        <time>2019-06-19T23:21:39Z</time>
      </trkpt>
      <trkpt lat="45.17155" lon="5.58384">
        <ele>1625</ele>
        <time>2019-06-19T23:21:42Z</time>
      </trkpt>
      <trkpt lat="45.17101" lon="5.5837">
        <ele>1627</ele>
        <time>2019-06-19T23:21:55Z</time>
      </trkpt>
      <trkpt lat="45.17065" lon="5.58355">
        <ele>1635</ele>
        <time>2019-06-19T23:22:03Z</time>
      </trkpt>
      <trkpt lat="45.1703" lon="5.58349">
        <ele>1643</ele>
        <time>2019-06-19T23:22:12Z</time>
      </trkpt>
      <trkpt lat="45.16993" lon="5.58356">
        <ele>1649</ele>
        <time>2019-06-19T23:22:20Z</time>
      </trkpt>
      <trkpt lat="45.16973" lon="5.58377">
        <ele>1647</ele>
        <time>2019-06-19T23:22:26Z</time>
      </trkpt>
      <trkpt lat="45.16921" lon="5.58365">
        <ele>1650</ele>
        <time>2019-06-19T23:22:38Z</time>
      </trkpt>
      <trkpt lat="45.16854" lon="5.58338">
        <ele>1649</ele>
        <time>2019-06-19T23:22:55Z</time>
      </trkpt>
      <trkpt lat="45.16833" lon="5.5834">
        <ele>1647</ele>
        <time>2019-06-19T23:23:00Z</time>
      </trkpt>
      <trkpt lat="45.16793" lon="5.58333">
        <ele>1645</ele>
        <time>2019-06-19T23:23:09Z</time>
      </trkpt>
      <trkpt lat="45.16757" lon="5.58317">
        <ele>1640</ele>
        <time>2019-06-19T23:23:18Z</time>
      </trkpt>
      <trkpt lat="45.16687" lon="5.58302">
        <ele>1640</ele>
        <time>2019-06-19T23:23:34Z</time>
      </trkpt>
      <trkpt lat="45.16519" lon="5.58258">
        <ele>1647</ele>
        <time>2019-06-19T23:24:14Z</time>
      </trkpt>
      <trkpt lat="45.16445" lon="5.58212">
        <ele>1644</ele>
        <time>2019-06-19T23:24:33Z</time>
      </trkpt>
      <trkpt lat="45.16381" lon="5.58134">
        <ele>1645</ele>
        <time>2019-06-19T23:24:53Z</time>
      </trkpt>
      <trkpt lat="45.16376" lon="5.58108">
        <ele>1647</ele>
        <time>2019-06-19T23:24:57Z</time>
      </trkpt>
      <trkpt lat="45.1633" lon="5.58082">
        <ele>1659</ele>
        <time>2019-06-19T23:25:09Z</time>
      </trkpt>
      <trkpt lat="45.1629" lon="5.58062">
        <ele>1658</ele>
        <time>2019-06-19T23:25:19Z</time>
      </trkpt>
      <trkpt lat="45.16179" lon="5.58039">
        <ele>1659</ele>
        <time>2019-06-19T23:25:45Z</time>
      </trkpt>
      <trkpt lat="45.16122" lon="5.58032">
        <ele>1658</ele>
        <time>2019-06-19T23:25:58Z</time>
      </trkpt>
      <trkpt lat="45.15978" lon="5.57996">
        <ele>1654</ele>
        <time>2019-06-19T23:26:32Z</time>
      </trkpt>
      <trkpt lat="45.15904" lon="5.57938">
        <ele>1652</ele>
        <time>2019-06-19T23:26:52Z</time>
      </trkpt>
      <trkpt lat="45.15872" lon="5.579">
        <ele>1651</ele>
        <time>2019-06-19T23:27:02Z</time>
      </trkpt>
      <trkpt lat="45.15764" lon="5.57885">
        <ele>1643</ele>
        <time>2019-06-19T23:27:27Z</time>
      </trkpt>
      <trkpt lat="45.15717" lon="5.57873">
        <ele>1641</ele>
        <time>2019-06-19T23:27:38Z</time>
      </trkpt>
      <trkpt lat="45.15657" lon="5.57851">
        <ele>1638</ele>
        <time>2019-06-19T23:27:53Z</time>
      </trkpt>
      <trkpt lat="45.15632" lon="5.57833">
        <ele>1636</ele>
        <time>2019-06-19T23:27:59Z</time>
      </trkpt>
      <trkpt lat="45.15608" lon="5.57826">
        <ele>1633</ele>
        <time>2019-06-19T23:28:05Z</time>
      </trkpt>
      <trkpt lat="45.15552" lon="5.57833">
        <ele>1632</ele>
        <time>2019-06-19T23:28:18Z</time>
      </trkpt>
      <trkpt lat="45.15528" lon="5.57819">
        <ele>1632</ele>
        <time>2019-06-19T23:28:24Z</time>
      </trkpt>
      <trkpt lat="45.15483" lon="5.57779">
        <ele>1631</ele>
        <time>2019-06-19T23:28:37Z</time>
      </trkpt>
      <trkpt lat="45.1545" lon="5.57774">
        <ele>1630</ele>
        <time>2019-06-19T23:28:45Z</time>
      </trkpt>
      <trkpt lat="45.15402" lon="5.57783">
        <ele>1628</ele>
        <time>2019-06-19T23:28:56Z</time>
      </trkpt>
      <trkpt lat="45.15372" lon="5.57784">
        <ele>1625</ele>
        <time>2019-06-19T23:29:03Z</time>
      </trkpt>
      <trkpt lat="45.15304" lon="5.57757">
        <ele>1619</ele>
        <time>2019-06-19T23:29:19Z</time>
      </trkpt>
      <trkpt lat="45.15261" lon="5.57749">
        <ele>1616</ele>
        <time>2019-06-19T23:29:29Z</time>
      </trkpt>
      <trkpt lat="45.15204" lon="5.57725">
        <ele>1606</ele>
        <time>2019-06-19T23:29:43Z</time>
      </trkpt>
      <trkpt lat="45.15123" lon="5.5768">
        <ele>1593</ele>
        <time>2019-06-19T23:30:04Z</time>
      </trkpt>
      <trkpt lat="45.15093" lon="5.57671">
        <ele>1588</ele>
        <time>2019-06-19T23:30:11Z</time>
      </trkpt>
      <trkpt lat="45.15063" lon="5.57678">
        <ele>1584</ele>
        <time>2019-06-19T23:30:18Z</time>
      </trkpt>
      <trkpt lat="45.15023" lon="5.57691">
        <ele>1580</ele>
        <time>2019-06-19T23:30:28Z</time>
      </trkpt>
      <trkpt lat="45.14965" lon="5.57689">
        <ele>1576</ele>
        <time>2019-06-19T23:30:41Z</time>
      </trkpt>
      <trkpt lat="45.14948" lon="5.57666">
        <ele>1578</ele>
        <time>2019-06-19T23:30:47Z</time>
      </trkpt>
      <trkpt lat="45.14882" lon="5.57646">
        <ele>1572</ele>
        <time>2019-06-19T23:31:02Z</time>
      </trkpt>
      <trkpt lat="45.14848" lon="5.57612">
        <ele>1569</ele>
        <time>2019-06-19T23:31:12Z</time>
      </trkpt>
      <trkpt lat="45.14815" lon="5.57594">
        <ele>1566</ele>
        <time>2019-06-19T23:31:20Z</time>
      </trkpt>
      <trkpt lat="45.14783" lon="5.57579">
        <ele>1563</ele>
        <time>2019-06-19T23:31:28Z</time>
      </trkpt>
      <trkpt lat="45.14738" lon="5.57567">
        <ele>1559</ele>
        <time>2019-06-19T23:31:39Z</time>
      </trkpt>
      <trkpt lat="45.14713" lon="5.57568">
        <ele>1559</ele>
        <time>2019-06-19T23:31:45Z</time>
      </trkpt>
      <trkpt lat="45.14694" lon="5.57577">
        <ele>1559</ele>
        <time>2019-06-19T23:31:49Z</time>
      </trkpt>
      <trkpt lat="45.14668" lon="5.57563">
        <ele>1558</ele>
        <time>2019-06-19T23:31:56Z</time>
      </trkpt>
      <trkpt lat="45.14632" lon="5.57569">
        <ele>1555</ele>
        <time>2019-06-19T23:32:04Z</time>
      </trkpt>
      <trkpt lat="45.14597" lon="5.5755">
        <ele>1551</ele>
        <time>2019-06-19T23:32:13Z</time>
      </trkpt>
      <trkpt lat="45.14525" lon="5.57529">
        <ele>1542</ele>
        <time>2019-06-19T23:32:30Z</time>
      </trkpt>
      <trkpt lat="45.14478" lon="5.57518">
        <ele>1537</ele>
        <time>2019-06-19T23:32:41Z</time>
      </trkpt>
      <trkpt lat="45.14335" lon="5.57551">
        <ele>1517</ele>
        <time>2019-06-19T23:33:15Z</time>
      </trkpt>
      <trkpt lat="45.14289" lon="5.57555">
        <ele>1510</ele>
        <time>2019-06-19T23:33:26Z</time>
      </trkpt>
      <trkpt lat="45.14249" lon="5.57543">
        <ele>1505</ele>
        <time>2019-06-19T23:33:36Z</time>
      </trkpt>
      <trkpt lat="45.14212" lon="5.57507">
        <ele>1503</ele>
        <time>2019-06-19T23:33:46Z</time>
      </trkpt>
      <trkpt lat="45.14125" lon="5.57481">
        <ele>1496</ele>
        <time>2019-06-19T23:34:07Z</time>
      </trkpt>
      <trkpt lat="45.14069" lon="5.57459">
        <ele>1490</ele>
        <time>2019-06-19T23:34:20Z</time>
      </trkpt>
      <trkpt lat="45.1403" lon="5.5744">
        <ele>1485</ele>
        <time>2019-06-19T23:34:30Z</time>
      </trkpt>
      <trkpt lat="45.13997" lon="5.57432">
        <ele>1482</ele>
        <time>2019-06-19T23:34:38Z</time>
      </trkpt>
      <trkpt lat="45.13961" lon="5.57427">
        <ele>1475</ele>
        <time>2019-06-19T23:34:46Z</time>
      </trkpt>
      <trkpt lat="45.13907" lon="5.57428">
        <ele>1461</ele>
        <time>2019-06-19T23:34:59Z</time>
      </trkpt>
      <trkpt lat="45.1387" lon="5.57411">
        <ele>1458</ele>
        <time>2019-06-19T23:35:08Z</time>
      </trkpt>
      <trkpt lat="45.13829" lon="5.5741">
        <ele>1449</ele>
        <time>2019-06-19T23:35:18Z</time>
      </trkpt>
      <trkpt lat="45.13775" lon="5.57402">
        <ele>1438</ele>
        <time>2019-06-19T23:35:30Z</time>
      </trkpt>
      <trkpt lat="45.13761" lon="5.57386">
        <ele>1437</ele>
        <time>2019-06-19T23:35:34Z</time>
      </trkpt>
      <trkpt lat="45.13693" lon="5.57392">
        <ele>1424</ele>
        <time>2019-06-19T23:35:50Z</time>
      </trkpt>
      <trkpt lat="45.13627" lon="5.57353">
        <ele>1422</ele>
        <time>2019-06-19T23:36:07Z</time>
      </trkpt>
      <trkpt lat="45.13598" lon="5.5734">
        <ele>1423</ele>
        <time>2019-06-19T23:36:14Z</time>
      </trkpt>
      <trkpt lat="45.13478" lon="5.57296">
        <ele>1406</ele>
        <time>2019-06-19T23:36:43Z</time>
      </trkpt>
      <trkpt lat="45.13426" lon="5.57272">
        <ele>1402</ele>
        <time>2019-06-19T23:36:56Z</time>
      </trkpt>
      <trkpt lat="45.13394" lon="5.57247">
        <ele>1406</ele>
        <time>2019-06-19T23:37:04Z</time>
      </trkpt>
      <trkpt lat="45.13362" lon="5.57229">
        <ele>1402</ele>
        <time>2019-06-19T23:37:12Z</time>
      </trkpt>
      <trkpt lat="45.13323" lon="5.57172">
        <ele>1402</ele>
        <time>2019-06-19T23:37:25Z</time>
      </trkpt>
      <trkpt lat="45.13272" lon="5.57135">
        <ele>1397</ele>
        <time>2019-06-19T23:37:39Z</time>
      </trkpt>
      <trkpt lat="45.13233" lon="5.57116">
        <ele>1394</ele>
        <time>2019-06-19T23:37:48Z</time>
      </trkpt>
      <trkpt lat="45.13193" lon="5.57091">
        <ele>1391</ele>
        <time>2019-06-19T23:37:59Z</time>
      </trkpt>
      <trkpt lat="45.13178" lon="5.57077">
        <ele>1390</ele>
        <time>2019-06-19T23:38:03Z</time>
      </trkpt>
      <trkpt lat="45.13127" lon="5.57061">
        <ele>1382</ele>
        <time>2019-06-19T23:38:15Z</time>
      </trkpt>
      <trkpt lat="45.13103" lon="5.57046">
        <ele>1377</ele>
        <time>2019-06-19T23:38:21Z</time>
      </trkpt>
      <trkpt lat="45.13072" lon="5.57044">
        <ele>1373</ele>
        <time>2019-06-19T23:38:28Z</time>
      </trkpt>
      <trkpt lat="45.12992" lon="5.56999">
        <ele>1361</ele>
        <time>2019-06-19T23:38:49Z</time>
      </trkpt>
      <trkpt lat="45.1296" lon="5.56977">
        <ele>1354</ele>
        <time>2019-06-19T23:38:57Z</time>
      </trkpt>
      <trkpt lat="45.12818" lon="5.56928">
        <ele>1330</ele>
        <time>2019-06-19T23:39:31Z</time>
      </trkpt>
      <trkpt lat="45.1278" lon="5.56923">
        <ele>1323</ele>
        <time>2019-06-19T23:39:40Z</time>
      </trkpt>
      <trkpt lat="45.12725" lon="5.56932">
        <ele>1313</ele>
        <time>2019-06-19T23:39:53Z</time>
      </trkpt>
      <trkpt lat="45.12727" lon="5.56903">
        <ele>1313</ele>
        <time>2019-06-19T23:39:58Z</time>
      </trkpt>
      <trkpt lat="45.12742" lon="5.5689">
        <ele>1314</ele>
        <time>2019-06-19T23:40:02Z</time>
      </trkpt>
      <trkpt lat="45.1274" lon="5.56871">
        <ele>1311</ele>
        <time>2019-06-19T23:40:05Z</time>
      </trkpt>
      <trkpt lat="45.12725" lon="5.56861">
        <ele>1307</ele>
        <time>2019-06-19T23:40:09Z</time>
      </trkpt>
      <trkpt lat="45.12737" lon="5.56834">
        <ele>1305</ele>
        <time>2019-06-19T23:40:14Z</time>
      </trkpt>
      <trkpt lat="45.12644" lon="5.56791">
        <ele>1289</ele>
        <time>2019-06-19T23:40:37Z</time>
      </trkpt>
      <trkpt lat="45.1257" lon="5.56768">
        <ele>1273</ele>
        <time>2019-06-19T23:40:55Z</time>
      </trkpt>
      <trkpt lat="45.12525" lon="5.56778">
        <ele>1267</ele>
        <time>2019-06-19T23:41:05Z</time>
      </trkpt>
      <trkpt lat="45.12479" lon="5.56766">
        <ele>1260</ele>
        <time>2019-06-19T23:41:16Z</time>
      </trkpt>
      <trkpt lat="45.12416" lon="5.56789">
        <ele>1256</ele>
        <time>2019-06-19T23:41:31Z</time>
      </trkpt>
      <trkpt lat="45.12388" lon="5.56828">
        <ele>1253</ele>
        <time>2019-06-19T23:41:41Z</time>
      </trkpt>
      <trkpt lat="45.12298" lon="5.56824">
        <ele>1234</ele>
        <time>2019-06-19T23:42:02Z</time>
      </trkpt>
      <trkpt lat="45.12267" lon="5.56842">
        <ele>1224</ele>
        <time>2019-06-19T23:42:09Z</time>
      </trkpt>
      <trkpt lat="45.12191" lon="5.56851">
        <ele>1205</ele>
        <time>2019-06-19T23:42:27Z</time>
      </trkpt>
      <trkpt lat="45.12098" lon="5.56871">
        <ele>1178</ele>
        <time>2019-06-19T23:42:49Z</time>
      </trkpt>
      <trkpt lat="45.12047" lon="5.56841">
        <ele>1174</ele>
        <time>2019-06-19T23:43:02Z</time>
      </trkpt>
      <trkpt lat="45.11985" lon="5.56836">
        <ele>1162</ele>
        <time>2019-06-19T23:43:17Z</time>
      </trkpt>
      <trkpt lat="45.11933" lon="5.56853">
        <ele>1145</ele>
        <time>2019-06-19T23:43:29Z</time>
      </trkpt>
      <trkpt lat="45.11926" lon="5.56807">
        <ele>1147</ele>
        <time>2019-06-19T23:43:37Z</time>
      </trkpt>
      <trkpt lat="45.1193" lon="5.56713">
        <ele>1147</ele>
        <time>2019-06-19T23:43:52Z</time>
      </trkpt>
      <trkpt lat="45.11976" lon="5.5663">
        <ele>1155</ele>
        <time>2019-06-19T23:44:10Z</time>
      </trkpt>
      <trkpt lat="45.11998" lon="5.56601">
        <ele>1159</ele>
        <time>2019-06-19T23:44:17Z</time>
      </trkpt>
      <trkpt lat="45.12058" lon="5.56583">
        <ele>1168</ele>
        <time>2019-06-19T23:44:31Z</time>
      </trkpt>
      <trkpt lat="45.12043" lon="5.56544">
        <ele>1171</ele>
        <time>2019-06-19T23:44:38Z</time>
      </trkpt>
      <trkpt lat="45.12019" lon="5.56494">
        <ele>1175</ele>
        <time>2019-06-19T23:44:48Z</time>
      </trkpt>
      <trkpt lat="45.11986" lon="5.56476">
        <ele>1174</ele>
        <time>2019-06-19T23:44:57Z</time>
      </trkpt>
      <trkpt lat="45.1197" lon="5.56438">
        <ele>1175</ele>
        <time>2019-06-19T23:45:04Z</time>
      </trkpt>
      <trkpt lat="45.12009" lon="5.5639">
        <ele>1180</ele>
        <time>2019-06-19T23:45:16Z</time>
      </trkpt>
      <trkpt lat="45.12049" lon="5.56365">
        <ele>1178</ele>
        <time>2019-06-19T23:45:26Z</time>
      </trkpt>
      <trkpt lat="45.12098" lon="5.5635">
        <ele>1177</ele>
        <time>2019-06-19T23:45:38Z</time>
      </trkpt>
      <trkpt lat="45.12141" lon="5.56314">
        <ele>1178</ele>
        <time>2019-06-19T23:45:49Z</time>
      </trkpt>
      <trkpt lat="45.1214" lon="5.56247">
        <ele>1176</ele>
        <time>2019-06-19T23:46:01Z</time>
      </trkpt>
      <trkpt lat="45.1213" lon="5.56232">
        <ele>1174</ele>
        <time>2019-06-19T23:46:04Z</time>
      </trkpt>
      <trkpt lat="45.12121" lon="5.56212">
        <ele>1173</ele>
        <time>2019-06-19T23:46:08Z</time>
      </trkpt>
      <trkpt lat="45.12111" lon="5.562">
        <ele>1172</ele>
        <time>2019-06-19T23:46:11Z</time>
      </trkpt>
      <trkpt lat="45.12093" lon="5.56197">
        <ele>1171</ele>
        <time>2019-06-19T23:46:15Z</time>
      </trkpt>
      <trkpt lat="45.12153" lon="5.56147">
        <ele>1173</ele>
        <time>2019-06-19T23:46:31Z</time>
      </trkpt>
      <trkpt lat="45.12108" lon="5.5613">
        <ele>1172</ele>
        <time>2019-06-19T23:46:42Z</time>
      </trkpt>
      <trkpt lat="45.12117" lon="5.56092">
        <ele>1174</ele>
        <time>2019-06-19T23:46:49Z</time>
      </trkpt>
      <trkpt lat="45.12119" lon="5.56036">
        <ele>1181</ele>
        <time>2019-06-19T23:46:58Z</time>
      </trkpt>
      <trkpt lat="45.12131" lon="5.55991">
        <ele>1187</ele>
        <time>2019-06-19T23:47:06Z</time>
      </trkpt>
      <trkpt lat="45.12143" lon="5.55971">
        <ele>1189</ele>
        <time>2019-06-19T23:47:10Z</time>
      </trkpt>
      <trkpt lat="45.12138" lon="5.55909">
        <ele>1194</ele>
        <time>2019-06-19T23:47:21Z</time>
      </trkpt>
      <trkpt lat="45.12147" lon="5.55851">
        <ele>1197</ele>
        <time>2019-06-19T23:47:30Z</time>
      </trkpt>
      <trkpt lat="45.12149" lon="5.55819">
        <ele>1199</ele>
        <time>2019-06-19T23:47:36Z</time>
      </trkpt>
      <trkpt lat="45.12146" lon="5.55796">
        <ele>1200</ele>
        <time>2019-06-19T23:47:40Z</time>
      </trkpt>
      <trkpt lat="45.12151" lon="5.5578">
        <ele>1200</ele>
        <time>2019-06-19T23:47:42Z</time>
      </trkpt>
      <trkpt lat="45.12169" lon="5.55744">
        <ele>1201</ele>
        <time>2019-06-19T23:47:50Z</time>
      </trkpt>
      <trkpt lat="45.12199" lon="5.55693">
        <ele>1206</ele>
        <time>2019-06-19T23:48:01Z</time>
      </trkpt>
      <trkpt lat="45.12202" lon="5.55661">
        <ele>1208</ele>
        <time>2019-06-19T23:48:06Z</time>
      </trkpt>
      <trkpt lat="45.1222" lon="5.55624">
        <ele>1213</ele>
        <time>2019-06-19T23:48:13Z</time>
      </trkpt>
      <trkpt lat="45.12185" lon="5.55652">
        <ele>1208</ele>
        <time>2019-06-19T23:48:23Z</time>
      </trkpt>
      <trkpt lat="45.12147" lon="5.55693">
        <ele>1204</ele>
        <time>2019-06-19T23:48:34Z</time>
      </trkpt>
      <trkpt lat="45.12127" lon="5.55702">
        <ele>1204</ele>
        <time>2019-06-19T23:48:39Z</time>
      </trkpt>
      <trkpt lat="45.12093" lon="5.55767">
        <ele>1203</ele>
        <time>2019-06-19T23:48:52Z</time>
      </trkpt>
      <trkpt lat="45.12063" lon="5.55795">
        <ele>1202</ele>
        <time>2019-06-19T23:49:01Z</time>
      </trkpt>
      <trkpt lat="45.12039" lon="5.55795">
        <ele>1202</ele>
        <time>2019-06-19T23:49:06Z</time>
      </trkpt>
      <trkpt lat="45.12017" lon="5.55757">
        <ele>1204</ele>
        <time>2019-06-19T23:49:14Z</time>
      </trkpt>
      <trkpt lat="45.11973" lon="5.55717">
        <ele>1205</ele>
        <time>2019-06-19T23:49:26Z</time>
      </trkpt>
      <trkpt lat="45.11962" lon="5.55662">
        <ele>1210</ele>
        <time>2019-06-19T23:49:36Z</time>
      </trkpt>
      <trkpt lat="45.11962" lon="5.55621">
        <ele>1215</ele>
        <time>2019-06-19T23:49:43Z</time>
      </trkpt>
      <trkpt lat="45.11932" lon="5.5557">
        <ele>1220</ele>
        <time>2019-06-19T23:49:54Z</time>
      </trkpt>
      <trkpt lat="45.1192" lon="5.55492">
        <ele>1232</ele>
        <time>2019-06-19T23:50:07Z</time>
      </trkpt>
      <trkpt lat="45.11897" lon="5.55449">
        <ele>1235</ele>
        <time>2019-06-19T23:50:16Z</time>
      </trkpt>
      <trkpt lat="45.11867" lon="5.55424">
        <ele>1233</ele>
        <time>2019-06-19T23:50:24Z</time>
      </trkpt>
      <trkpt lat="45.11825" lon="5.55357">
        <ele>1234</ele>
        <time>2019-06-19T23:50:39Z</time>
      </trkpt>
      <trkpt lat="45.11814" lon="5.55325">
        <ele>1238</ele>
        <time>2019-06-19T23:50:44Z</time>
      </trkpt>
      <trkpt lat="45.11803" lon="5.55219">
        <ele>1248</ele>
        <time>2019-06-19T23:51:02Z</time>
      </trkpt>
      <trkpt lat="45.11755" lon="5.55258">
        <ele>1241</ele>
        <time>2019-06-19T23:51:15Z</time>
      </trkpt>
      <trkpt lat="45.11725" lon="5.55265">
        <ele>1239</ele>
        <time>2019-06-19T23:51:22Z</time>
      </trkpt>
      <trkpt lat="45.1169" lon="5.55264">
        <ele>1238</ele>
        <time>2019-06-19T23:51:30Z</time>
      </trkpt>
      <trkpt lat="45.11658" lon="5.55231">
        <ele>1242</ele>
        <time>2019-06-19T23:51:39Z</time>
      </trkpt>
      <trkpt lat="45.11646" lon="5.55194">
        <ele>1247</ele>
        <time>2019-06-19T23:51:46Z</time>
      </trkpt>
      <trkpt lat="45.11632" lon="5.55137">
        <ele>1253</ele>
        <time>2019-06-19T23:51:56Z</time>
      </trkpt>
      <trkpt lat="45.11617" lon="5.55042">
        <ele>1261</ele>
        <time>2019-06-19T23:52:12Z</time>
      </trkpt>
      <trkpt lat="45.11602" lon="5.54997">
        <ele>1265</ele>
        <time>2019-06-19T23:52:20Z</time>
      </trkpt>
      <trkpt lat="45.11595" lon="5.5496">
        <ele>1267</ele>
        <time>2019-06-19T23:52:27Z</time>
      </trkpt>
      <trkpt lat="45.11599" lon="5.54903">
        <ele>1269</ele>
        <time>2019-06-19T23:52:36Z</time>
      </trkpt>
      <trkpt lat="45.11578" lon="5.54874">
        <ele>1269</ele>
        <time>2019-06-19T23:52:43Z</time>
      </trkpt>
      <trkpt lat="45.11564" lon="5.54844">
        <ele>1270</ele>
        <time>2019-06-19T23:52:49Z</time>
      </trkpt>
      <trkpt lat="45.11537" lon="5.54812">
        <ele>1270</ele>
        <time>2019-06-19T23:52:57Z</time>
      </trkpt>
      <trkpt lat="45.11511" lon="5.54811">
        <ele>1273</ele>
        <time>2019-06-19T23:53:03Z</time>
      </trkpt>
      <trkpt lat="45.11483" lon="5.54796">
        <ele>1272</ele>
        <time>2019-06-19T23:53:10Z</time>
      </trkpt>
      <trkpt lat="45.11438" lon="5.54795">
        <ele>1271</ele>
        <time>2019-06-19T23:53:21Z</time>
      </trkpt>
      <trkpt lat="45.11424" lon="5.54779">
        <ele>1270</ele>
        <time>2019-06-19T23:53:25Z</time>
      </trkpt>
      <trkpt lat="45.11398" lon="5.54774">
        <ele>1269</ele>
        <time>2019-06-19T23:53:31Z</time>
      </trkpt>
      <trkpt lat="45.11348" lon="5.54759">
        <ele>1266</ele>
        <time>2019-06-19T23:53:43Z</time>
      </trkpt>
      <trkpt lat="45.1132" lon="5.5476">
        <ele>1265</ele>
        <time>2019-06-19T23:53:50Z</time>
      </trkpt>
      <trkpt lat="45.11294" lon="5.54744">
        <ele>1260</ele>
        <time>2019-06-19T23:53:56Z</time>
      </trkpt>
      <trkpt lat="45.11248" lon="5.54751">
        <ele>1257</ele>
        <time>2019-06-19T23:54:07Z</time>
      </trkpt>
      <trkpt lat="45.11217" lon="5.54764">
        <ele>1259</ele>
        <time>2019-06-19T23:54:14Z</time>
      </trkpt>
      <trkpt lat="45.11175" lon="5.54761">
        <ele>1259</ele>
        <time>2019-06-19T23:54:24Z</time>
      </trkpt>
      <trkpt lat="45.11125" lon="5.54732">
        <ele>1250</ele>
        <time>2019-06-19T23:54:37Z</time>
      </trkpt>
      <trkpt lat="45.11089" lon="5.54746">
        <ele>1251</ele>
        <time>2019-06-19T23:54:46Z</time>
      </trkpt>
      <trkpt lat="45.1104" lon="5.54742">
        <ele>1250</ele>
        <time>2019-06-19T23:54:57Z</time>
      </trkpt>
      <trkpt lat="45.11004" lon="5.54744">
        <ele>1251</ele>
        <time>2019-06-19T23:55:06Z</time>
      </trkpt>
      <trkpt lat="45.10956" lon="5.5473">
        <ele>1244</ele>
        <time>2019-06-19T23:55:17Z</time>
      </trkpt>
      <trkpt lat="45.10864" lon="5.54737">
        <ele>1237</ele>
        <time>2019-06-19T23:55:38Z</time>
      </trkpt>
      <trkpt lat="45.10851" lon="5.54724">
        <ele>1233</ele>
        <time>2019-06-19T23:55:42Z</time>
      </trkpt>
      <trkpt lat="45.10838" lon="5.54715">
        <ele>1230</ele>
        <time>2019-06-19T23:55:46Z</time>
      </trkpt>
      <trkpt lat="45.1081" lon="5.54722">
        <ele>1231</ele>
        <time>2019-06-19T23:55:52Z</time>
      </trkpt>
      <trkpt lat="45.10766" lon="5.54689">
        <ele>1224</ele>
        <time>2019-06-19T23:56:04Z</time>
      </trkpt>
      <trkpt lat="45.10737" lon="5.54694">
        <ele>1225</ele>
        <time>2019-06-19T23:56:11Z</time>
      </trkpt>
      <trkpt lat="45.10718" lon="5.54661">
        <ele>1221</ele>
        <time>2019-06-19T23:56:18Z</time>
      </trkpt>
      <trkpt lat="45.10674" lon="5.54638">
        <ele>1220</ele>
        <time>2019-06-19T23:56:29Z</time>
      </trkpt>
      <trkpt lat="45.10654" lon="5.54617">
        <ele>1220</ele>
        <time>2019-06-19T23:56:34Z</time>
      </trkpt>
      <trkpt lat="45.10631" lon="5.54561">
        <ele>1219</ele>
        <time>2019-06-19T23:56:45Z</time>
      </trkpt>
      <trkpt lat="45.10625" lon="5.54536">
        <ele>1220</ele>
        <time>2019-06-19T23:56:49Z</time>
      </trkpt>
      <trkpt lat="45.10613" lon="5.5452">
        <ele>1221</ele>
        <time>2019-06-19T23:56:53Z</time>
      </trkpt>
      <trkpt lat="45.10606" lon="5.54481">
        <ele>1222</ele>
        <time>2019-06-19T23:57:00Z</time>
      </trkpt>
      <trkpt lat="45.10591" lon="5.54468">
        <ele>1224</ele>
        <time>2019-06-19T23:57:04Z</time>
      </trkpt>
      <trkpt lat="45.10577" lon="5.54427">
        <ele>1226</ele>
        <time>2019-06-19T23:57:12Z</time>
      </trkpt>
      <trkpt lat="45.10549" lon="5.5437">
        <ele>1227</ele>
        <time>2019-06-19T23:57:23Z</time>
      </trkpt>
      <trkpt lat="45.10514" lon="5.54362">
        <ele>1230</ele>
        <time>2019-06-19T23:57:31Z</time>
      </trkpt>
      <trkpt lat="45.10485" lon="5.54342">
        <ele>1232</ele>
        <time>2019-06-19T23:57:39Z</time>
      </trkpt>
      <trkpt lat="45.10468" lon="5.54334">
        <ele>1234</ele>
        <time>2019-06-19T23:57:43Z</time>
      </trkpt>
      <trkpt lat="45.10424" lon="5.54256">
        <ele>1241</ele>
        <time>2019-06-19T23:57:59Z</time>
      </trkpt>
      <trkpt lat="45.10403" lon="5.5426">
        <ele>1242</ele>
        <time>2019-06-19T23:58:04Z</time>
      </trkpt>
      <trkpt lat="45.10392" lon="5.54236">
        <ele>1243</ele>
        <time>2019-06-19T23:58:09Z</time>
      </trkpt>
      <trkpt lat="45.10373" lon="5.54236">
        <ele>1245</ele>
        <time>2019-06-19T23:58:14Z</time>
      </trkpt>
      <trkpt lat="45.10353" lon="5.54223">
        <ele>1246</ele>
        <time>2019-06-19T23:58:19Z</time>
      </trkpt>
      <trkpt lat="45.10287" lon="5.5425">
        <ele>1248</ele>
        <time>2019-06-19T23:58:35Z</time>
      </trkpt>
      <trkpt lat="45.10231" lon="5.54212">
        <ele>1248</ele>
        <time>2019-06-19T23:58:49Z</time>
      </trkpt>
      <trkpt lat="45.10185" lon="5.54185">
        <ele>1248</ele>
        <time>2019-06-19T23:59:01Z</time>
      </trkpt>
      <trkpt lat="45.10143" lon="5.54143">
        <ele>1249</ele>
        <time>2019-06-19T23:59:13Z</time>
      </trkpt>
      <trkpt lat="45.10092" lon="5.54109">
        <ele>1249</ele>
        <time>2019-06-19T23:59:26Z</time>
      </trkpt>
      <trkpt lat="45.10087" lon="5.5407">
        <ele>1247</ele>
        <time>2019-06-19T23:59:33Z</time>
      </trkpt>
      <trkpt lat="45.10117" lon="5.54006">
        <ele>1245</ele>
        <time>2019-06-19T23:59:45Z</time>
      </trkpt>
      <trkpt lat="45.10123" lon="5.53977">
        <ele>1245</ele>
        <time>2019-06-19T23:59:50Z</time>
      </trkpt>
      <trkpt lat="45.10134" lon="5.53945">
        <ele>1244</ele>
        <time>2019-06-19T23:59:56Z</time>
      </trkpt>
      <trkpt lat="45.10138" lon="5.53893">
        <ele>1245</ele>
        <time>2019-06-20T00:00:05Z</time>
      </trkpt>
      <trkpt lat="45.10161" lon="5.5385">
        <ele>1243</ele>
        <time>2019-06-20T00:00:14Z</time>
      </trkpt>
      <trkpt lat="45.10187" lon="5.53755">
        <ele>1242</ele>
        <time>2019-06-20T00:00:30Z</time>
      </trkpt>
      <trkpt lat="45.1019" lon="5.53688">
        <ele>1242</ele>
        <time>2019-06-20T00:00:41Z</time>
      </trkpt>
      <trkpt lat="45.1018" lon="5.53618">
        <ele>1237</ele>
        <time>2019-06-20T00:00:53Z</time>
      </trkpt>
      <trkpt lat="45.1016" lon="5.5358">
        <ele>1233</ele>
        <time>2019-06-20T00:01:01Z</time>
      </trkpt>
      <trkpt lat="45.10144" lon="5.5353">
        <ele>1218</ele>
        <time>2019-06-20T00:01:10Z</time>
      </trkpt>
      <trkpt lat="45.10094" lon="5.53484">
        <ele>1204</ele>
        <time>2019-06-20T00:01:24Z</time>
      </trkpt>
      <trkpt lat="45.10039" lon="5.53473">
        <ele>1206</ele>
        <time>2019-06-20T00:01:37Z</time>
      </trkpt>
      <trkpt lat="45.09944" lon="5.53248">
        <ele>1179</ele>
        <time>2019-06-20T00:02:20Z</time>
      </trkpt>
      <trkpt lat="45.09994" lon="5.5327">
        <ele>1164</ele>
        <time>2019-06-20T00:02:32Z</time>
      </trkpt>
      <trkpt lat="45.10099" lon="5.53326">
        <ele>1142</ele>
        <time>2019-06-20T00:02:59Z</time>
      </trkpt>
      <trkpt lat="45.10135" lon="5.53331">
        <ele>1136</ele>
        <time>2019-06-20T00:03:07Z</time>
      </trkpt>
      <trkpt lat="45.10236" lon="5.5332">
        <ele>1117</ele>
        <time>2019-06-20T00:03:31Z</time>
      </trkpt>
      <trkpt lat="45.10312" lon="5.53316">
        <ele>1108</ele>
        <time>2019-06-20T00:03:49Z</time>
      </trkpt>
      <trkpt lat="45.1036" lon="5.53316">
        <ele>1109</ele>
        <time>2019-06-20T00:04:00Z</time>
      </trkpt>
      <trkpt lat="45.10359" lon="5.53298">
        <ele>1106</ele>
        <time>2019-06-20T00:04:03Z</time>
      </trkpt>
      <trkpt lat="45.10335" lon="5.53275">
        <ele>1101</ele>
        <time>2019-06-20T00:04:09Z</time>
      </trkpt>
      <trkpt lat="45.10299" lon="5.53253">
        <ele>1095</ele>
        <time>2019-06-20T00:04:19Z</time>
      </trkpt>
      <trkpt lat="45.10239" lon="5.53183">
        <ele>1080</ele>
        <time>2019-06-20T00:04:37Z</time>
      </trkpt>
      <trkpt lat="45.10257" lon="5.53074">
        <ele>1071</ele>
        <time>2019-06-20T00:04:55Z</time>
      </trkpt>
      <trkpt lat="45.1027" lon="5.53053">
        <ele>1069</ele>
        <time>2019-06-20T00:05:00Z</time>
      </trkpt>
      <trkpt lat="45.10271" lon="5.5301">
        <ele>1061</ele>
        <time>2019-06-20T00:05:07Z</time>
      </trkpt>
      <trkpt lat="45.10275" lon="5.52987">
        <ele>1057</ele>
        <time>2019-06-20T00:05:11Z</time>
      </trkpt>
      <trkpt lat="45.10298" lon="5.52952">
        <ele>1053</ele>
        <time>2019-06-20T00:05:19Z</time>
      </trkpt>
      <trkpt lat="45.10338" lon="5.52946">
        <ele>1052</ele>
        <time>2019-06-20T00:05:28Z</time>
      </trkpt>
      <trkpt lat="45.10411" lon="5.53053">
        <ele>1046</ele>
        <time>2019-06-20T00:05:53Z</time>
      </trkpt>
      <trkpt lat="45.10475" lon="5.53127">
        <ele>1042</ele>
        <time>2019-06-20T00:06:12Z</time>
      </trkpt>
      <trkpt lat="45.10561" lon="5.53175">
        <ele>1041</ele>
        <time>2019-06-20T00:06:34Z</time>
      </trkpt>
      <trkpt lat="45.10616" lon="5.53188">
        <ele>1043</ele>
        <time>2019-06-20T00:06:47Z</time>
      </trkpt>
      <trkpt lat="45.10693" lon="5.53117">
        <ele>1025</ele>
        <time>2019-06-20T00:07:08Z</time>
      </trkpt>
      <trkpt lat="45.10788" lon="5.531">
        <ele>1019</ele>
        <time>2019-06-20T00:07:30Z</time>
      </trkpt>
      <trkpt lat="45.10832" lon="5.53106">
        <ele>1013</ele>
        <time>2019-06-20T00:07:41Z</time>
      </trkpt>
      <trkpt lat="45.10909" lon="5.531">
        <ele>1004</ele>
        <time>2019-06-20T00:07:59Z</time>
      </trkpt>
      <trkpt lat="45.10966" lon="5.53122">
        <ele>1002</ele>
        <time>2019-06-20T00:08:12Z</time>
      </trkpt>
      <trkpt lat="45.11022" lon="5.53137">
        <ele>997</ele>
        <time>2019-06-20T00:08:26Z</time>
      </trkpt>
      <trkpt lat="45.1106" lon="5.53156">
        <ele>991</ele>
        <time>2019-06-20T00:08:35Z</time>
      </trkpt>
      <trkpt lat="45.11136" lon="5.53182">
        <ele>984</ele>
        <time>2019-06-20T00:08:53Z</time>
      </trkpt>
      <trkpt lat="45.11164" lon="5.53232">
        <ele>993</ele>
        <time>2019-06-20T00:09:04Z</time>
      </trkpt>
      <trkpt lat="45.11228" lon="5.53264">
        <ele>973</ele>
        <time>2019-06-20T00:09:20Z</time>
      </trkpt>
      <trkpt lat="45.11281" lon="5.53274">
        <ele>964</ele>
        <time>2019-06-20T00:09:32Z</time>
      </trkpt>
      <trkpt lat="45.11328" lon="5.53294">
        <ele>962</ele>
        <time>2019-06-20T00:09:44Z</time>
      </trkpt>
      <trkpt lat="45.11358" lon="5.53329">
        <ele>962</ele>
        <time>2019-06-20T00:09:53Z</time>
      </trkpt>
      <trkpt lat="45.11362" lon="5.53366">
        <ele>962</ele>
        <time>2019-06-20T00:09:59Z</time>
      </trkpt>
      <trkpt lat="45.11434" lon="5.53409">
        <ele>959</ele>
        <time>2019-06-20T00:10:17Z</time>
      </trkpt>
      <trkpt lat="45.11491" lon="5.53413">
        <ele>958</ele>
        <time>2019-06-20T00:10:31Z</time>
      </trkpt>
      <trkpt lat="45.11533" lon="5.53372">
        <ele>959</ele>
        <time>2019-06-20T00:10:42Z</time>
      </trkpt>
      <trkpt lat="45.11607" lon="5.53388">
        <ele>961</ele>
        <time>2019-06-20T00:11:00Z</time>
      </trkpt>
      <trkpt lat="45.11659" lon="5.53452">
        <ele>960</ele>
        <time>2019-06-20T00:11:16Z</time>
      </trkpt>
      <trkpt lat="45.11727" lon="5.53458">
        <ele>961</ele>
        <time>2019-06-20T00:11:32Z</time>
      </trkpt>
      <trkpt lat="45.11856" lon="5.5366">
        <ele>969</ele>
        <time>2019-06-20T00:12:17Z</time>
      </trkpt>
      <trkpt lat="45.11954" lon="5.53752">
        <ele>973</ele>
        <time>2019-06-20T00:12:44Z</time>
      </trkpt>
      <trkpt lat="45.12055" lon="5.53813">
        <ele>976</ele>
        <time>2019-06-20T00:13:10Z</time>
      </trkpt>
      <trkpt lat="45.12154" lon="5.5382">
        <ele>970</ele>
        <time>2019-06-20T00:13:33Z</time>
      </trkpt>
      <trkpt lat="45.1225" lon="5.53835">
        <ele>973</ele>
        <time>2019-06-20T00:13:56Z</time>
      </trkpt>
      <trkpt lat="45.12299" lon="5.53868">
        <ele>979</ele>
        <time>2019-06-20T00:14:08Z</time>
      </trkpt>
      <trkpt lat="45.12419" lon="5.5384">
        <ele>990</ele>
        <time>2019-06-20T00:14:37Z</time>
      </trkpt>
      <trkpt lat="45.12517" lon="5.53835">
        <ele>990</ele>
        <time>2019-06-20T00:15:00Z</time>
      </trkpt>
      <trkpt lat="45.12545" lon="5.53665">
        <ele>982</ele>
        <time>2019-06-20T00:15:28Z</time>
      </trkpt>
      <trkpt lat="45.12567" lon="5.53482">
        <ele>973</ele>
        <time>2019-06-20T00:15:59Z</time>
      </trkpt>
      <trkpt lat="45.12643" lon="5.53302">
        <ele>968</ele>
        <time>2019-06-20T00:16:34Z</time>
      </trkpt>
      <trkpt lat="45.12648" lon="5.53213">
        <ele>967</ele>
        <time>2019-06-20T00:16:48Z</time>
      </trkpt>
      <trkpt lat="45.12682" lon="5.53189">
        <ele>968</ele>
        <time>2019-06-20T00:16:57Z</time>
      </trkpt>
      <trkpt lat="45.12667" lon="5.53081">
        <ele>974</ele>
        <time>2019-06-20T00:17:15Z</time>
      </trkpt>
      <trkpt lat="45.12704" lon="5.52957">
        <ele>978</ele>
        <time>2019-06-20T00:17:37Z</time>
      </trkpt>
      <trkpt lat="45.12708" lon="5.52815">
        <ele>989</ele>
        <time>2019-06-20T00:18:01Z</time>
      </trkpt>
      <trkpt lat="45.12737" lon="5.52704">
        <ele>992</ele>
        <time>2019-06-20T00:18:20Z</time>
      </trkpt>
      <trkpt lat="45.12769" lon="5.52442">
        <ele>996</ele>
        <time>2019-06-20T00:19:04Z</time>
      </trkpt>
      <trkpt lat="45.12793" lon="5.52283">
        <ele>1005</ele>
        <time>2019-06-20T00:19:31Z</time>
      </trkpt>
      <trkpt lat="45.12829" lon="5.5212">
        <ele>1001</ele>
        <time>2019-06-20T00:19:59Z</time>
      </trkpt>
      <trkpt lat="45.12711" lon="5.52021">
        <ele>1010</ele>
        <time>2019-06-20T00:20:31Z</time>
      </trkpt>
      <trkpt lat="45.1273" lon="5.50953">
        <ele>1216</ele>
        <time>2019-06-20T00:23:27Z</time>
      </trkpt>
      <trkpt lat="45.12739" lon="5.50618">
        <ele>1281</ele>
        <time>2019-06-20T00:24:22Z</time>
      </trkpt>
      <trkpt lat="45.12766" lon="5.5063">
        <ele>1279</ele>
        <time>2019-06-20T00:24:29Z</time>
      </trkpt>
      <trkpt lat="45.12796" lon="5.50601">
        <ele>1282</ele>
        <time>2019-06-20T00:24:37Z</time>
      </trkpt>
      <trkpt lat="45.12828" lon="5.50597">
        <ele>1282</ele>
        <time>2019-06-20T00:24:45Z</time>
      </trkpt>
      <trkpt lat="45.12852" lon="5.50619">
        <ele>1279</ele>
        <time>2019-06-20T00:24:52Z</time>
      </trkpt>
      <trkpt lat="45.12897" lon="5.50616">
        <ele>1282</ele>
        <time>2019-06-20T00:25:02Z</time>
      </trkpt>
      <trkpt lat="45.1292" lon="5.50566">
        <ele>1294</ele>
        <time>2019-06-20T00:25:12Z</time>
      </trkpt>
      <trkpt lat="45.12967" lon="5.50537">
        <ele>1297</ele>
        <time>2019-06-20T00:25:24Z</time>
      </trkpt>
      <trkpt lat="45.13003" lon="5.50469">
        <ele>1308</ele>
        <time>2019-06-20T00:25:38Z</time>
      </trkpt>
      <trkpt lat="45.13041" lon="5.50435">
        <ele>1315</ele>
        <time>2019-06-20T00:25:48Z</time>
      </trkpt>
      <trkpt lat="45.13071" lon="5.50489">
        <ele>1306</ele>
        <time>2019-06-20T00:26:00Z</time>
      </trkpt>
      <trkpt lat="45.13134" lon="5.50487">
        <ele>1312</ele>
        <time>2019-06-20T00:26:15Z</time>
      </trkpt>
      <trkpt lat="45.13168" lon="5.50495">
        <ele>1313</ele>
        <time>2019-06-20T00:26:23Z</time>
      </trkpt>
      <trkpt lat="45.1323" lon="5.50468">
        <ele>1317</ele>
        <time>2019-06-20T00:26:38Z</time>
      </trkpt>
      <trkpt lat="45.13242" lon="5.50509">
        <ele>1308</ele>
        <time>2019-06-20T00:26:45Z</time>
      </trkpt>
      <trkpt lat="45.13297" lon="5.50449">
        <ele>1308</ele>
        <time>2019-06-20T00:27:01Z</time>
      </trkpt>
      <trkpt lat="45.13302" lon="5.50491">
        <ele>1298</ele>
        <time>2019-06-20T00:27:08Z</time>
      </trkpt>
      <trkpt lat="45.13329" lon="5.50485">
        <ele>1292</ele>
        <time>2019-06-20T00:27:15Z</time>
      </trkpt>
      <trkpt lat="45.13336" lon="5.50491">
        <ele>1289</ele>
        <time>2019-06-20T00:27:17Z</time>
      </trkpt>
      <trkpt lat="45.13318" lon="5.50531">
        <ele>1285</ele>
        <time>2019-06-20T00:27:24Z</time>
      </trkpt>
      <trkpt lat="45.13327" lon="5.50541">
        <ele>1281</ele>
        <time>2019-06-20T00:27:27Z</time>
      </trkpt>
      <trkpt lat="45.13357" lon="5.50532">
        <ele>1282</ele>
        <time>2019-06-20T00:27:34Z</time>
      </trkpt>
      <trkpt lat="45.13388" lon="5.50583">
        <ele>1274</ele>
        <time>2019-06-20T00:27:45Z</time>
      </trkpt>
      <trkpt lat="45.13391" lon="5.5063">
        <ele>1264</ele>
        <time>2019-06-20T00:27:53Z</time>
      </trkpt>
      <trkpt lat="45.13416" lon="5.50669">
        <ele>1257</ele>
        <time>2019-06-20T00:28:02Z</time>
      </trkpt>
      <trkpt lat="45.13393" lon="5.50764">
        <ele>1239</ele>
        <time>2019-06-20T00:28:18Z</time>
      </trkpt>
      <trkpt lat="45.13428" lon="5.50783">
        <ele>1238</ele>
        <time>2019-06-20T00:28:27Z</time>
      </trkpt>
      <trkpt lat="45.13443" lon="5.50824">
        <ele>1232</ele>
        <time>2019-06-20T00:28:35Z</time>
      </trkpt>
      <trkpt lat="45.13447" lon="5.5086">
        <ele>1226</ele>
        <time>2019-06-20T00:28:41Z</time>
      </trkpt>
      <trkpt lat="45.13425" lon="5.5089">
        <ele>1222</ele>
        <time>2019-06-20T00:28:48Z</time>
      </trkpt>
      <trkpt lat="45.13406" lon="5.50909">
        <ele>1218</ele>
        <time>2019-06-20T00:28:53Z</time>
      </trkpt>
      <trkpt lat="45.13387" lon="5.50918">
        <ele>1215</ele>
        <time>2019-06-20T00:28:58Z</time>
      </trkpt>
      <trkpt lat="45.13363" lon="5.50914">
        <ele>1213</ele>
        <time>2019-06-20T00:29:04Z</time>
      </trkpt>
      <trkpt lat="45.13364" lon="5.50872">
        <ele>1220</ele>
        <time>2019-06-20T00:29:10Z</time>
      </trkpt>
      <trkpt lat="45.1335" lon="5.50843">
        <ele>1223</ele>
        <time>2019-06-20T00:29:16Z</time>
      </trkpt>
      <trkpt lat="45.13316" lon="5.50858">
        <ele>1220</ele>
        <time>2019-06-20T00:29:25Z</time>
      </trkpt>
      <trkpt lat="45.1328" lon="5.50882">
        <ele>1216</ele>
        <time>2019-06-20T00:29:34Z</time>
      </trkpt>
      <trkpt lat="45.13242" lon="5.50931">
        <ele>1210</ele>
        <time>2019-06-20T00:29:46Z</time>
      </trkpt>
      <trkpt lat="45.13233" lon="5.50979">
        <ele>1204</ele>
        <time>2019-06-20T00:29:54Z</time>
      </trkpt>
      <trkpt lat="45.1325" lon="5.51">
        <ele>1201</ele>
        <time>2019-06-20T00:29:59Z</time>
      </trkpt>
      <trkpt lat="45.13276" lon="5.50986">
        <ele>1202</ele>
        <time>2019-06-20T00:30:06Z</time>
      </trkpt>
      <trkpt lat="45.13303" lon="5.50926">
        <ele>1209</ele>
        <time>2019-06-20T00:30:18Z</time>
      </trkpt>
      <trkpt lat="45.13325" lon="5.50968">
        <ele>1204</ele>
        <time>2019-06-20T00:30:26Z</time>
      </trkpt>
      <trkpt lat="45.13334" lon="5.51023">
        <ele>1196</ele>
        <time>2019-06-20T00:30:35Z</time>
      </trkpt>
      <trkpt lat="45.13375" lon="5.5106">
        <ele>1190</ele>
        <time>2019-06-20T00:30:47Z</time>
      </trkpt>
      <trkpt lat="45.13436" lon="5.5107">
        <ele>1189</ele>
        <time>2019-06-20T00:31:01Z</time>
      </trkpt>
      <trkpt lat="45.13517" lon="5.51059">
        <ele>1189</ele>
        <time>2019-06-20T00:31:20Z</time>
      </trkpt>
      <trkpt lat="45.13592" lon="5.51103">
        <ele>1181</ele>
        <time>2019-06-20T00:31:39Z</time>
      </trkpt>
      <trkpt lat="45.13686" lon="5.51137">
        <ele>1167</ele>
        <time>2019-06-20T00:32:02Z</time>
      </trkpt>
      <trkpt lat="45.13766" lon="5.51097">
        <ele>1159</ele>
        <time>2019-06-20T00:32:22Z</time>
      </trkpt>
      <trkpt lat="45.13783" lon="5.50962">
        <ele>1165</ele>
        <time>2019-06-20T00:32:44Z</time>
      </trkpt>
      <trkpt lat="45.13901" lon="5.50996">
        <ele>1132</ele>
        <time>2019-06-20T00:33:12Z</time>
      </trkpt>
      <trkpt lat="45.13931" lon="5.51023">
        <ele>1126</ele>
        <time>2019-06-20T00:33:21Z</time>
      </trkpt>
      <trkpt lat="45.13981" lon="5.51043">
        <ele>1116</ele>
        <time>2019-06-20T00:33:33Z</time>
      </trkpt>
      <trkpt lat="45.14014" lon="5.51018">
        <ele>1120</ele>
        <time>2019-06-20T00:33:41Z</time>
      </trkpt>
      <trkpt lat="45.14027" lon="5.51042">
        <ele>1118</ele>
        <time>2019-06-20T00:33:46Z</time>
      </trkpt>
      <trkpt lat="45.13987" lon="5.51087">
        <ele>1109</ele>
        <time>2019-06-20T00:33:58Z</time>
      </trkpt>
      <trkpt lat="45.13993" lon="5.51214">
        <ele>1100</ele>
        <time>2019-06-20T00:34:19Z</time>
      </trkpt>
      <trkpt lat="45.14031" lon="5.51329">
        <ele>1085</ele>
        <time>2019-06-20T00:34:40Z</time>
      </trkpt>
      <trkpt lat="45.14032" lon="5.51377">
        <ele>1077</ele>
        <time>2019-06-20T00:34:48Z</time>
      </trkpt>
      <trkpt lat="45.14064" lon="5.51444">
        <ele>1061</ele>
        <time>2019-06-20T00:35:01Z</time>
      </trkpt>
      <trkpt lat="45.1407" lon="5.51537">
        <ele>1037</ele>
        <time>2019-06-20T00:35:17Z</time>
      </trkpt>
      <trkpt lat="45.14062" lon="5.51612">
        <ele>1020</ele>
        <time>2019-06-20T00:35:29Z</time>
      </trkpt>
      <trkpt lat="45.14256" lon="5.51532">
        <ele>1034</ele>
        <time>2019-06-20T00:36:17Z</time>
      </trkpt>
      <trkpt lat="45.14439" lon="5.51531">
        <ele>1035</ele>
        <time>2019-06-20T00:36:59Z</time>
      </trkpt>
      <trkpt lat="45.1445" lon="5.51491">
        <ele>1048</ele>
        <time>2019-06-20T00:37:06Z</time>
      </trkpt>
      <trkpt lat="45.14612" lon="5.5154">
        <ele>1064</ele>
        <time>2019-06-20T00:37:45Z</time>
      </trkpt>
      <trkpt lat="45.14709" lon="5.51632">
        <ele>1070</ele>
        <time>2019-06-20T00:38:12Z</time>
      </trkpt>
      <trkpt lat="45.14822" lon="5.5175">
        <ele>1075</ele>
        <time>2019-06-20T00:38:45Z</time>
      </trkpt>
      <trkpt lat="45.1489" lon="5.51782">
        <ele>1073</ele>
        <time>2019-06-20T00:39:02Z</time>
      </trkpt>
      <trkpt lat="45.14933" lon="5.51745">
        <ele>1083</ele>
        <time>2019-06-20T00:39:14Z</time>
      </trkpt>
      <trkpt lat="45.14973" lon="5.51674">
        <ele>1094</ele>
        <time>2019-06-20T00:39:28Z</time>
      </trkpt>
      <trkpt lat="45.15012" lon="5.51694">
        <ele>1093</ele>
        <time>2019-06-20T00:39:38Z</time>
      </trkpt>
      <trkpt lat="45.15024" lon="5.51777">
        <ele>1085</ele>
        <time>2019-06-20T00:39:52Z</time>
      </trkpt>
      <trkpt lat="45.15042" lon="5.51824">
        <ele>1084</ele>
        <time>2019-06-20T00:40:01Z</time>
      </trkpt>
      <trkpt lat="45.15087" lon="5.51786">
        <ele>1094</ele>
        <time>2019-06-20T00:40:13Z</time>
      </trkpt>
      <trkpt lat="45.15135" lon="5.51732">
        <ele>1101</ele>
        <time>2019-06-20T00:40:27Z</time>
      </trkpt>
      <trkpt lat="45.15156" lon="5.51703">
        <ele>1105</ele>
        <time>2019-06-20T00:40:34Z</time>
      </trkpt>
      <trkpt lat="45.1523" lon="5.51692">
        <ele>1103</ele>
        <time>2019-06-20T00:40:52Z</time>
      </trkpt>
      <trkpt lat="45.15244" lon="5.51584">
        <ele>1117</ele>
        <time>2019-06-20T00:41:10Z</time>
      </trkpt>
      <trkpt lat="45.15298" lon="5.51664">
        <ele>1108</ele>
        <time>2019-06-20T00:41:28Z</time>
      </trkpt>
      <trkpt lat="45.15322" lon="5.51688">
        <ele>1107</ele>
        <time>2019-06-20T00:41:35Z</time>
      </trkpt>
      <trkpt lat="45.15353" lon="5.51681">
        <ele>1109</ele>
        <time>2019-06-20T00:41:42Z</time>
      </trkpt>
      <trkpt lat="45.15385" lon="5.51634">
        <ele>1119</ele>
        <time>2019-06-20T00:41:53Z</time>
      </trkpt>
      <trkpt lat="45.15415" lon="5.51663">
        <ele>1116</ele>
        <time>2019-06-20T00:42:01Z</time>
      </trkpt>
      <trkpt lat="45.15459" lon="5.51648">
        <ele>1119</ele>
        <time>2019-06-20T00:42:12Z</time>
      </trkpt>
      <trkpt lat="45.15513" lon="5.51605">
        <ele>1130</ele>
        <time>2019-06-20T00:42:26Z</time>
      </trkpt>
      <trkpt lat="45.15531" lon="5.51602">
        <ele>1132</ele>
        <time>2019-06-20T00:42:31Z</time>
      </trkpt>
      <trkpt lat="45.15533" lon="5.51631">
        <ele>1127</ele>
        <time>2019-06-20T00:42:36Z</time>
      </trkpt>
      <trkpt lat="45.15567" lon="5.51658">
        <ele>1124</ele>
        <time>2019-06-20T00:42:45Z</time>
      </trkpt>
      <trkpt lat="45.1563" lon="5.5162">
        <ele>1138</ele>
        <time>2019-06-20T00:43:01Z</time>
      </trkpt>
      <trkpt lat="45.15666" lon="5.51672">
        <ele>1132</ele>
        <time>2019-06-20T00:43:13Z</time>
      </trkpt>
      <trkpt lat="45.15762" lon="5.51674">
        <ele>1134</ele>
        <time>2019-06-20T00:43:35Z</time>
      </trkpt>
      <trkpt lat="45.15836" lon="5.51596">
        <ele>1152</ele>
        <time>2019-06-20T00:43:57Z</time>
      </trkpt>
      <trkpt lat="45.15865" lon="5.51594">
        <ele>1157</ele>
        <time>2019-06-20T00:44:03Z</time>
      </trkpt>
      <trkpt lat="45.15873" lon="5.51663">
        <ele>1140</ele>
        <time>2019-06-20T00:44:15Z</time>
      </trkpt>
      <trkpt lat="45.1597" lon="5.51707">
        <ele>1145</ele>
        <time>2019-06-20T00:44:39Z</time>
      </trkpt>
      <trkpt lat="45.16057" lon="5.51699">
        <ele>1157</ele>
        <time>2019-06-20T00:44:59Z</time>
      </trkpt>
      <trkpt lat="45.16119" lon="5.51655">
        <ele>1178</ele>
        <time>2019-06-20T00:45:15Z</time>
      </trkpt>
      <trkpt lat="45.16161" lon="5.5165">
        <ele>1184</ele>
        <time>2019-06-20T00:45:25Z</time>
      </trkpt>
      <trkpt lat="45.16198" lon="5.51715">
        <ele>1169</ele>
        <time>2019-06-20T00:45:39Z</time>
      </trkpt>
      <trkpt lat="45.16294" lon="5.51724">
        <ele>1184</ele>
        <time>2019-06-20T00:46:01Z</time>
      </trkpt>
      <trkpt lat="45.16383" lon="5.51701">
        <ele>1203</ele>
        <time>2019-06-20T00:46:22Z</time>
      </trkpt>
      <trkpt lat="45.16438" lon="5.51744">
        <ele>1197</ele>
        <time>2019-06-20T00:46:37Z</time>
      </trkpt>
      <trkpt lat="45.16471" lon="5.51742">
        <ele>1202</ele>
        <time>2019-06-20T00:46:45Z</time>
      </trkpt>
      <trkpt lat="45.16531" lon="5.51762">
        <ele>1205</ele>
        <time>2019-06-20T00:46:59Z</time>
      </trkpt>
      <trkpt lat="45.16498" lon="5.51803">
        <ele>1191</ele>
        <time>2019-06-20T00:47:09Z</time>
      </trkpt>
      <trkpt lat="45.16514" lon="5.51895">
        <ele>1165</ele>
        <time>2019-06-20T00:47:25Z</time>
      </trkpt>
      <trkpt lat="45.1655" lon="5.51974">
        <ele>1142</ele>
        <time>2019-06-20T00:47:40Z</time>
      </trkpt>
      <trkpt lat="45.16576" lon="5.52018">
        <ele>1130</ele>
        <time>2019-06-20T00:47:50Z</time>
      </trkpt>
      <trkpt lat="45.16656" lon="5.52069">
        <ele>1121</ele>
        <time>2019-06-20T00:48:10Z</time>
      </trkpt>
      <trkpt lat="45.16739" lon="5.52128">
        <ele>1112</ele>
        <time>2019-06-20T00:48:32Z</time>
      </trkpt>
      <trkpt lat="45.16804" lon="5.52198">
        <ele>1100</ele>
        <time>2019-06-20T00:48:51Z</time>
      </trkpt>
      <trkpt lat="45.16806" lon="5.52285">
        <ele>1080</ele>
        <time>2019-06-20T00:49:05Z</time>
      </trkpt>
      <trkpt lat="45.16848" lon="5.52386">
        <ele>1061</ele>
        <time>2019-06-20T00:49:25Z</time>
      </trkpt>
      <trkpt lat="45.16926" lon="5.52392">
        <ele>1069</ele>
        <time>2019-06-20T00:49:43Z</time>
      </trkpt>
      <trkpt lat="45.17034" lon="5.52406">
        <ele>1085</ele>
        <time>2019-06-20T00:50:08Z</time>
      </trkpt>
      <trkpt lat="45.17086" lon="5.52384">
        <ele>1094</ele>
        <time>2019-06-20T00:50:21Z</time>
      </trkpt>
      <trkpt lat="45.17115" lon="5.52433">
        <ele>1087</ele>
        <time>2019-06-20T00:50:32Z</time>
      </trkpt>
      <trkpt lat="45.17176" lon="5.52467">
        <ele>1085</ele>
        <time>2019-06-20T00:50:47Z</time>
      </trkpt>
      <trkpt lat="45.17239" lon="5.52498">
        <ele>1080</ele>
        <time>2019-06-20T00:51:02Z</time>
      </trkpt>
      <trkpt lat="45.17355" lon="5.52513">
        <ele>1063</ele>
        <time>2019-06-20T00:51:30Z</time>
      </trkpt>
      <trkpt lat="45.1747" lon="5.52536">
        <ele>1065</ele>
        <time>2019-06-20T00:51:57Z</time>
      </trkpt>
      <trkpt lat="45.17542" lon="5.52538">
        <ele>1075</ele>
        <time>2019-06-20T00:52:14Z</time>
      </trkpt>
      <trkpt lat="45.17605" lon="5.5252">
        <ele>1094</ele>
        <time>2019-06-20T00:52:29Z</time>
      </trkpt>
      <trkpt lat="45.17634" lon="5.5258">
        <ele>1081</ele>
        <time>2019-06-20T00:52:41Z</time>
      </trkpt>
      <trkpt lat="45.17681" lon="5.5259">
        <ele>1092</ele>
        <time>2019-06-20T00:52:52Z</time>
      </trkpt>
      <trkpt lat="45.17724" lon="5.52576">
        <ele>1110</ele>
        <time>2019-06-20T00:53:02Z</time>
      </trkpt>
      <trkpt lat="45.17778" lon="5.52657">
        <ele>1105</ele>
        <time>2019-06-20T00:53:20Z</time>
      </trkpt>
      <trkpt lat="45.17804" lon="5.5274">
        <ele>1093</ele>
        <time>2019-06-20T00:53:35Z</time>
      </trkpt>
      <trkpt lat="45.17853" lon="5.52776">
        <ele>1093</ele>
        <time>2019-06-20T00:53:48Z</time>
      </trkpt>
      <trkpt lat="45.17929" lon="5.52827">
        <ele>1083</ele>
        <time>2019-06-20T00:54:08Z</time>
      </trkpt>
      <trkpt lat="45.17956" lon="5.52818">
        <ele>1087</ele>
        <time>2019-06-20T00:54:14Z</time>
      </trkpt>
      <trkpt lat="45.17928" lon="5.52955">
        <ele>1057</ele>
        <time>2019-06-20T00:54:38Z</time>
      </trkpt>
      <trkpt lat="45.17899" lon="5.53064">
        <ele>1040</ele>
        <time>2019-06-20T00:54:57Z</time>
      </trkpt>
      <trkpt lat="45.1782" lon="5.5331">
        <ele>1039</ele>
        <time>2019-06-20T00:55:41Z</time>
      </trkpt>
      <trkpt lat="45.17719" lon="5.53581">
        <ele>1046</ele>
        <time>2019-06-20T00:56:32Z</time>
      </trkpt>
      <trkpt lat="45.17685" lon="5.53662">
        <ele>1050</ele>
        <time>2019-06-20T00:56:47Z</time>
      </trkpt>
      <trkpt lat="45.1766" lon="5.53745">
        <ele>1048</ele>
        <time>2019-06-20T00:57:02Z</time>
      </trkpt>
      <trkpt lat="45.17643" lon="5.53824">
        <ele>1041</ele>
        <time>2019-06-20T00:57:16Z</time>
      </trkpt>
    </trkseg>
  </trk>
</gpx>